<?xml version="1.0" encoding="UTF-8" standalone="no" ?>
<gpx xmlns="http://www.topografix.com/GPX/1/1" xmlns:xsi="http://www.w3.org/2001/XMLSchema-instance" xsi:schemaLocation="http://www.topografix.com/GPX/1/1 http://www.topografix.com/GPX/1/1/gpx.xsd" version="1.1" creator="VisuGPX - https://www.visugpx.com">
  <metadata>
    <name>SAGNES GOUD-CHAUVY LA ROCHETTE</name>
    <desc><![CDATA[4_sagnes_et_gougoulet_ la_rochette]]></desc>
  </metadata>
  <trk>
    <name><![CDATA[SAGNES GOUD-CHAUVY LA ROCHETTE]]></name>
    <trkseg>
      <trkpt lat="44.79007" lon="4.22546">
        <ele>1238.32</ele>
        <time>2002-03-28T08:47:41Z</time>
      </trkpt>
      <trkpt lat="44.79009" lon="4.22546">
        <ele>1235.43</ele>
        <time>2002-03-28T08:48:06Z</time>
      </trkpt>
      <trkpt lat="44.79009" lon="4.22546">
        <ele>1239.28</ele>
        <time>2002-03-28T08:48:07Z</time>
      </trkpt>
      <trkpt lat="44.79007" lon="4.22537">
        <ele>1238.8</ele>
        <time>2002-03-28T08:49:16Z</time>
      </trkpt>
      <trkpt lat="44.79003" lon="4.22539">
        <ele>1237.35</ele>
        <time>2002-03-28T08:50:03Z</time>
      </trkpt>
      <trkpt lat="44.79006" lon="4.22533">
        <ele>1238.32</ele>
        <time>2002-03-28T08:50:41Z</time>
      </trkpt>
      <trkpt lat="44.79004" lon="4.22527">
        <ele>1237.35</ele>
        <time>2002-03-28T08:50:46Z</time>
      </trkpt>
      <trkpt lat="44.79001" lon="4.22522">
        <ele>1237.35</ele>
        <time>2002-03-28T08:51:02Z</time>
      </trkpt>
      <trkpt lat="44.78995" lon="4.22517">
        <ele>1236.39</ele>
        <time>2002-03-28T08:51:12Z</time>
      </trkpt>
      <trkpt lat="44.78992" lon="4.22515">
        <ele>1235.43</ele>
        <time>2002-03-28T08:51:29Z</time>
      </trkpt>
      <trkpt lat="44.78986" lon="4.22509">
        <ele>1233.51</ele>
        <time>2002-03-28T08:51:42Z</time>
      </trkpt>
      <trkpt lat="44.78985" lon="4.22508">
        <ele>1233.51</ele>
        <time>2002-03-28T08:51:47Z</time>
      </trkpt>
      <trkpt lat="44.78978" lon="4.22497">
        <ele>1231.11</ele>
        <time>2002-03-28T08:51:56Z</time>
      </trkpt>
      <trkpt lat="44.78974" lon="4.22491">
        <ele>1229.66</ele>
        <time>2002-03-28T08:52:01Z</time>
      </trkpt>
      <trkpt lat="44.78975" lon="4.22481">
        <ele>1228.22</ele>
        <time>2002-03-28T08:52:08Z</time>
      </trkpt>
      <trkpt lat="44.78976" lon="4.22476">
        <ele>1227.74</ele>
        <time>2002-03-28T08:52:11Z</time>
      </trkpt>
      <trkpt lat="44.78982" lon="4.22459">
        <ele>1224.86</ele>
        <time>2002-03-28T08:52:23Z</time>
      </trkpt>
      <trkpt lat="44.78991" lon="4.22445">
        <ele>1221.97</ele>
        <time>2002-03-28T08:52:37Z</time>
      </trkpt>
      <trkpt lat="44.78993" lon="4.22444">
        <ele>1221.97</ele>
        <time>2002-03-28T08:52:39Z</time>
      </trkpt>
      <trkpt lat="44.79008" lon="4.22433">
        <ele>1220.53</ele>
        <time>2002-03-28T08:52:51Z</time>
      </trkpt>
      <trkpt lat="44.79015" lon="4.22411">
        <ele>1218.13</ele>
        <time>2002-03-28T08:53:05Z</time>
      </trkpt>
      <trkpt lat="44.79012" lon="4.22398">
        <ele>1216.69</ele>
        <time>2002-03-28T08:53:14Z</time>
      </trkpt>
      <trkpt lat="44.7901" lon="4.22395">
        <ele>1216.69</ele>
        <time>2002-03-28T08:53:17Z</time>
      </trkpt>
      <trkpt lat="44.79007" lon="4.2239">
        <ele>1216.21</ele>
        <time>2002-03-28T08:53:21Z</time>
      </trkpt>
      <trkpt lat="44.79006" lon="4.22386">
        <ele>1216.69</ele>
        <time>2002-03-28T08:53:23Z</time>
      </trkpt>
      <trkpt lat="44.79007" lon="4.22372">
        <ele>1216.69</ele>
        <time>2002-03-28T08:53:30Z</time>
      </trkpt>
      <trkpt lat="44.79006" lon="4.22364">
        <ele>1216.21</ele>
        <time>2002-03-28T08:53:39Z</time>
      </trkpt>
      <trkpt lat="44.79007" lon="4.22356">
        <ele>1215.72</ele>
        <time>2002-03-28T08:53:43Z</time>
      </trkpt>
      <trkpt lat="44.79006" lon="4.22332">
        <ele>1216.21</ele>
        <time>2002-03-28T08:53:57Z</time>
      </trkpt>
      <trkpt lat="44.79005" lon="4.22331">
        <ele>1216.69</ele>
        <time>2002-03-28T08:53:58Z</time>
      </trkpt>
      <trkpt lat="44.79003" lon="4.22319">
        <ele>1217.17</ele>
        <time>2002-03-28T08:54:09Z</time>
      </trkpt>
      <trkpt lat="44.79003" lon="4.22319">
        <ele>1211.88</ele>
        <time>2002-03-28T08:54:12Z</time>
      </trkpt>
      <trkpt lat="44.79003" lon="4.22319">
        <ele>1216.69</ele>
        <time>2002-03-28T08:54:13Z</time>
      </trkpt>
      <trkpt lat="44.79003" lon="4.22319">
        <ele>1216.69</ele>
        <time>2002-03-28T08:54:26Z</time>
      </trkpt>
      <trkpt lat="44.78996" lon="4.22314">
        <ele>1216.69</ele>
        <time>2002-03-28T08:54:55Z</time>
      </trkpt>
      <trkpt lat="44.78989" lon="4.22309">
        <ele>1216.21</ele>
        <time>2002-03-28T08:55:10Z</time>
      </trkpt>
      <trkpt lat="44.78974" lon="4.22296">
        <ele>1216.21</ele>
        <time>2002-03-28T08:55:30Z</time>
      </trkpt>
      <trkpt lat="44.78961" lon="4.22289">
        <ele>1217.17</ele>
        <time>2002-03-28T08:55:43Z</time>
      </trkpt>
      <trkpt lat="44.78947" lon="4.22279">
        <ele>1219.09</ele>
        <time>2002-03-28T08:56:36Z</time>
      </trkpt>
      <trkpt lat="44.78934" lon="4.2227">
        <ele>1221.49</ele>
        <time>2002-03-28T08:56:46Z</time>
      </trkpt>
      <trkpt lat="44.78923" lon="4.22262">
        <ele>1222.93</ele>
        <time>2002-03-28T08:56:57Z</time>
      </trkpt>
      <trkpt lat="44.7891" lon="4.22253">
        <ele>1223.9</ele>
        <time>2002-03-28T08:57:08Z</time>
      </trkpt>
      <trkpt lat="44.78899" lon="4.22244">
        <ele>1225.82</ele>
        <time>2002-03-28T08:57:21Z</time>
      </trkpt>
      <trkpt lat="44.78891" lon="4.2224">
        <ele>1227.26</ele>
        <time>2002-03-28T08:57:31Z</time>
      </trkpt>
      <trkpt lat="44.78883" lon="4.22235">
        <ele>1229.18</ele>
        <time>2002-03-28T08:57:42Z</time>
      </trkpt>
      <trkpt lat="44.78876" lon="4.22227">
        <ele>1230.62</ele>
        <time>2002-03-28T08:57:51Z</time>
      </trkpt>
      <trkpt lat="44.78864" lon="4.2222">
        <ele>1231.59</ele>
        <time>2002-03-28T08:58:02Z</time>
      </trkpt>
      <trkpt lat="44.78853" lon="4.22213">
        <ele>1232.55</ele>
        <time>2002-03-28T08:58:12Z</time>
      </trkpt>
      <trkpt lat="44.78842" lon="4.22206">
        <ele>1233.99</ele>
        <time>2002-03-28T08:58:23Z</time>
      </trkpt>
      <trkpt lat="44.78832" lon="4.22196">
        <ele>1234.47</ele>
        <time>2002-03-28T08:58:34Z</time>
      </trkpt>
      <trkpt lat="44.78828" lon="4.2219">
        <ele>1234.47</ele>
        <time>2002-03-28T08:58:40Z</time>
      </trkpt>
      <trkpt lat="44.78822" lon="4.22182">
        <ele>1234.47</ele>
        <time>2002-03-28T08:58:47Z</time>
      </trkpt>
      <trkpt lat="44.78813" lon="4.22164">
        <ele>1234.47</ele>
        <time>2002-03-28T08:58:58Z</time>
      </trkpt>
      <trkpt lat="44.78805" lon="4.22147">
        <ele>1234.47</ele>
        <time>2002-03-28T08:59:09Z</time>
      </trkpt>
      <trkpt lat="44.78799" lon="4.2213">
        <ele>1234.47</ele>
        <time>2002-03-28T08:59:26Z</time>
      </trkpt>
      <trkpt lat="44.78794" lon="4.22122">
        <ele>1234.95</ele>
        <time>2002-03-28T08:59:31Z</time>
      </trkpt>
      <trkpt lat="44.7878" lon="4.22099">
        <ele>1235.91</ele>
        <time>2002-03-28T08:59:45Z</time>
      </trkpt>
      <trkpt lat="44.78777" lon="4.22095">
        <ele>1234.95</ele>
        <time>2002-03-28T08:59:48Z</time>
      </trkpt>
      <trkpt lat="44.78765" lon="4.22079">
        <ele>1236.39</ele>
        <time>2002-03-28T09:00:01Z</time>
      </trkpt>
      <trkpt lat="44.78753" lon="4.2206">
        <ele>1236.87</ele>
        <time>2002-03-28T09:00:15Z</time>
      </trkpt>
      <trkpt lat="44.78746" lon="4.22045">
        <ele>1235.91</ele>
        <time>2002-03-28T09:00:30Z</time>
      </trkpt>
      <trkpt lat="44.78736" lon="4.22027">
        <ele>1234.95</ele>
        <time>2002-03-28T09:00:44Z</time>
      </trkpt>
      <trkpt lat="44.78726" lon="4.22006">
        <ele>1235.91</ele>
        <time>2002-03-28T09:00:57Z</time>
      </trkpt>
      <trkpt lat="44.78715" lon="4.21992">
        <ele>1236.39</ele>
        <time>2002-03-28T09:01:09Z</time>
      </trkpt>
      <trkpt lat="44.78707" lon="4.21979">
        <ele>1236.87</ele>
        <time>2002-03-28T09:01:22Z</time>
      </trkpt>
      <trkpt lat="44.78706" lon="4.21979">
        <ele>1238.8</ele>
        <time>2002-03-28T09:01:28Z</time>
      </trkpt>
      <trkpt lat="44.78705" lon="4.21974">
        <ele>1238.32</ele>
        <time>2002-03-28T09:01:44Z</time>
      </trkpt>
      <trkpt lat="44.78701" lon="4.21961">
        <ele>1239.28</ele>
        <time>2002-03-28T09:02:14Z</time>
      </trkpt>
      <trkpt lat="44.78689" lon="4.21954">
        <ele>1239.76</ele>
        <time>2002-03-28T09:02:27Z</time>
      </trkpt>
      <trkpt lat="44.78685" lon="4.21951">
        <ele>1240.24</ele>
        <time>2002-03-28T09:02:31Z</time>
      </trkpt>
      <trkpt lat="44.78675" lon="4.21946">
        <ele>1241.68</ele>
        <time>2002-03-28T09:02:42Z</time>
      </trkpt>
      <trkpt lat="44.78662" lon="4.21938">
        <ele>1243.12</ele>
        <time>2002-03-28T09:02:54Z</time>
      </trkpt>
      <trkpt lat="44.78659" lon="4.21935">
        <ele>1243.6</ele>
        <time>2002-03-28T09:02:57Z</time>
      </trkpt>
      <trkpt lat="44.78645" lon="4.21926">
        <ele>1246.01</ele>
        <time>2002-03-28T09:03:11Z</time>
      </trkpt>
      <trkpt lat="44.78642" lon="4.21925">
        <ele>1246.01</ele>
        <time>2002-03-28T09:03:13Z</time>
      </trkpt>
      <trkpt lat="44.78628" lon="4.21916">
        <ele>1246.97</ele>
        <time>2002-03-28T09:03:27Z</time>
      </trkpt>
      <trkpt lat="44.78623" lon="4.21909">
        <ele>1247.93</ele>
        <time>2002-03-28T09:03:36Z</time>
      </trkpt>
      <trkpt lat="44.78623" lon="4.21898">
        <ele>1248.41</ele>
        <time>2002-03-28T09:03:50Z</time>
      </trkpt>
      <trkpt lat="44.78623" lon="4.21898">
        <ele>1248.89</ele>
        <time>2002-03-28T09:04:04Z</time>
      </trkpt>
      <trkpt lat="44.78626" lon="4.21892">
        <ele>1247.93</ele>
        <time>2002-03-28T09:04:10Z</time>
      </trkpt>
      <trkpt lat="44.78635" lon="4.21888">
        <ele>1246.97</ele>
        <time>2002-03-28T09:04:19Z</time>
      </trkpt>
      <trkpt lat="44.78656" lon="4.21888">
        <ele>1245.04</ele>
        <time>2002-03-28T09:04:36Z</time>
      </trkpt>
      <trkpt lat="44.78664" lon="4.21887">
        <ele>1244.56</ele>
        <time>2002-03-28T09:04:41Z</time>
      </trkpt>
      <trkpt lat="44.78684" lon="4.2189">
        <ele>1242.64</ele>
        <time>2002-03-28T09:04:55Z</time>
      </trkpt>
      <trkpt lat="44.78704" lon="4.21901">
        <ele>1241.68</ele>
        <time>2002-03-28T09:05:09Z</time>
      </trkpt>
      <trkpt lat="44.78725" lon="4.2191">
        <ele>1240.72</ele>
        <time>2002-03-28T09:05:24Z</time>
      </trkpt>
      <trkpt lat="44.78732" lon="4.21912">
        <ele>1240.24</ele>
        <time>2002-03-28T09:05:29Z</time>
      </trkpt>
      <trkpt lat="44.78748" lon="4.21919">
        <ele>1239.28</ele>
        <time>2002-03-28T09:05:41Z</time>
      </trkpt>
      <trkpt lat="44.78753" lon="4.21922">
        <ele>1239.28</ele>
        <time>2002-03-28T09:05:45Z</time>
      </trkpt>
      <trkpt lat="44.78771" lon="4.21945">
        <ele>1238.8</ele>
        <time>2002-03-28T09:06:00Z</time>
      </trkpt>
      <trkpt lat="44.78777" lon="4.21954">
        <ele>1239.28</ele>
        <time>2002-03-28T09:06:10Z</time>
      </trkpt>
      <trkpt lat="44.78793" lon="4.21975">
        <ele>1239.28</ele>
        <time>2002-03-28T09:06:25Z</time>
      </trkpt>
      <trkpt lat="44.78808" lon="4.21992">
        <ele>1239.28</ele>
        <time>2002-03-28T09:06:39Z</time>
      </trkpt>
      <trkpt lat="44.78824" lon="4.22011">
        <ele>1239.28</ele>
        <time>2002-03-28T09:06:54Z</time>
      </trkpt>
      <trkpt lat="44.78843" lon="4.22025">
        <ele>1238.8</ele>
        <time>2002-03-28T09:07:10Z</time>
      </trkpt>
      <trkpt lat="44.78859" lon="4.22034">
        <ele>1238.8</ele>
        <time>2002-03-28T09:07:24Z</time>
      </trkpt>
      <trkpt lat="44.78873" lon="4.22044">
        <ele>1239.28</ele>
        <time>2002-03-28T09:07:37Z</time>
      </trkpt>
      <trkpt lat="44.78884" lon="4.22048">
        <ele>1238.8</ele>
        <time>2002-03-28T09:07:49Z</time>
      </trkpt>
      <trkpt lat="44.78893" lon="4.22049">
        <ele>1239.76</ele>
        <time>2002-03-28T09:08:02Z</time>
      </trkpt>
      <trkpt lat="44.78902" lon="4.2205">
        <ele>1240.24</ele>
        <time>2002-03-28T09:08:14Z</time>
      </trkpt>
      <trkpt lat="44.78911" lon="4.22051">
        <ele>1242.16</ele>
        <time>2002-03-28T09:08:28Z</time>
      </trkpt>
      <trkpt lat="44.78922" lon="4.22052">
        <ele>1242.64</ele>
        <time>2002-03-28T09:08:40Z</time>
      </trkpt>
      <trkpt lat="44.78938" lon="4.22054">
        <ele>1242.64</ele>
        <time>2002-03-28T09:08:51Z</time>
      </trkpt>
      <trkpt lat="44.78951" lon="4.22055">
        <ele>1242.16</ele>
        <time>2002-03-28T09:09:01Z</time>
      </trkpt>
      <trkpt lat="44.7896" lon="4.22053">
        <ele>1242.16</ele>
        <time>2002-03-28T09:09:06Z</time>
      </trkpt>
      <trkpt lat="44.78983" lon="4.22052">
        <ele>1241.2</ele>
        <time>2002-03-28T09:09:20Z</time>
      </trkpt>
      <trkpt lat="44.78999" lon="4.22049">
        <ele>1241.2</ele>
        <time>2002-03-28T09:09:32Z</time>
      </trkpt>
      <trkpt lat="44.79019" lon="4.22049">
        <ele>1240.24</ele>
        <time>2002-03-28T09:09:45Z</time>
      </trkpt>
      <trkpt lat="44.79042" lon="4.22048">
        <ele>1241.2</ele>
        <time>2002-03-28T09:10:00Z</time>
      </trkpt>
      <trkpt lat="44.7906" lon="4.2205">
        <ele>1242.16</ele>
        <time>2002-03-28T09:10:13Z</time>
      </trkpt>
      <trkpt lat="44.79062" lon="4.22051">
        <ele>1242.16</ele>
        <time>2002-03-28T09:10:27Z</time>
      </trkpt>
      <trkpt lat="44.79063" lon="4.22052">
        <ele>1240.72</ele>
        <time>2002-03-28T09:11:35Z</time>
      </trkpt>
      <trkpt lat="44.79064" lon="4.22051">
        <ele>1242.16</ele>
        <time>2002-03-28T09:12:57Z</time>
      </trkpt>
      <trkpt lat="44.79065" lon="4.22051">
        <ele>1241.68</ele>
        <time>2002-03-28T09:13:14Z</time>
      </trkpt>
      <trkpt lat="44.79065" lon="4.22051">
        <ele>1245.53</ele>
        <time>2002-03-28T09:13:24Z</time>
      </trkpt>
      <trkpt lat="44.79065" lon="4.22051">
        <ele>1243.12</ele>
        <time>2002-03-28T09:13:25Z</time>
      </trkpt>
      <trkpt lat="44.79065" lon="4.22051">
        <ele>1237.35</ele>
        <time>2002-03-28T09:13:50Z</time>
      </trkpt>
      <trkpt lat="44.79065" lon="4.22051">
        <ele>1241.2</ele>
        <time>2002-03-28T09:13:51Z</time>
      </trkpt>
      <trkpt lat="44.79065" lon="4.22051">
        <ele>1244.08</ele>
        <time>2002-03-28T09:14:05Z</time>
      </trkpt>
      <trkpt lat="44.79065" lon="4.22051">
        <ele>1236.39</ele>
        <time>2002-03-28T09:14:07Z</time>
      </trkpt>
      <trkpt lat="44.79065" lon="4.22051">
        <ele>1241.68</ele>
        <time>2002-03-28T09:14:08Z</time>
      </trkpt>
      <trkpt lat="44.79065" lon="4.22052">
        <ele>1242.16</ele>
        <time>2002-03-28T09:14:31Z</time>
      </trkpt>
      <trkpt lat="44.79065" lon="4.22051">
        <ele>1241.2</ele>
        <time>2002-03-28T09:14:44Z</time>
      </trkpt>
      <trkpt lat="44.79069" lon="4.22049">
        <ele>1241.2</ele>
        <time>2002-03-28T09:14:49Z</time>
      </trkpt>
      <trkpt lat="44.79074" lon="4.22041">
        <ele>1241.2</ele>
        <time>2002-03-28T09:15:01Z</time>
      </trkpt>
      <trkpt lat="44.79079" lon="4.22034">
        <ele>1240.24</ele>
        <time>2002-03-28T09:15:06Z</time>
      </trkpt>
      <trkpt lat="44.79084" lon="4.22025">
        <ele>1240.72</ele>
        <time>2002-03-28T09:15:12Z</time>
      </trkpt>
      <trkpt lat="44.79093" lon="4.22012">
        <ele>1238.8</ele>
        <time>2002-03-28T09:15:21Z</time>
      </trkpt>
      <trkpt lat="44.79109" lon="4.21994">
        <ele>1237.35</ele>
        <time>2002-03-28T09:15:36Z</time>
      </trkpt>
      <trkpt lat="44.79119" lon="4.21984">
        <ele>1236.39</ele>
        <time>2002-03-28T09:15:45Z</time>
      </trkpt>
      <trkpt lat="44.79126" lon="4.21977">
        <ele>1235.43</ele>
        <time>2002-03-28T09:15:57Z</time>
      </trkpt>
      <trkpt lat="44.79136" lon="4.21958">
        <ele>1233.99</ele>
        <time>2002-03-28T09:16:09Z</time>
      </trkpt>
      <trkpt lat="44.79152" lon="4.21933">
        <ele>1233.03</ele>
        <time>2002-03-28T09:16:26Z</time>
      </trkpt>
      <trkpt lat="44.79164" lon="4.21915">
        <ele>1233.03</ele>
        <time>2002-03-28T09:16:40Z</time>
      </trkpt>
      <trkpt lat="44.79176" lon="4.21909">
        <ele>1233.51</ele>
        <time>2002-03-28T09:16:56Z</time>
      </trkpt>
      <trkpt lat="44.79177" lon="4.21909">
        <ele>1233.03</ele>
        <time>2002-03-28T09:18:01Z</time>
      </trkpt>
      <trkpt lat="44.79179" lon="4.21909">
        <ele>1233.99</ele>
        <time>2002-03-28T09:18:31Z</time>
      </trkpt>
      <trkpt lat="44.79185" lon="4.21918">
        <ele>1233.99</ele>
        <time>2002-03-28T09:18:48Z</time>
      </trkpt>
      <trkpt lat="44.79192" lon="4.21927">
        <ele>1236.87</ele>
        <time>2002-03-28T09:19:01Z</time>
      </trkpt>
      <trkpt lat="44.79197" lon="4.21931">
        <ele>1238.8</ele>
        <time>2002-03-28T09:19:11Z</time>
      </trkpt>
      <trkpt lat="44.79206" lon="4.21936">
        <ele>1239.76</ele>
        <time>2002-03-28T09:19:23Z</time>
      </trkpt>
      <trkpt lat="44.79212" lon="4.2194">
        <ele>1242.64</ele>
        <time>2002-03-28T09:19:35Z</time>
      </trkpt>
      <trkpt lat="44.79223" lon="4.21946">
        <ele>1244.56</ele>
        <time>2002-03-28T09:19:54Z</time>
      </trkpt>
      <trkpt lat="44.7923" lon="4.21948">
        <ele>1246.01</ele>
        <time>2002-03-28T09:20:08Z</time>
      </trkpt>
      <trkpt lat="44.79237" lon="4.21953">
        <ele>1246.01</ele>
        <time>2002-03-28T09:20:13Z</time>
      </trkpt>
      <trkpt lat="44.79242" lon="4.21957">
        <ele>1246.49</ele>
        <time>2002-03-28T09:20:17Z</time>
      </trkpt>
      <trkpt lat="44.79246" lon="4.21962">
        <ele>1246.97</ele>
        <time>2002-03-28T09:20:20Z</time>
      </trkpt>
      <trkpt lat="44.79265" lon="4.21977">
        <ele>1247.93</ele>
        <time>2002-03-28T09:20:34Z</time>
      </trkpt>
      <trkpt lat="44.79275" lon="4.21982">
        <ele>1248.41</ele>
        <time>2002-03-28T09:20:44Z</time>
      </trkpt>
      <trkpt lat="44.79286" lon="4.21993">
        <ele>1249.85</ele>
        <time>2002-03-28T09:20:58Z</time>
      </trkpt>
      <trkpt lat="44.79288" lon="4.21994">
        <ele>1250.33</ele>
        <time>2002-03-28T09:21:07Z</time>
      </trkpt>
      <trkpt lat="44.79298" lon="4.22002">
        <ele>1251.29</ele>
        <time>2002-03-28T09:21:29Z</time>
      </trkpt>
      <trkpt lat="44.79306" lon="4.22006">
        <ele>1251.77</ele>
        <time>2002-03-28T09:21:50Z</time>
      </trkpt>
      <trkpt lat="44.79315" lon="4.22002">
        <ele>1250.33</ele>
        <time>2002-03-28T09:22:02Z</time>
      </trkpt>
      <trkpt lat="44.79329" lon="4.22">
        <ele>1250.33</ele>
        <time>2002-03-28T09:22:17Z</time>
      </trkpt>
      <trkpt lat="44.79354" lon="4.22011">
        <ele>1247.93</ele>
        <time>2002-03-28T09:22:47Z</time>
      </trkpt>
      <trkpt lat="44.79364" lon="4.22012">
        <ele>1248.41</ele>
        <time>2002-03-28T09:22:52Z</time>
      </trkpt>
      <trkpt lat="44.79388" lon="4.2202">
        <ele>1246.49</ele>
        <time>2002-03-28T09:23:04Z</time>
      </trkpt>
      <trkpt lat="44.7942" lon="4.22035">
        <ele>1244.56</ele>
        <time>2002-03-28T09:23:21Z</time>
      </trkpt>
      <trkpt lat="44.79436" lon="4.22043">
        <ele>1244.08</ele>
        <time>2002-03-28T09:23:52Z</time>
      </trkpt>
      <trkpt lat="44.79455" lon="4.22055">
        <ele>1241.68</ele>
        <time>2002-03-28T09:24:05Z</time>
      </trkpt>
      <trkpt lat="44.79477" lon="4.22065">
        <ele>1240.24</ele>
        <time>2002-03-28T09:24:20Z</time>
      </trkpt>
      <trkpt lat="44.79498" lon="4.22075">
        <ele>1241.68</ele>
        <time>2002-03-28T09:24:36Z</time>
      </trkpt>
      <trkpt lat="44.7952" lon="4.22084">
        <ele>1240.24</ele>
        <time>2002-03-28T09:24:52Z</time>
      </trkpt>
      <trkpt lat="44.79541" lon="4.22087">
        <ele>1238.32</ele>
        <time>2002-03-28T09:25:09Z</time>
      </trkpt>
      <trkpt lat="44.7955" lon="4.2209">
        <ele>1234.95</ele>
        <time>2002-03-28T09:25:19Z</time>
      </trkpt>
      <trkpt lat="44.79557" lon="4.22093">
        <ele>1234.47</ele>
        <time>2002-03-28T09:25:26Z</time>
      </trkpt>
      <trkpt lat="44.7956" lon="4.22096">
        <ele>1233.03</ele>
        <time>2002-03-28T09:25:30Z</time>
      </trkpt>
      <trkpt lat="44.79564" lon="4.22098">
        <ele>1231.59</ele>
        <time>2002-03-28T09:25:34Z</time>
      </trkpt>
      <trkpt lat="44.79572" lon="4.22102">
        <ele>1229.18</ele>
        <time>2002-03-28T09:25:42Z</time>
      </trkpt>
      <trkpt lat="44.79581" lon="4.22116">
        <ele>1226.78</ele>
        <time>2002-03-28T09:25:55Z</time>
      </trkpt>
      <trkpt lat="44.79584" lon="4.2212">
        <ele>1225.34</ele>
        <time>2002-03-28T09:26:01Z</time>
      </trkpt>
      <trkpt lat="44.79589" lon="4.22132">
        <ele>1222.45</ele>
        <time>2002-03-28T09:26:16Z</time>
      </trkpt>
      <trkpt lat="44.79588" lon="4.22132">
        <ele>1221.97</ele>
        <time>2002-03-28T09:26:27Z</time>
      </trkpt>
      <trkpt lat="44.79591" lon="4.22136">
        <ele>1221.49</ele>
        <time>2002-03-28T09:26:36Z</time>
      </trkpt>
      <trkpt lat="44.79605" lon="4.22145">
        <ele>1219.57</ele>
        <time>2002-03-28T09:26:51Z</time>
      </trkpt>
      <trkpt lat="44.79611" lon="4.22146">
        <ele>1218.13</ele>
        <time>2002-03-28T09:27:17Z</time>
      </trkpt>
      <trkpt lat="44.79613" lon="4.22148">
        <ele>1218.13</ele>
        <time>2002-03-28T09:27:29Z</time>
      </trkpt>
      <trkpt lat="44.7962" lon="4.22155">
        <ele>1218.13</ele>
        <time>2002-03-28T09:27:44Z</time>
      </trkpt>
      <trkpt lat="44.79625" lon="4.22167">
        <ele>1218.13</ele>
        <time>2002-03-28T09:27:52Z</time>
      </trkpt>
      <trkpt lat="44.79628" lon="4.22171">
        <ele>1219.09</ele>
        <time>2002-03-28T09:28:11Z</time>
      </trkpt>
      <trkpt lat="44.79634" lon="4.22181">
        <ele>1218.13</ele>
        <time>2002-03-28T09:28:43Z</time>
      </trkpt>
      <trkpt lat="44.79644" lon="4.22189">
        <ele>1219.57</ele>
        <time>2002-03-28T09:28:55Z</time>
      </trkpt>
      <trkpt lat="44.79654" lon="4.22202">
        <ele>1221.97</ele>
        <time>2002-03-28T09:29:09Z</time>
      </trkpt>
      <trkpt lat="44.79663" lon="4.22212">
        <ele>1224.38</ele>
        <time>2002-03-28T09:29:22Z</time>
      </trkpt>
      <trkpt lat="44.79667" lon="4.22222">
        <ele>1225.82</ele>
        <time>2002-03-28T09:29:34Z</time>
      </trkpt>
      <trkpt lat="44.79671" lon="4.22231">
        <ele>1228.22</ele>
        <time>2002-03-28T09:29:46Z</time>
      </trkpt>
      <trkpt lat="44.79678" lon="4.22242">
        <ele>1228.7</ele>
        <time>2002-03-28T09:30:04Z</time>
      </trkpt>
      <trkpt lat="44.79682" lon="4.22246">
        <ele>1229.18</ele>
        <time>2002-03-28T09:30:23Z</time>
      </trkpt>
      <trkpt lat="44.79694" lon="4.22255">
        <ele>1231.11</ele>
        <time>2002-03-28T09:30:36Z</time>
      </trkpt>
      <trkpt lat="44.79697" lon="4.22256">
        <ele>1230.14</ele>
        <time>2002-03-28T09:30:39Z</time>
      </trkpt>
      <trkpt lat="44.79712" lon="4.22257">
        <ele>1230.62</ele>
        <time>2002-03-28T09:30:52Z</time>
      </trkpt>
      <trkpt lat="44.79723" lon="4.22253">
        <ele>1231.11</ele>
        <time>2002-03-28T09:31:11Z</time>
      </trkpt>
      <trkpt lat="44.79744" lon="4.2226">
        <ele>1230.62</ele>
        <time>2002-03-28T09:31:28Z</time>
      </trkpt>
      <trkpt lat="44.79755" lon="4.22269">
        <ele>1231.11</ele>
        <time>2002-03-28T09:31:37Z</time>
      </trkpt>
      <trkpt lat="44.79758" lon="4.22272">
        <ele>1231.11</ele>
        <time>2002-03-28T09:31:40Z</time>
      </trkpt>
      <trkpt lat="44.79766" lon="4.22279">
        <ele>1232.07</ele>
        <time>2002-03-28T09:31:47Z</time>
      </trkpt>
      <trkpt lat="44.79782" lon="4.22296">
        <ele>1231.59</ele>
        <time>2002-03-28T09:32:03Z</time>
      </trkpt>
      <trkpt lat="44.79791" lon="4.22306">
        <ele>1231.59</ele>
        <time>2002-03-28T09:32:15Z</time>
      </trkpt>
      <trkpt lat="44.79796" lon="4.22312">
        <ele>1230.62</ele>
        <time>2002-03-28T09:32:30Z</time>
      </trkpt>
      <trkpt lat="44.79797" lon="4.22313">
        <ele>1231.59</ele>
        <time>2002-03-28T09:32:32Z</time>
      </trkpt>
      <trkpt lat="44.798" lon="4.22315">
        <ele>1231.59</ele>
        <time>2002-03-28T09:32:35Z</time>
      </trkpt>
      <trkpt lat="44.79805" lon="4.2232">
        <ele>1231.11</ele>
        <time>2002-03-28T09:32:39Z</time>
      </trkpt>
      <trkpt lat="44.79827" lon="4.2234">
        <ele>1229.66</ele>
        <time>2002-03-28T09:32:56Z</time>
      </trkpt>
      <trkpt lat="44.79839" lon="4.2235">
        <ele>1228.7</ele>
        <time>2002-03-28T09:33:05Z</time>
      </trkpt>
      <trkpt lat="44.79857" lon="4.22367">
        <ele>1229.66</ele>
        <time>2002-03-28T09:33:21Z</time>
      </trkpt>
      <trkpt lat="44.79874" lon="4.22389">
        <ele>1230.14</ele>
        <time>2002-03-28T09:33:36Z</time>
      </trkpt>
      <trkpt lat="44.79889" lon="4.22415">
        <ele>1229.66</ele>
        <time>2002-03-28T09:33:53Z</time>
      </trkpt>
      <trkpt lat="44.79901" lon="4.22441">
        <ele>1231.11</ele>
        <time>2002-03-28T09:34:09Z</time>
      </trkpt>
      <trkpt lat="44.79913" lon="4.22465">
        <ele>1231.59</ele>
        <time>2002-03-28T09:34:24Z</time>
      </trkpt>
      <trkpt lat="44.79922" lon="4.22485">
        <ele>1231.59</ele>
        <time>2002-03-28T09:34:37Z</time>
      </trkpt>
      <trkpt lat="44.79932" lon="4.22506">
        <ele>1233.51</ele>
        <time>2002-03-28T09:34:51Z</time>
      </trkpt>
      <trkpt lat="44.79944" lon="4.22532">
        <ele>1232.55</ele>
        <time>2002-03-28T09:35:07Z</time>
      </trkpt>
      <trkpt lat="44.79955" lon="4.22558">
        <ele>1232.07</ele>
        <time>2002-03-28T09:35:23Z</time>
      </trkpt>
      <trkpt lat="44.79966" lon="4.22578">
        <ele>1232.07</ele>
        <time>2002-03-28T09:35:37Z</time>
      </trkpt>
      <trkpt lat="44.79983" lon="4.22601">
        <ele>1232.55</ele>
        <time>2002-03-28T09:35:54Z</time>
      </trkpt>
      <trkpt lat="44.79996" lon="4.22621">
        <ele>1232.07</ele>
        <time>2002-03-28T09:36:09Z</time>
      </trkpt>
      <trkpt lat="44.8001" lon="4.22642">
        <ele>1233.03</ele>
        <time>2002-03-28T09:36:24Z</time>
      </trkpt>
      <trkpt lat="44.80017" lon="4.22655">
        <ele>1233.99</ele>
        <time>2002-03-28T09:36:39Z</time>
      </trkpt>
      <trkpt lat="44.80017" lon="4.22654">
        <ele>1234.95</ele>
        <time>2002-03-28T09:37:02Z</time>
      </trkpt>
      <trkpt lat="44.80018" lon="4.22656">
        <ele>1233.99</ele>
        <time>2002-03-28T09:38:26Z</time>
      </trkpt>
      <trkpt lat="44.80027" lon="4.22665">
        <ele>1235.43</ele>
        <time>2002-03-28T09:38:38Z</time>
      </trkpt>
      <trkpt lat="44.80039" lon="4.22664">
        <ele>1237.35</ele>
        <time>2002-03-28T09:38:51Z</time>
      </trkpt>
      <trkpt lat="44.80041" lon="4.22663">
        <ele>1238.8</ele>
        <time>2002-03-28T09:38:54Z</time>
      </trkpt>
      <trkpt lat="44.80049" lon="4.22661">
        <ele>1238.8</ele>
        <time>2002-03-28T09:39:03Z</time>
      </trkpt>
      <trkpt lat="44.80051" lon="4.22661">
        <ele>1239.76</ele>
        <time>2002-03-28T09:39:05Z</time>
      </trkpt>
      <trkpt lat="44.80065" lon="4.22659">
        <ele>1240.24</ele>
        <time>2002-03-28T09:39:18Z</time>
      </trkpt>
      <trkpt lat="44.80074" lon="4.22657">
        <ele>1241.2</ele>
        <time>2002-03-28T09:39:27Z</time>
      </trkpt>
      <trkpt lat="44.80077" lon="4.22656">
        <ele>1241.2</ele>
        <time>2002-03-28T09:39:29Z</time>
      </trkpt>
      <trkpt lat="44.80086" lon="4.22656">
        <ele>1243.12</ele>
        <time>2002-03-28T09:39:39Z</time>
      </trkpt>
      <trkpt lat="44.80099" lon="4.22658">
        <ele>1243.12</ele>
        <time>2002-03-28T09:39:51Z</time>
      </trkpt>
      <trkpt lat="44.80111" lon="4.22661">
        <ele>1243.12</ele>
        <time>2002-03-28T09:40:02Z</time>
      </trkpt>
      <trkpt lat="44.80114" lon="4.22663">
        <ele>1242.64</ele>
        <time>2002-03-28T09:40:21Z</time>
      </trkpt>
      <trkpt lat="44.80115" lon="4.22663">
        <ele>1243.6</ele>
        <time>2002-03-28T09:41:23Z</time>
      </trkpt>
      <trkpt lat="44.80121" lon="4.22665">
        <ele>1244.56</ele>
        <time>2002-03-28T09:41:59Z</time>
      </trkpt>
      <trkpt lat="44.80122" lon="4.22665">
        <ele>1244.08</ele>
        <time>2002-03-28T09:42:00Z</time>
      </trkpt>
      <trkpt lat="44.80127" lon="4.22669">
        <ele>1244.56</ele>
        <time>2002-03-28T09:42:05Z</time>
      </trkpt>
      <trkpt lat="44.80133" lon="4.22671">
        <ele>1245.04</ele>
        <time>2002-03-28T09:42:09Z</time>
      </trkpt>
      <trkpt lat="44.8015" lon="4.2268">
        <ele>1245.53</ele>
        <time>2002-03-28T09:42:23Z</time>
      </trkpt>
      <trkpt lat="44.80168" lon="4.22691">
        <ele>1246.01</ele>
        <time>2002-03-28T09:42:37Z</time>
      </trkpt>
      <trkpt lat="44.80181" lon="4.22697">
        <ele>1246.97</ele>
        <time>2002-03-28T09:42:48Z</time>
      </trkpt>
      <trkpt lat="44.80192" lon="4.22699">
        <ele>1247.45</ele>
        <time>2002-03-28T09:42:57Z</time>
      </trkpt>
      <trkpt lat="44.80207" lon="4.22702">
        <ele>1247.45</ele>
        <time>2002-03-28T09:43:09Z</time>
      </trkpt>
      <trkpt lat="44.80221" lon="4.22706">
        <ele>1248.89</ele>
        <time>2002-03-28T09:43:21Z</time>
      </trkpt>
      <trkpt lat="44.80234" lon="4.22711">
        <ele>1251.29</ele>
        <time>2002-03-28T09:43:33Z</time>
      </trkpt>
      <trkpt lat="44.80245" lon="4.22714">
        <ele>1251.29</ele>
        <time>2002-03-28T09:43:44Z</time>
      </trkpt>
      <trkpt lat="44.80257" lon="4.22716">
        <ele>1253.22</ele>
        <time>2002-03-28T09:43:55Z</time>
      </trkpt>
      <trkpt lat="44.80267" lon="4.22717">
        <ele>1253.7</ele>
        <time>2002-03-28T09:44:06Z</time>
      </trkpt>
      <trkpt lat="44.80283" lon="4.22719">
        <ele>1254.66</ele>
        <time>2002-03-28T09:44:18Z</time>
      </trkpt>
      <trkpt lat="44.80293" lon="4.22721">
        <ele>1254.66</ele>
        <time>2002-03-28T09:44:27Z</time>
      </trkpt>
      <trkpt lat="44.80312" lon="4.22727">
        <ele>1254.18</ele>
        <time>2002-03-28T09:44:41Z</time>
      </trkpt>
      <trkpt lat="44.80331" lon="4.22732">
        <ele>1253.7</ele>
        <time>2002-03-28T09:44:53Z</time>
      </trkpt>
      <trkpt lat="44.8035" lon="4.22734">
        <ele>1253.7</ele>
        <time>2002-03-28T09:45:06Z</time>
      </trkpt>
      <trkpt lat="44.80364" lon="4.22737">
        <ele>1254.18</ele>
        <time>2002-03-28T09:45:17Z</time>
      </trkpt>
      <trkpt lat="44.80378" lon="4.2274">
        <ele>1254.66</ele>
        <time>2002-03-28T09:45:30Z</time>
      </trkpt>
      <trkpt lat="44.80385" lon="4.22739">
        <ele>1254.18</ele>
        <time>2002-03-28T09:45:41Z</time>
      </trkpt>
      <trkpt lat="44.80391" lon="4.22742">
        <ele>1254.66</ele>
        <time>2002-03-28T09:45:59Z</time>
      </trkpt>
      <trkpt lat="44.80408" lon="4.22748">
        <ele>1255.62</ele>
        <time>2002-03-28T09:46:14Z</time>
      </trkpt>
      <trkpt lat="44.8042" lon="4.22752">
        <ele>1256.58</ele>
        <time>2002-03-28T09:46:25Z</time>
      </trkpt>
      <trkpt lat="44.80435" lon="4.22756">
        <ele>1258.02</ele>
        <time>2002-03-28T09:46:38Z</time>
      </trkpt>
      <trkpt lat="44.80454" lon="4.22762">
        <ele>1258.98</ele>
        <time>2002-03-28T09:46:55Z</time>
      </trkpt>
      <trkpt lat="44.8047" lon="4.22769">
        <ele>1259.94</ele>
        <time>2002-03-28T09:47:09Z</time>
      </trkpt>
      <trkpt lat="44.80483" lon="4.22771">
        <ele>1261.39</ele>
        <time>2002-03-28T09:47:22Z</time>
      </trkpt>
      <trkpt lat="44.80492" lon="4.22772">
        <ele>1261.87</ele>
        <time>2002-03-28T09:47:30Z</time>
      </trkpt>
      <trkpt lat="44.80509" lon="4.22774">
        <ele>1262.83</ele>
        <time>2002-03-28T09:47:44Z</time>
      </trkpt>
      <trkpt lat="44.80516" lon="4.22773">
        <ele>1264.27</ele>
        <time>2002-03-28T09:47:50Z</time>
      </trkpt>
      <trkpt lat="44.80523" lon="4.22771">
        <ele>1263.79</ele>
        <time>2002-03-28T09:48:01Z</time>
      </trkpt>
      <trkpt lat="44.80525" lon="4.22771">
        <ele>1264.27</ele>
        <time>2002-03-28T09:48:12Z</time>
      </trkpt>
      <trkpt lat="44.80529" lon="4.22771">
        <ele>1263.79</ele>
        <time>2002-03-28T09:48:16Z</time>
      </trkpt>
      <trkpt lat="44.80537" lon="4.22769">
        <ele>1264.75</ele>
        <time>2002-03-28T09:48:30Z</time>
      </trkpt>
      <trkpt lat="44.80548" lon="4.22768">
        <ele>1265.71</ele>
        <time>2002-03-28T09:48:42Z</time>
      </trkpt>
      <trkpt lat="44.80559" lon="4.22767">
        <ele>1267.16</ele>
        <time>2002-03-28T09:48:53Z</time>
      </trkpt>
      <trkpt lat="44.80564" lon="4.22767">
        <ele>1266.67</ele>
        <time>2002-03-28T09:48:57Z</time>
      </trkpt>
      <trkpt lat="44.80575" lon="4.22769">
        <ele>1268.6</ele>
        <time>2002-03-28T09:49:09Z</time>
      </trkpt>
      <trkpt lat="44.80588" lon="4.22765">
        <ele>1269.56</ele>
        <time>2002-03-28T09:49:20Z</time>
      </trkpt>
      <trkpt lat="44.80591" lon="4.22764">
        <ele>1270.52</ele>
        <time>2002-03-28T09:49:23Z</time>
      </trkpt>
      <trkpt lat="44.80602" lon="4.2276">
        <ele>1271.96</ele>
        <time>2002-03-28T09:49:34Z</time>
      </trkpt>
      <trkpt lat="44.80613" lon="4.22757">
        <ele>1272.44</ele>
        <time>2002-03-28T09:49:45Z</time>
      </trkpt>
      <trkpt lat="44.80622" lon="4.22754">
        <ele>1273.88</ele>
        <time>2002-03-28T09:49:55Z</time>
      </trkpt>
      <trkpt lat="44.80628" lon="4.22752">
        <ele>1274.36</ele>
        <time>2002-03-28T09:50:00Z</time>
      </trkpt>
      <trkpt lat="44.80643" lon="4.22748">
        <ele>1275.81</ele>
        <time>2002-03-28T09:50:13Z</time>
      </trkpt>
      <trkpt lat="44.80658" lon="4.22746">
        <ele>1277.25</ele>
        <time>2002-03-28T09:50:24Z</time>
      </trkpt>
      <trkpt lat="44.80664" lon="4.22746">
        <ele>1277.73</ele>
        <time>2002-03-28T09:50:29Z</time>
      </trkpt>
      <trkpt lat="44.80675" lon="4.2274">
        <ele>1278.69</ele>
        <time>2002-03-28T09:50:40Z</time>
      </trkpt>
      <trkpt lat="44.80686" lon="4.22735">
        <ele>1280.13</ele>
        <time>2002-03-28T09:50:50Z</time>
      </trkpt>
      <trkpt lat="44.80695" lon="4.2273">
        <ele>1281.09</ele>
        <time>2002-03-28T09:51:01Z</time>
      </trkpt>
      <trkpt lat="44.807" lon="4.22728">
        <ele>1282.54</ele>
        <time>2002-03-28T09:51:09Z</time>
      </trkpt>
      <trkpt lat="44.80704" lon="4.22725">
        <ele>1283.5</ele>
        <time>2002-03-28T09:51:19Z</time>
      </trkpt>
      <trkpt lat="44.80709" lon="4.22722">
        <ele>1284.46</ele>
        <time>2002-03-28T09:51:30Z</time>
      </trkpt>
      <trkpt lat="44.80718" lon="4.22714">
        <ele>1286.38</ele>
        <time>2002-03-28T09:51:44Z</time>
      </trkpt>
      <trkpt lat="44.8072" lon="4.22713">
        <ele>1286.86</ele>
        <time>2002-03-28T09:51:46Z</time>
      </trkpt>
      <trkpt lat="44.80728" lon="4.22714">
        <ele>1287.82</ele>
        <time>2002-03-28T09:51:58Z</time>
      </trkpt>
      <trkpt lat="44.80729" lon="4.22714">
        <ele>1287.34</ele>
        <time>2002-03-28T09:53:36Z</time>
      </trkpt>
      <trkpt lat="44.80741" lon="4.22711">
        <ele>1288.78</ele>
        <time>2002-03-28T09:54:00Z</time>
      </trkpt>
      <trkpt lat="44.80748" lon="4.2271">
        <ele>1288.78</ele>
        <time>2002-03-28T09:54:08Z</time>
      </trkpt>
      <trkpt lat="44.80757" lon="4.22704">
        <ele>1290.23</ele>
        <time>2002-03-28T09:54:16Z</time>
      </trkpt>
      <trkpt lat="44.80766" lon="4.22701">
        <ele>1290.71</ele>
        <time>2002-03-28T09:54:23Z</time>
      </trkpt>
      <trkpt lat="44.80784" lon="4.22694">
        <ele>1292.15</ele>
        <time>2002-03-28T09:54:37Z</time>
      </trkpt>
      <trkpt lat="44.80787" lon="4.22692">
        <ele>1292.63</ele>
        <time>2002-03-28T09:54:42Z</time>
      </trkpt>
      <trkpt lat="44.808" lon="4.22682">
        <ele>1294.55</ele>
        <time>2002-03-28T09:54:56Z</time>
      </trkpt>
      <trkpt lat="44.80803" lon="4.22681">
        <ele>1294.55</ele>
        <time>2002-03-28T09:54:58Z</time>
      </trkpt>
      <trkpt lat="44.80814" lon="4.22674">
        <ele>1295.99</ele>
        <time>2002-03-28T09:55:09Z</time>
      </trkpt>
      <trkpt lat="44.80823" lon="4.22666">
        <ele>1297.44</ele>
        <time>2002-03-28T09:55:19Z</time>
      </trkpt>
      <trkpt lat="44.80827" lon="4.22665">
        <ele>1297.92</ele>
        <time>2002-03-28T09:55:23Z</time>
      </trkpt>
      <trkpt lat="44.80836" lon="4.22656">
        <ele>1298.88</ele>
        <time>2002-03-28T09:55:34Z</time>
      </trkpt>
      <trkpt lat="44.80849" lon="4.22645">
        <ele>1300.8</ele>
        <time>2002-03-28T09:55:46Z</time>
      </trkpt>
      <trkpt lat="44.8086" lon="4.22634">
        <ele>1301.76</ele>
        <time>2002-03-28T09:55:59Z</time>
      </trkpt>
      <trkpt lat="44.80869" lon="4.22629">
        <ele>1303.2</ele>
        <time>2002-03-28T09:56:11Z</time>
      </trkpt>
      <trkpt lat="44.80876" lon="4.22623">
        <ele>1304.65</ele>
        <time>2002-03-28T09:56:21Z</time>
      </trkpt>
      <trkpt lat="44.80886" lon="4.22613">
        <ele>1307.05</ele>
        <time>2002-03-28T09:56:34Z</time>
      </trkpt>
      <trkpt lat="44.80889" lon="4.22611">
        <ele>1307.53</ele>
        <time>2002-03-28T09:56:49Z</time>
      </trkpt>
      <trkpt lat="44.80889" lon="4.22611">
        <ele>1307.53</ele>
        <time>2002-03-28T09:56:50Z</time>
      </trkpt>
      <trkpt lat="44.80893" lon="4.22609">
        <ele>1308.49</ele>
        <time>2002-03-28T09:56:55Z</time>
      </trkpt>
      <trkpt lat="44.80907" lon="4.22607">
        <ele>1308.97</ele>
        <time>2002-03-28T09:57:09Z</time>
      </trkpt>
      <trkpt lat="44.8091" lon="4.22604">
        <ele>1309.45</ele>
        <time>2002-03-28T09:57:27Z</time>
      </trkpt>
      <trkpt lat="44.80914" lon="4.22597">
        <ele>1309.45</ele>
        <time>2002-03-28T09:58:14Z</time>
      </trkpt>
      <trkpt lat="44.80926" lon="4.22587">
        <ele>1311.38</ele>
        <time>2002-03-28T09:58:27Z</time>
      </trkpt>
      <trkpt lat="44.80934" lon="4.22579">
        <ele>1313.3</ele>
        <time>2002-03-28T09:58:38Z</time>
      </trkpt>
      <trkpt lat="44.80939" lon="4.22576">
        <ele>1314.26</ele>
        <time>2002-03-28T09:58:43Z</time>
      </trkpt>
      <trkpt lat="44.8095" lon="4.22574">
        <ele>1315.7</ele>
        <time>2002-03-28T09:58:53Z</time>
      </trkpt>
      <trkpt lat="44.80951" lon="4.22574">
        <ele>1315.7</ele>
        <time>2002-03-28T09:58:54Z</time>
      </trkpt>
      <trkpt lat="44.80958" lon="4.2256">
        <ele>1318.1</ele>
        <time>2002-03-28T09:59:08Z</time>
      </trkpt>
      <trkpt lat="44.80961" lon="4.22557">
        <ele>1318.1</ele>
        <time>2002-03-28T09:59:11Z</time>
      </trkpt>
      <trkpt lat="44.80971" lon="4.2254">
        <ele>1320.03</ele>
        <time>2002-03-28T09:59:25Z</time>
      </trkpt>
      <trkpt lat="44.80978" lon="4.22525">
        <ele>1321.95</ele>
        <time>2002-03-28T09:59:37Z</time>
      </trkpt>
      <trkpt lat="44.8098" lon="4.2251">
        <ele>1324.35</ele>
        <time>2002-03-28T09:59:50Z</time>
      </trkpt>
      <trkpt lat="44.80986" lon="4.22502">
        <ele>1326.28</ele>
        <time>2002-03-28T10:00:02Z</time>
      </trkpt>
      <trkpt lat="44.80992" lon="4.22499">
        <ele>1326.28</ele>
        <time>2002-03-28T10:00:10Z</time>
      </trkpt>
      <trkpt lat="44.80994" lon="4.22498">
        <ele>1326.76</ele>
        <time>2002-03-28T10:00:12Z</time>
      </trkpt>
      <trkpt lat="44.81003" lon="4.22488">
        <ele>1328.2</ele>
        <time>2002-03-28T10:00:24Z</time>
      </trkpt>
      <trkpt lat="44.81009" lon="4.22482">
        <ele>1330.12</ele>
        <time>2002-03-28T10:00:34Z</time>
      </trkpt>
      <trkpt lat="44.81012" lon="4.22475">
        <ele>1332.52</ele>
        <time>2002-03-28T10:00:47Z</time>
      </trkpt>
      <trkpt lat="44.81016" lon="4.22462">
        <ele>1333.97</ele>
        <time>2002-03-28T10:00:58Z</time>
      </trkpt>
      <trkpt lat="44.81023" lon="4.22453">
        <ele>1335.89</ele>
        <time>2002-03-28T10:01:09Z</time>
      </trkpt>
      <trkpt lat="44.81028" lon="4.22444">
        <ele>1337.81</ele>
        <time>2002-03-28T10:01:22Z</time>
      </trkpt>
      <trkpt lat="44.81034" lon="4.22427">
        <ele>1339.73</ele>
        <time>2002-03-28T10:02:40Z</time>
      </trkpt>
      <trkpt lat="44.81038" lon="4.22415">
        <ele>1340.7</ele>
        <time>2002-03-28T10:02:52Z</time>
      </trkpt>
      <trkpt lat="44.81045" lon="4.22402">
        <ele>1341.66</ele>
        <time>2002-03-28T10:03:03Z</time>
      </trkpt>
      <trkpt lat="44.81053" lon="4.22396">
        <ele>1343.58</ele>
        <time>2002-03-28T10:03:13Z</time>
      </trkpt>
      <trkpt lat="44.81056" lon="4.2239">
        <ele>1343.1</ele>
        <time>2002-03-28T10:04:27Z</time>
      </trkpt>
      <trkpt lat="44.81062" lon="4.22377">
        <ele>1343.58</ele>
        <time>2002-03-28T10:04:39Z</time>
      </trkpt>
      <trkpt lat="44.81063" lon="4.22376">
        <ele>1341.66</ele>
        <time>2002-03-28T10:05:10Z</time>
      </trkpt>
      <trkpt lat="44.81064" lon="4.22373">
        <ele>1342.62</ele>
        <time>2002-03-28T10:06:24Z</time>
      </trkpt>
      <trkpt lat="44.81068" lon="4.22366">
        <ele>1344.06</ele>
        <time>2002-03-28T10:06:48Z</time>
      </trkpt>
      <trkpt lat="44.81074" lon="4.2236">
        <ele>1345.5</ele>
        <time>2002-03-28T10:07:00Z</time>
      </trkpt>
      <trkpt lat="44.81083" lon="4.22353">
        <ele>1346.46</ele>
        <time>2002-03-28T10:07:12Z</time>
      </trkpt>
      <trkpt lat="44.81088" lon="4.2235">
        <ele>1347.91</ele>
        <time>2002-03-28T10:07:22Z</time>
      </trkpt>
      <trkpt lat="44.81093" lon="4.22342">
        <ele>1350.31</ele>
        <time>2002-03-28T10:07:34Z</time>
      </trkpt>
      <trkpt lat="44.811" lon="4.22336">
        <ele>1351.75</ele>
        <time>2002-03-28T10:07:46Z</time>
      </trkpt>
      <trkpt lat="44.81104" lon="4.22334">
        <ele>1352.23</ele>
        <time>2002-03-28T10:07:55Z</time>
      </trkpt>
      <trkpt lat="44.81114" lon="4.22327">
        <ele>1354.15</ele>
        <time>2002-03-28T10:08:07Z</time>
      </trkpt>
      <trkpt lat="44.81123" lon="4.22326">
        <ele>1355.12</ele>
        <time>2002-03-28T10:08:17Z</time>
      </trkpt>
      <trkpt lat="44.81127" lon="4.22321">
        <ele>1356.56</ele>
        <time>2002-03-28T10:08:25Z</time>
      </trkpt>
      <trkpt lat="44.81131" lon="4.22316">
        <ele>1358</ele>
        <time>2002-03-28T10:08:39Z</time>
      </trkpt>
      <trkpt lat="44.81138" lon="4.22312">
        <ele>1359.44</ele>
        <time>2002-03-28T10:08:51Z</time>
      </trkpt>
      <trkpt lat="44.81142" lon="4.22311">
        <ele>1360.4</ele>
        <time>2002-03-28T10:08:57Z</time>
      </trkpt>
      <trkpt lat="44.81153" lon="4.22314">
        <ele>1361.36</ele>
        <time>2002-03-28T10:09:09Z</time>
      </trkpt>
      <trkpt lat="44.8116" lon="4.22314">
        <ele>1362.81</ele>
        <time>2002-03-28T10:09:20Z</time>
      </trkpt>
      <trkpt lat="44.81166" lon="4.22311">
        <ele>1363.77</ele>
        <time>2002-03-28T10:09:29Z</time>
      </trkpt>
      <trkpt lat="44.81172" lon="4.22312">
        <ele>1364.25</ele>
        <time>2002-03-28T10:09:36Z</time>
      </trkpt>
      <trkpt lat="44.8118" lon="4.22304">
        <ele>1365.69</ele>
        <time>2002-03-28T10:09:48Z</time>
      </trkpt>
      <trkpt lat="44.81186" lon="4.22304">
        <ele>1367.13</ele>
        <time>2002-03-28T10:09:58Z</time>
      </trkpt>
      <trkpt lat="44.8119" lon="4.22303">
        <ele>1369.05</ele>
        <time>2002-03-28T10:10:11Z</time>
      </trkpt>
      <trkpt lat="44.812" lon="4.22307">
        <ele>1370.98</ele>
        <time>2002-03-28T10:10:26Z</time>
      </trkpt>
      <trkpt lat="44.81212" lon="4.22302">
        <ele>1373.38</ele>
        <time>2002-03-28T10:10:48Z</time>
      </trkpt>
      <trkpt lat="44.81219" lon="4.22301">
        <ele>1375.3</ele>
        <time>2002-03-28T10:10:59Z</time>
      </trkpt>
      <trkpt lat="44.8123" lon="4.223">
        <ele>1376.75</ele>
        <time>2002-03-28T10:11:10Z</time>
      </trkpt>
      <trkpt lat="44.81239" lon="4.22301">
        <ele>1378.19</ele>
        <time>2002-03-28T10:11:23Z</time>
      </trkpt>
      <trkpt lat="44.81247" lon="4.223">
        <ele>1380.11</ele>
        <time>2002-03-28T10:11:36Z</time>
      </trkpt>
      <trkpt lat="44.81256" lon="4.22301">
        <ele>1381.55</ele>
        <time>2002-03-28T10:11:46Z</time>
      </trkpt>
      <trkpt lat="44.81266" lon="4.22301">
        <ele>1382.51</ele>
        <time>2002-03-28T10:11:58Z</time>
      </trkpt>
      <trkpt lat="44.81273" lon="4.22302">
        <ele>1384.44</ele>
        <time>2002-03-28T10:12:13Z</time>
      </trkpt>
      <trkpt lat="44.81277" lon="4.22303">
        <ele>1385.88</ele>
        <time>2002-03-28T10:12:25Z</time>
      </trkpt>
      <trkpt lat="44.81286" lon="4.22303">
        <ele>1387.32</ele>
        <time>2002-03-28T10:12:39Z</time>
      </trkpt>
      <trkpt lat="44.81292" lon="4.22302">
        <ele>1388.76</ele>
        <time>2002-03-28T10:12:51Z</time>
      </trkpt>
      <trkpt lat="44.81306" lon="4.22302">
        <ele>1389.72</ele>
        <time>2002-03-28T10:13:06Z</time>
      </trkpt>
      <trkpt lat="44.81315" lon="4.22306">
        <ele>1391.17</ele>
        <time>2002-03-28T10:13:39Z</time>
      </trkpt>
      <trkpt lat="44.81324" lon="4.22308">
        <ele>1392.61</ele>
        <time>2002-03-28T10:13:52Z</time>
      </trkpt>
      <trkpt lat="44.81334" lon="4.22316">
        <ele>1394.53</ele>
        <time>2002-03-28T10:14:08Z</time>
      </trkpt>
      <trkpt lat="44.81346" lon="4.22321">
        <ele>1395.49</ele>
        <time>2002-03-28T10:14:17Z</time>
      </trkpt>
      <trkpt lat="44.81363" lon="4.22331">
        <ele>1395.97</ele>
        <time>2002-03-28T10:14:29Z</time>
      </trkpt>
      <trkpt lat="44.8138" lon="4.22335">
        <ele>1397.41</ele>
        <time>2002-03-28T10:14:43Z</time>
      </trkpt>
      <trkpt lat="44.81389" lon="4.2234">
        <ele>1398.86</ele>
        <time>2002-03-28T10:14:57Z</time>
      </trkpt>
      <trkpt lat="44.81398" lon="4.22344">
        <ele>1399.82</ele>
        <time>2002-03-28T10:15:12Z</time>
      </trkpt>
      <trkpt lat="44.81418" lon="4.22348">
        <ele>1402.7</ele>
        <time>2002-03-28T10:15:31Z</time>
      </trkpt>
      <trkpt lat="44.81433" lon="4.22355">
        <ele>1403.66</ele>
        <time>2002-03-28T10:15:43Z</time>
      </trkpt>
      <trkpt lat="44.81441" lon="4.22355">
        <ele>1404.62</ele>
        <time>2002-03-28T10:15:54Z</time>
      </trkpt>
      <trkpt lat="44.81449" lon="4.22358">
        <ele>1405.58</ele>
        <time>2002-03-28T10:16:01Z</time>
      </trkpt>
      <trkpt lat="44.81456" lon="4.22361">
        <ele>1406.55</ele>
        <time>2002-03-28T10:16:12Z</time>
      </trkpt>
      <trkpt lat="44.81462" lon="4.22362">
        <ele>1407.03</ele>
        <time>2002-03-28T10:16:21Z</time>
      </trkpt>
      <trkpt lat="44.81467" lon="4.22364">
        <ele>1407.51</ele>
        <time>2002-03-28T10:16:25Z</time>
      </trkpt>
      <trkpt lat="44.81479" lon="4.22368">
        <ele>1407.99</ele>
        <time>2002-03-28T10:16:35Z</time>
      </trkpt>
      <trkpt lat="44.81493" lon="4.22369">
        <ele>1409.43</ele>
        <time>2002-03-28T10:16:48Z</time>
      </trkpt>
      <trkpt lat="44.81497" lon="4.22372">
        <ele>1410.87</ele>
        <time>2002-03-28T10:16:59Z</time>
      </trkpt>
      <trkpt lat="44.81503" lon="4.2237">
        <ele>1411.35</ele>
        <time>2002-03-28T10:20:54Z</time>
      </trkpt>
      <trkpt lat="44.81515" lon="4.22376">
        <ele>1410.87</ele>
        <time>2002-03-28T10:21:42Z</time>
      </trkpt>
      <trkpt lat="44.81526" lon="4.22382">
        <ele>1411.83</ele>
        <time>2002-03-28T10:21:53Z</time>
      </trkpt>
      <trkpt lat="44.81542" lon="4.22396">
        <ele>1410.87</ele>
        <time>2002-03-28T10:22:06Z</time>
      </trkpt>
      <trkpt lat="44.81543" lon="4.22397">
        <ele>1410.87</ele>
        <time>2002-03-28T10:22:07Z</time>
      </trkpt>
      <trkpt lat="44.81551" lon="4.22406">
        <ele>1411.83</ele>
        <time>2002-03-28T10:22:16Z</time>
      </trkpt>
      <trkpt lat="44.81552" lon="4.22407">
        <ele>1411.83</ele>
        <time>2002-03-28T10:22:17Z</time>
      </trkpt>
      <trkpt lat="44.81566" lon="4.22418">
        <ele>1413.28</ele>
        <time>2002-03-28T10:22:29Z</time>
      </trkpt>
      <trkpt lat="44.81573" lon="4.22423">
        <ele>1413.76</ele>
        <time>2002-03-28T10:22:37Z</time>
      </trkpt>
      <trkpt lat="44.81575" lon="4.22426">
        <ele>1414.24</ele>
        <time>2002-03-28T10:22:40Z</time>
      </trkpt>
      <trkpt lat="44.8159" lon="4.2244">
        <ele>1414.24</ele>
        <time>2002-03-28T10:22:52Z</time>
      </trkpt>
      <trkpt lat="44.81602" lon="4.22455">
        <ele>1414.72</ele>
        <time>2002-03-28T10:23:04Z</time>
      </trkpt>
      <trkpt lat="44.81607" lon="4.22463">
        <ele>1414.24</ele>
        <time>2002-03-28T10:23:09Z</time>
      </trkpt>
      <trkpt lat="44.81622" lon="4.22479">
        <ele>1414.24</ele>
        <time>2002-03-28T10:23:23Z</time>
      </trkpt>
      <trkpt lat="44.81627" lon="4.22488">
        <ele>1414.72</ele>
        <time>2002-03-28T10:23:31Z</time>
      </trkpt>
      <trkpt lat="44.81638" lon="4.22504">
        <ele>1414.72</ele>
        <time>2002-03-28T10:23:42Z</time>
      </trkpt>
      <trkpt lat="44.81653" lon="4.22525">
        <ele>1415.2</ele>
        <time>2002-03-28T10:23:55Z</time>
      </trkpt>
      <trkpt lat="44.81655" lon="4.22529">
        <ele>1414.72</ele>
        <time>2002-03-28T10:23:57Z</time>
      </trkpt>
      <trkpt lat="44.81664" lon="4.22536">
        <ele>1415.2</ele>
        <time>2002-03-28T10:24:04Z</time>
      </trkpt>
      <trkpt lat="44.81671" lon="4.22545">
        <ele>1415.2</ele>
        <time>2002-03-28T10:24:10Z</time>
      </trkpt>
      <trkpt lat="44.81675" lon="4.22547">
        <ele>1415.68</ele>
        <time>2002-03-28T10:24:13Z</time>
      </trkpt>
      <trkpt lat="44.81686" lon="4.22558">
        <ele>1417.12</ele>
        <time>2002-03-28T10:24:23Z</time>
      </trkpt>
      <trkpt lat="44.81695" lon="4.22566">
        <ele>1417.12</ele>
        <time>2002-03-28T10:24:31Z</time>
      </trkpt>
      <trkpt lat="44.81703" lon="4.2257">
        <ele>1417.12</ele>
        <time>2002-03-28T10:24:40Z</time>
      </trkpt>
      <trkpt lat="44.81715" lon="4.22578">
        <ele>1417.12</ele>
        <time>2002-03-28T10:24:50Z</time>
      </trkpt>
      <trkpt lat="44.81722" lon="4.22581">
        <ele>1417.12</ele>
        <time>2002-03-28T10:24:54Z</time>
      </trkpt>
      <trkpt lat="44.81725" lon="4.22583">
        <ele>1416.64</ele>
        <time>2002-03-28T10:24:56Z</time>
      </trkpt>
      <trkpt lat="44.81736" lon="4.2259">
        <ele>1417.12</ele>
        <time>2002-03-28T10:25:04Z</time>
      </trkpt>
      <trkpt lat="44.81752" lon="4.22595">
        <ele>1417.6</ele>
        <time>2002-03-28T10:25:17Z</time>
      </trkpt>
      <trkpt lat="44.81757" lon="4.22597">
        <ele>1418.08</ele>
        <time>2002-03-28T10:25:29Z</time>
      </trkpt>
      <trkpt lat="44.81766" lon="4.22602">
        <ele>1418.56</ele>
        <time>2002-03-28T10:25:39Z</time>
      </trkpt>
      <trkpt lat="44.81779" lon="4.22605">
        <ele>1420</ele>
        <time>2002-03-28T10:25:55Z</time>
      </trkpt>
      <trkpt lat="44.81792" lon="4.22608">
        <ele>1420</ele>
        <time>2002-03-28T10:26:04Z</time>
      </trkpt>
      <trkpt lat="44.81808" lon="4.22611">
        <ele>1420.97</ele>
        <time>2002-03-28T10:26:15Z</time>
      </trkpt>
      <trkpt lat="44.81823" lon="4.22617">
        <ele>1420.97</ele>
        <time>2002-03-28T10:26:26Z</time>
      </trkpt>
      <trkpt lat="44.81832" lon="4.22622">
        <ele>1421.93</ele>
        <time>2002-03-28T10:26:33Z</time>
      </trkpt>
      <trkpt lat="44.81846" lon="4.2263">
        <ele>1421.93</ele>
        <time>2002-03-28T10:26:43Z</time>
      </trkpt>
      <trkpt lat="44.81853" lon="4.22632">
        <ele>1421.93</ele>
        <time>2002-03-28T10:26:48Z</time>
      </trkpt>
      <trkpt lat="44.81864" lon="4.22639">
        <ele>1421.45</ele>
        <time>2002-03-28T10:26:58Z</time>
      </trkpt>
      <trkpt lat="44.8187" lon="4.22642">
        <ele>1422.41</ele>
        <time>2002-03-28T10:27:03Z</time>
      </trkpt>
      <trkpt lat="44.81873" lon="4.22644">
        <ele>1422.41</ele>
        <time>2002-03-28T10:27:05Z</time>
      </trkpt>
      <trkpt lat="44.81889" lon="4.22651">
        <ele>1421.93</ele>
        <time>2002-03-28T10:27:16Z</time>
      </trkpt>
      <trkpt lat="44.81907" lon="4.22658">
        <ele>1421.45</ele>
        <time>2002-03-28T10:27:29Z</time>
      </trkpt>
      <trkpt lat="44.81921" lon="4.22666">
        <ele>1421.93</ele>
        <time>2002-03-28T10:27:41Z</time>
      </trkpt>
      <trkpt lat="44.81937" lon="4.22675">
        <ele>1421.45</ele>
        <time>2002-03-28T10:27:53Z</time>
      </trkpt>
      <trkpt lat="44.81955" lon="4.22681">
        <ele>1420</ele>
        <time>2002-03-28T10:28:07Z</time>
      </trkpt>
      <trkpt lat="44.81961" lon="4.22683">
        <ele>1420</ele>
        <time>2002-03-28T10:28:12Z</time>
      </trkpt>
      <trkpt lat="44.81969" lon="4.22686">
        <ele>1420.97</ele>
        <time>2002-03-28T10:28:20Z</time>
      </trkpt>
      <trkpt lat="44.81987" lon="4.2269">
        <ele>1420.97</ele>
        <time>2002-03-28T10:28:35Z</time>
      </trkpt>
      <trkpt lat="44.81992" lon="4.22691">
        <ele>1421.45</ele>
        <time>2002-03-28T10:28:52Z</time>
      </trkpt>
      <trkpt lat="44.81993" lon="4.22691">
        <ele>1421.93</ele>
        <time>2002-03-28T10:28:53Z</time>
      </trkpt>
      <trkpt lat="44.82" lon="4.22692">
        <ele>1421.45</ele>
        <time>2002-03-28T10:28:59Z</time>
      </trkpt>
      <trkpt lat="44.82005" lon="4.22694">
        <ele>1420.97</ele>
        <time>2002-03-28T10:29:03Z</time>
      </trkpt>
      <trkpt lat="44.82011" lon="4.22695">
        <ele>1420.97</ele>
        <time>2002-03-28T10:29:07Z</time>
      </trkpt>
      <trkpt lat="44.82021" lon="4.22697">
        <ele>1420.49</ele>
        <time>2002-03-28T10:29:14Z</time>
      </trkpt>
      <trkpt lat="44.82026" lon="4.22698">
        <ele>1420</ele>
        <time>2002-03-28T10:29:18Z</time>
      </trkpt>
      <trkpt lat="44.82029" lon="4.227">
        <ele>1419.52</ele>
        <time>2002-03-28T10:29:21Z</time>
      </trkpt>
      <trkpt lat="44.82043" lon="4.22705">
        <ele>1420</ele>
        <time>2002-03-28T10:29:32Z</time>
      </trkpt>
      <trkpt lat="44.82046" lon="4.22705">
        <ele>1419.52</ele>
        <time>2002-03-28T10:29:34Z</time>
      </trkpt>
      <trkpt lat="44.82061" lon="4.22711">
        <ele>1420</ele>
        <time>2002-03-28T10:29:46Z</time>
      </trkpt>
      <trkpt lat="44.82075" lon="4.22713">
        <ele>1419.52</ele>
        <time>2002-03-28T10:29:57Z</time>
      </trkpt>
      <trkpt lat="44.82083" lon="4.22713">
        <ele>1419.52</ele>
        <time>2002-03-28T10:30:05Z</time>
      </trkpt>
      <trkpt lat="44.82101" lon="4.2272">
        <ele>1419.52</ele>
        <time>2002-03-28T10:30:19Z</time>
      </trkpt>
      <trkpt lat="44.82113" lon="4.22723">
        <ele>1418.08</ele>
        <time>2002-03-28T10:30:30Z</time>
      </trkpt>
      <trkpt lat="44.82113" lon="4.22724">
        <ele>1418.08</ele>
        <time>2002-03-28T10:30:31Z</time>
      </trkpt>
      <trkpt lat="44.82117" lon="4.22725">
        <ele>1417.12</ele>
        <time>2002-03-28T10:30:35Z</time>
      </trkpt>
      <trkpt lat="44.82124" lon="4.2273">
        <ele>1416.64</ele>
        <time>2002-03-28T10:30:41Z</time>
      </trkpt>
      <trkpt lat="44.82126" lon="4.2273">
        <ele>1416.16</ele>
        <time>2002-03-28T10:30:43Z</time>
      </trkpt>
      <trkpt lat="44.82145" lon="4.22737">
        <ele>1416.64</ele>
        <time>2002-03-28T10:30:57Z</time>
      </trkpt>
      <trkpt lat="44.82153" lon="4.22739">
        <ele>1416.64</ele>
        <time>2002-03-28T10:31:03Z</time>
      </trkpt>
      <trkpt lat="44.82166" lon="4.22745">
        <ele>1415.68</ele>
        <time>2002-03-28T10:31:14Z</time>
      </trkpt>
      <trkpt lat="44.82172" lon="4.22747">
        <ele>1415.2</ele>
        <time>2002-03-28T10:31:19Z</time>
      </trkpt>
      <trkpt lat="44.82189" lon="4.22755">
        <ele>1414.72</ele>
        <time>2002-03-28T10:31:32Z</time>
      </trkpt>
      <trkpt lat="44.82196" lon="4.22756">
        <ele>1414.24</ele>
        <time>2002-03-28T10:31:38Z</time>
      </trkpt>
      <trkpt lat="44.82213" lon="4.22764">
        <ele>1414.24</ele>
        <time>2002-03-28T10:31:50Z</time>
      </trkpt>
      <trkpt lat="44.82227" lon="4.2277">
        <ele>1413.28</ele>
        <time>2002-03-28T10:32:01Z</time>
      </trkpt>
      <trkpt lat="44.82238" lon="4.22776">
        <ele>1413.28</ele>
        <time>2002-03-28T10:32:10Z</time>
      </trkpt>
      <trkpt lat="44.82256" lon="4.22784">
        <ele>1412.79</ele>
        <time>2002-03-28T10:32:24Z</time>
      </trkpt>
      <trkpt lat="44.82272" lon="4.22792">
        <ele>1411.83</ele>
        <time>2002-03-28T10:32:35Z</time>
      </trkpt>
      <trkpt lat="44.8228" lon="4.22797">
        <ele>1412.31</ele>
        <time>2002-03-28T10:32:41Z</time>
      </trkpt>
      <trkpt lat="44.82287" lon="4.22797">
        <ele>1411.83</ele>
        <time>2002-03-28T10:32:46Z</time>
      </trkpt>
      <trkpt lat="44.82297" lon="4.22808">
        <ele>1411.83</ele>
        <time>2002-03-28T10:32:55Z</time>
      </trkpt>
      <trkpt lat="44.82302" lon="4.22809">
        <ele>1411.35</ele>
        <time>2002-03-28T10:32:59Z</time>
      </trkpt>
      <trkpt lat="44.82316" lon="4.22818">
        <ele>1411.83</ele>
        <time>2002-03-28T10:33:10Z</time>
      </trkpt>
      <trkpt lat="44.82332" lon="4.22827">
        <ele>1412.31</ele>
        <time>2002-03-28T10:33:23Z</time>
      </trkpt>
      <trkpt lat="44.82345" lon="4.22831">
        <ele>1412.79</ele>
        <time>2002-03-28T10:33:34Z</time>
      </trkpt>
      <trkpt lat="44.82362" lon="4.22839">
        <ele>1412.79</ele>
        <time>2002-03-28T10:33:48Z</time>
      </trkpt>
      <trkpt lat="44.82376" lon="4.22852">
        <ele>1413.28</ele>
        <time>2002-03-28T10:34:01Z</time>
      </trkpt>
      <trkpt lat="44.8239" lon="4.22861">
        <ele>1414.24</ele>
        <time>2002-03-28T10:34:14Z</time>
      </trkpt>
      <trkpt lat="44.82404" lon="4.22868">
        <ele>1414.24</ele>
        <time>2002-03-28T10:34:25Z</time>
      </trkpt>
      <trkpt lat="44.82409" lon="4.22871">
        <ele>1414.24</ele>
        <time>2002-03-28T10:34:30Z</time>
      </trkpt>
      <trkpt lat="44.82414" lon="4.22877">
        <ele>1414.24</ele>
        <time>2002-03-28T10:34:35Z</time>
      </trkpt>
      <trkpt lat="44.82415" lon="4.22885">
        <ele>1413.76</ele>
        <time>2002-03-28T10:34:39Z</time>
      </trkpt>
      <trkpt lat="44.82417" lon="4.22901">
        <ele>1413.28</ele>
        <time>2002-03-28T10:34:48Z</time>
      </trkpt>
      <trkpt lat="44.82416" lon="4.22906">
        <ele>1412.79</ele>
        <time>2002-03-28T10:34:51Z</time>
      </trkpt>
      <trkpt lat="44.82418" lon="4.22914">
        <ele>1412.79</ele>
        <time>2002-03-28T10:34:56Z</time>
      </trkpt>
      <trkpt lat="44.82428" lon="4.22927">
        <ele>1412.31</ele>
        <time>2002-03-28T10:35:06Z</time>
      </trkpt>
      <trkpt lat="44.82433" lon="4.22937">
        <ele>1412.31</ele>
        <time>2002-03-28T10:35:15Z</time>
      </trkpt>
      <trkpt lat="44.82433" lon="4.22944">
        <ele>1412.31</ele>
        <time>2002-03-28T10:35:29Z</time>
      </trkpt>
      <trkpt lat="44.82432" lon="4.22944">
        <ele>1412.79</ele>
        <time>2002-03-28T10:36:43Z</time>
      </trkpt>
      <trkpt lat="44.82435" lon="4.22947">
        <ele>1412.31</ele>
        <time>2002-03-28T10:37:35Z</time>
      </trkpt>
      <trkpt lat="44.82448" lon="4.22946">
        <ele>1414.24</ele>
        <time>2002-03-28T10:37:47Z</time>
      </trkpt>
      <trkpt lat="44.82458" lon="4.22942">
        <ele>1414.72</ele>
        <time>2002-03-28T10:37:57Z</time>
      </trkpt>
      <trkpt lat="44.82478" lon="4.22937">
        <ele>1415.2</ele>
        <time>2002-03-28T10:38:13Z</time>
      </trkpt>
      <trkpt lat="44.82493" lon="4.22933">
        <ele>1416.16</ele>
        <time>2002-03-28T10:38:26Z</time>
      </trkpt>
      <trkpt lat="44.8251" lon="4.22928">
        <ele>1417.6</ele>
        <time>2002-03-28T10:38:40Z</time>
      </trkpt>
      <trkpt lat="44.82521" lon="4.22924">
        <ele>1417.6</ele>
        <time>2002-03-28T10:38:49Z</time>
      </trkpt>
      <trkpt lat="44.82541" lon="4.2292">
        <ele>1419.04</ele>
        <time>2002-03-28T10:39:03Z</time>
      </trkpt>
      <trkpt lat="44.82561" lon="4.22917">
        <ele>1420</ele>
        <time>2002-03-28T10:39:18Z</time>
      </trkpt>
      <trkpt lat="44.82576" lon="4.22912">
        <ele>1420.49</ele>
        <time>2002-03-28T10:39:30Z</time>
      </trkpt>
      <trkpt lat="44.82589" lon="4.22908">
        <ele>1421.93</ele>
        <time>2002-03-28T10:39:40Z</time>
      </trkpt>
      <trkpt lat="44.82595" lon="4.22907">
        <ele>1422.41</ele>
        <time>2002-03-28T10:39:45Z</time>
      </trkpt>
      <trkpt lat="44.82609" lon="4.22902">
        <ele>1422.89</ele>
        <time>2002-03-28T10:39:56Z</time>
      </trkpt>
      <trkpt lat="44.82627" lon="4.22897">
        <ele>1424.33</ele>
        <time>2002-03-28T10:40:10Z</time>
      </trkpt>
      <trkpt lat="44.82644" lon="4.22891">
        <ele>1425.29</ele>
        <time>2002-03-28T10:40:24Z</time>
      </trkpt>
      <trkpt lat="44.8266" lon="4.22886">
        <ele>1426.25</ele>
        <time>2002-03-28T10:40:37Z</time>
      </trkpt>
      <trkpt lat="44.82675" lon="4.22882">
        <ele>1427.21</ele>
        <time>2002-03-28T10:40:50Z</time>
      </trkpt>
      <trkpt lat="44.82678" lon="4.22881">
        <ele>1427.21</ele>
        <time>2002-03-28T10:40:52Z</time>
      </trkpt>
      <trkpt lat="44.82695" lon="4.22876">
        <ele>1428.18</ele>
        <time>2002-03-28T10:41:05Z</time>
      </trkpt>
      <trkpt lat="44.82711" lon="4.22872">
        <ele>1429.62</ele>
        <time>2002-03-28T10:41:16Z</time>
      </trkpt>
      <trkpt lat="44.82726" lon="4.22866">
        <ele>1429.62</ele>
        <time>2002-03-28T10:41:28Z</time>
      </trkpt>
      <trkpt lat="44.82743" lon="4.22859">
        <ele>1430.58</ele>
        <time>2002-03-28T10:41:41Z</time>
      </trkpt>
      <trkpt lat="44.82757" lon="4.22851">
        <ele>1432.02</ele>
        <time>2002-03-28T10:41:52Z</time>
      </trkpt>
      <trkpt lat="44.82774" lon="4.22842">
        <ele>1432.02</ele>
        <time>2002-03-28T10:42:05Z</time>
      </trkpt>
      <trkpt lat="44.82792" lon="4.22831">
        <ele>1433.46</ele>
        <time>2002-03-28T10:42:20Z</time>
      </trkpt>
      <trkpt lat="44.82806" lon="4.22821">
        <ele>1433.46</ele>
        <time>2002-03-28T10:42:32Z</time>
      </trkpt>
      <trkpt lat="44.82821" lon="4.22807">
        <ele>1434.91</ele>
        <time>2002-03-28T10:42:47Z</time>
      </trkpt>
      <trkpt lat="44.82838" lon="4.22796">
        <ele>1435.87</ele>
        <time>2002-03-28T10:43:00Z</time>
      </trkpt>
      <trkpt lat="44.82858" lon="4.22781">
        <ele>1435.87</ele>
        <time>2002-03-28T10:43:17Z</time>
      </trkpt>
      <trkpt lat="44.82873" lon="4.22769">
        <ele>1436.83</ele>
        <time>2002-03-28T10:43:30Z</time>
      </trkpt>
      <trkpt lat="44.8289" lon="4.22755">
        <ele>1438.27</ele>
        <time>2002-03-28T10:43:45Z</time>
      </trkpt>
      <trkpt lat="44.82909" lon="4.22741">
        <ele>1438.27</ele>
        <time>2002-03-28T10:44:01Z</time>
      </trkpt>
      <trkpt lat="44.82925" lon="4.2273">
        <ele>1438.75</ele>
        <time>2002-03-28T10:44:14Z</time>
      </trkpt>
      <trkpt lat="44.82941" lon="4.22719">
        <ele>1439.71</ele>
        <time>2002-03-28T10:44:28Z</time>
      </trkpt>
      <trkpt lat="44.82958" lon="4.22706">
        <ele>1440.67</ele>
        <time>2002-03-28T10:44:43Z</time>
      </trkpt>
      <trkpt lat="44.8297" lon="4.22696">
        <ele>1441.63</ele>
        <time>2002-03-28T10:44:54Z</time>
      </trkpt>
      <trkpt lat="44.82988" lon="4.22682">
        <ele>1442.11</ele>
        <time>2002-03-28T10:45:09Z</time>
      </trkpt>
      <trkpt lat="44.82996" lon="4.22674">
        <ele>1442.11</ele>
        <time>2002-03-28T10:45:16Z</time>
      </trkpt>
      <trkpt lat="44.83004" lon="4.22669">
        <ele>1442.6</ele>
        <time>2002-03-28T10:45:22Z</time>
      </trkpt>
      <trkpt lat="44.83021" lon="4.22655">
        <ele>1442.6</ele>
        <time>2002-03-28T10:45:36Z</time>
      </trkpt>
      <trkpt lat="44.83038" lon="4.22643">
        <ele>1442.11</ele>
        <time>2002-03-28T10:45:49Z</time>
      </trkpt>
      <trkpt lat="44.83056" lon="4.22629">
        <ele>1442.11</ele>
        <time>2002-03-28T10:46:04Z</time>
      </trkpt>
      <trkpt lat="44.8306" lon="4.22626">
        <ele>1442.6</ele>
        <time>2002-03-28T10:46:07Z</time>
      </trkpt>
      <trkpt lat="44.83068" lon="4.2262">
        <ele>1442.11</ele>
        <time>2002-03-28T10:46:14Z</time>
      </trkpt>
      <trkpt lat="44.8309" lon="4.22606">
        <ele>1441.63</ele>
        <time>2002-03-28T10:46:31Z</time>
      </trkpt>
      <trkpt lat="44.83109" lon="4.22598">
        <ele>1441.63</ele>
        <time>2002-03-28T10:46:45Z</time>
      </trkpt>
      <trkpt lat="44.83127" lon="4.22592">
        <ele>1440.19</ele>
        <time>2002-03-28T10:46:59Z</time>
      </trkpt>
      <trkpt lat="44.83147" lon="4.22585">
        <ele>1439.23</ele>
        <time>2002-03-28T10:47:13Z</time>
      </trkpt>
      <trkpt lat="44.8317" lon="4.22576">
        <ele>1438.27</ele>
        <time>2002-03-28T10:47:31Z</time>
      </trkpt>
      <trkpt lat="44.83182" lon="4.22572">
        <ele>1438.27</ele>
        <time>2002-03-28T10:47:40Z</time>
      </trkpt>
      <trkpt lat="44.83184" lon="4.22571">
        <ele>1437.79</ele>
        <time>2002-03-28T10:47:42Z</time>
      </trkpt>
      <trkpt lat="44.83199" lon="4.22567">
        <ele>1436.35</ele>
        <time>2002-03-28T10:47:53Z</time>
      </trkpt>
      <trkpt lat="44.8321" lon="4.22564">
        <ele>1436.83</ele>
        <time>2002-03-28T10:48:01Z</time>
      </trkpt>
      <trkpt lat="44.83222" lon="4.22559">
        <ele>1435.87</ele>
        <time>2002-03-28T10:48:13Z</time>
      </trkpt>
      <trkpt lat="44.83235" lon="4.22554">
        <ele>1433.46</ele>
        <time>2002-03-28T10:48:26Z</time>
      </trkpt>
      <trkpt lat="44.83249" lon="4.22552">
        <ele>1432.98</ele>
        <time>2002-03-28T10:48:39Z</time>
      </trkpt>
      <trkpt lat="44.83263" lon="4.22549">
        <ele>1432.02</ele>
        <time>2002-03-28T10:48:49Z</time>
      </trkpt>
      <trkpt lat="44.83277" lon="4.22548">
        <ele>1431.06</ele>
        <time>2002-03-28T10:48:59Z</time>
      </trkpt>
      <trkpt lat="44.8329" lon="4.22544">
        <ele>1430.1</ele>
        <time>2002-03-28T10:49:08Z</time>
      </trkpt>
      <trkpt lat="44.83302" lon="4.22543">
        <ele>1429.14</ele>
        <time>2002-03-28T10:49:18Z</time>
      </trkpt>
      <trkpt lat="44.83315" lon="4.22539">
        <ele>1427.21</ele>
        <time>2002-03-28T10:49:30Z</time>
      </trkpt>
      <trkpt lat="44.83324" lon="4.22539">
        <ele>1426.25</ele>
        <time>2002-03-28T10:49:39Z</time>
      </trkpt>
      <trkpt lat="44.83326" lon="4.2254">
        <ele>1426.25</ele>
        <time>2002-03-28T10:49:42Z</time>
      </trkpt>
      <trkpt lat="44.8335" lon="4.22543">
        <ele>1424.81</ele>
        <time>2002-03-28T10:49:55Z</time>
      </trkpt>
      <trkpt lat="44.83354" lon="4.22544">
        <ele>1424.33</ele>
        <time>2002-03-28T10:49:57Z</time>
      </trkpt>
      <trkpt lat="44.83357" lon="4.22543">
        <ele>1424.33</ele>
        <time>2002-03-28T10:49:59Z</time>
      </trkpt>
      <trkpt lat="44.83366" lon="4.22547">
        <ele>1424.33</ele>
        <time>2002-03-28T10:50:04Z</time>
      </trkpt>
      <trkpt lat="44.83381" lon="4.22551">
        <ele>1422.89</ele>
        <time>2002-03-28T10:50:13Z</time>
      </trkpt>
      <trkpt lat="44.834" lon="4.22562">
        <ele>1421.93</ele>
        <time>2002-03-28T10:50:26Z</time>
      </trkpt>
      <trkpt lat="44.83418" lon="4.22573">
        <ele>1420.49</ele>
        <time>2002-03-28T10:50:38Z</time>
      </trkpt>
      <trkpt lat="44.83424" lon="4.22582">
        <ele>1420.49</ele>
        <time>2002-03-28T10:50:44Z</time>
      </trkpt>
      <trkpt lat="44.83439" lon="4.22601">
        <ele>1419.04</ele>
        <time>2002-03-28T10:50:57Z</time>
      </trkpt>
      <trkpt lat="44.8344" lon="4.22602">
        <ele>1418.56</ele>
        <time>2002-03-28T10:50:58Z</time>
      </trkpt>
      <trkpt lat="44.83447" lon="4.22605">
        <ele>1418.08</ele>
        <time>2002-03-28T10:51:03Z</time>
      </trkpt>
      <trkpt lat="44.8346" lon="4.22619">
        <ele>1417.12</ele>
        <time>2002-03-28T10:51:14Z</time>
      </trkpt>
      <trkpt lat="44.83463" lon="4.22622">
        <ele>1417.12</ele>
        <time>2002-03-28T10:51:17Z</time>
      </trkpt>
      <trkpt lat="44.83468" lon="4.22625">
        <ele>1416.64</ele>
        <time>2002-03-28T10:51:21Z</time>
      </trkpt>
      <trkpt lat="44.83489" lon="4.22633">
        <ele>1415.2</ele>
        <time>2002-03-28T10:51:35Z</time>
      </trkpt>
      <trkpt lat="44.8351" lon="4.22638">
        <ele>1413.76</ele>
        <time>2002-03-28T10:51:49Z</time>
      </trkpt>
      <trkpt lat="44.83531" lon="4.2264">
        <ele>1412.79</ele>
        <time>2002-03-28T10:52:06Z</time>
      </trkpt>
      <trkpt lat="44.8353" lon="4.2264">
        <ele>1412.31</ele>
        <time>2002-03-28T10:52:29Z</time>
      </trkpt>
      <trkpt lat="44.8353" lon="4.22641">
        <ele>1412.79</ele>
        <time>2002-03-28T10:52:45Z</time>
      </trkpt>
      <trkpt lat="44.83551" lon="4.22646">
        <ele>1412.31</ele>
        <time>2002-03-28T10:53:01Z</time>
      </trkpt>
      <trkpt lat="44.83563" lon="4.22647">
        <ele>1410.39</ele>
        <time>2002-03-28T10:53:09Z</time>
      </trkpt>
      <trkpt lat="44.83581" lon="4.22651">
        <ele>1410.39</ele>
        <time>2002-03-28T10:53:24Z</time>
      </trkpt>
      <trkpt lat="44.83595" lon="4.22652">
        <ele>1409.43</ele>
        <time>2002-03-28T10:53:48Z</time>
      </trkpt>
      <trkpt lat="44.83616" lon="4.22654">
        <ele>1408.47</ele>
        <time>2002-03-28T10:54:03Z</time>
      </trkpt>
      <trkpt lat="44.83635" lon="4.22656">
        <ele>1407.99</ele>
        <time>2002-03-28T10:54:17Z</time>
      </trkpt>
      <trkpt lat="44.83658" lon="4.2266">
        <ele>1407.03</ele>
        <time>2002-03-28T10:54:32Z</time>
      </trkpt>
      <trkpt lat="44.83678" lon="4.22665">
        <ele>1405.58</ele>
        <time>2002-03-28T10:54:47Z</time>
      </trkpt>
      <trkpt lat="44.83697" lon="4.22667">
        <ele>1405.58</ele>
        <time>2002-03-28T10:55:00Z</time>
      </trkpt>
      <trkpt lat="44.83715" lon="4.22669">
        <ele>1405.1</ele>
        <time>2002-03-28T10:55:13Z</time>
      </trkpt>
      <trkpt lat="44.8372" lon="4.2267">
        <ele>1405.1</ele>
        <time>2002-03-28T10:55:17Z</time>
      </trkpt>
      <trkpt lat="44.83746" lon="4.22673">
        <ele>1404.62</ele>
        <time>2002-03-28T10:55:36Z</time>
      </trkpt>
      <trkpt lat="44.83768" lon="4.22677">
        <ele>1404.62</ele>
        <time>2002-03-28T10:55:51Z</time>
      </trkpt>
      <trkpt lat="44.83771" lon="4.22677">
        <ele>1404.14</ele>
        <time>2002-03-28T10:55:53Z</time>
      </trkpt>
      <trkpt lat="44.83777" lon="4.22679">
        <ele>1404.14</ele>
        <time>2002-03-28T10:55:57Z</time>
      </trkpt>
      <trkpt lat="44.8379" lon="4.2268">
        <ele>1404.62</ele>
        <time>2002-03-28T10:56:06Z</time>
      </trkpt>
      <trkpt lat="44.83813" lon="4.22683">
        <ele>1404.14</ele>
        <time>2002-03-28T10:56:23Z</time>
      </trkpt>
      <trkpt lat="44.83827" lon="4.22682">
        <ele>1405.1</ele>
        <time>2002-03-28T10:56:38Z</time>
      </trkpt>
      <trkpt lat="44.83839" lon="4.22682">
        <ele>1405.1</ele>
        <time>2002-03-28T10:56:49Z</time>
      </trkpt>
      <trkpt lat="44.83854" lon="4.22681">
        <ele>1405.58</ele>
        <time>2002-03-28T10:57:01Z</time>
      </trkpt>
      <trkpt lat="44.83861" lon="4.22681">
        <ele>1406.55</ele>
        <time>2002-03-28T10:57:07Z</time>
      </trkpt>
      <trkpt lat="44.83878" lon="4.22679">
        <ele>1406.55</ele>
        <time>2002-03-28T10:57:20Z</time>
      </trkpt>
      <trkpt lat="44.83895" lon="4.22674">
        <ele>1407.51</ele>
        <time>2002-03-28T10:57:33Z</time>
      </trkpt>
      <trkpt lat="44.83916" lon="4.22669">
        <ele>1407.99</ele>
        <time>2002-03-28T10:57:48Z</time>
      </trkpt>
      <trkpt lat="44.83935" lon="4.22666">
        <ele>1408.95</ele>
        <time>2002-03-28T10:58:01Z</time>
      </trkpt>
      <trkpt lat="44.83945" lon="4.22663">
        <ele>1409.43</ele>
        <time>2002-03-28T10:58:09Z</time>
      </trkpt>
      <trkpt lat="44.83953" lon="4.22657">
        <ele>1408.95</ele>
        <time>2002-03-28T10:58:16Z</time>
      </trkpt>
      <trkpt lat="44.83955" lon="4.22653">
        <ele>1408.95</ele>
        <time>2002-03-28T10:58:19Z</time>
      </trkpt>
      <trkpt lat="44.83958" lon="4.2265">
        <ele>1409.43</ele>
        <time>2002-03-28T10:58:22Z</time>
      </trkpt>
      <trkpt lat="44.83959" lon="4.22648">
        <ele>1409.43</ele>
        <time>2002-03-28T10:58:24Z</time>
      </trkpt>
      <trkpt lat="44.83964" lon="4.22642">
        <ele>1410.39</ele>
        <time>2002-03-28T10:58:29Z</time>
      </trkpt>
      <trkpt lat="44.83971" lon="4.22631">
        <ele>1410.39</ele>
        <time>2002-03-28T10:58:37Z</time>
      </trkpt>
      <trkpt lat="44.83972" lon="4.22628">
        <ele>1410.39</ele>
        <time>2002-03-28T10:58:39Z</time>
      </trkpt>
      <trkpt lat="44.83975" lon="4.22623">
        <ele>1410.87</ele>
        <time>2002-03-28T10:58:43Z</time>
      </trkpt>
      <trkpt lat="44.83978" lon="4.2262">
        <ele>1410.39</ele>
        <time>2002-03-28T10:58:45Z</time>
      </trkpt>
      <trkpt lat="44.83983" lon="4.22609">
        <ele>1410.39</ele>
        <time>2002-03-28T10:58:52Z</time>
      </trkpt>
      <trkpt lat="44.83986" lon="4.22605">
        <ele>1410.87</ele>
        <time>2002-03-28T10:58:55Z</time>
      </trkpt>
      <trkpt lat="44.83989" lon="4.22597">
        <ele>1410.87</ele>
        <time>2002-03-28T10:59:00Z</time>
      </trkpt>
      <trkpt lat="44.83994" lon="4.22588">
        <ele>1411.83</ele>
        <time>2002-03-28T10:59:06Z</time>
      </trkpt>
      <trkpt lat="44.83997" lon="4.2258">
        <ele>1412.31</ele>
        <time>2002-03-28T10:59:12Z</time>
      </trkpt>
      <trkpt lat="44.84004" lon="4.22567">
        <ele>1412.79</ele>
        <time>2002-03-28T10:59:21Z</time>
      </trkpt>
      <trkpt lat="44.84005" lon="4.22563">
        <ele>1412.79</ele>
        <time>2002-03-28T10:59:23Z</time>
      </trkpt>
      <trkpt lat="44.84009" lon="4.22557">
        <ele>1412.79</ele>
        <time>2002-03-28T10:59:28Z</time>
      </trkpt>
      <trkpt lat="44.84019" lon="4.22536">
        <ele>1413.76</ele>
        <time>2002-03-28T10:59:42Z</time>
      </trkpt>
      <trkpt lat="44.84021" lon="4.22531">
        <ele>1413.28</ele>
        <time>2002-03-28T10:59:45Z</time>
      </trkpt>
      <trkpt lat="44.84027" lon="4.22521">
        <ele>1413.28</ele>
        <time>2002-03-28T10:59:52Z</time>
      </trkpt>
      <trkpt lat="44.84031" lon="4.22513">
        <ele>1413.76</ele>
        <time>2002-03-28T10:59:57Z</time>
      </trkpt>
      <trkpt lat="44.84042" lon="4.22493">
        <ele>1412.79</ele>
        <time>2002-03-28T11:00:11Z</time>
      </trkpt>
      <trkpt lat="44.84048" lon="4.22482">
        <ele>1413.28</ele>
        <time>2002-03-28T11:00:18Z</time>
      </trkpt>
      <trkpt lat="44.84052" lon="4.22475">
        <ele>1413.76</ele>
        <time>2002-03-28T11:00:23Z</time>
      </trkpt>
      <trkpt lat="44.84054" lon="4.22469">
        <ele>1412.79</ele>
        <time>2002-03-28T11:00:27Z</time>
      </trkpt>
      <trkpt lat="44.84066" lon="4.22446">
        <ele>1412.31</ele>
        <time>2002-03-28T11:00:42Z</time>
      </trkpt>
      <trkpt lat="44.84067" lon="4.22443">
        <ele>1412.31</ele>
        <time>2002-03-28T11:00:44Z</time>
      </trkpt>
      <trkpt lat="44.84074" lon="4.22415">
        <ele>1411.83</ele>
        <time>2002-03-28T11:00:59Z</time>
      </trkpt>
      <trkpt lat="44.84087" lon="4.22394">
        <ele>1411.35</ele>
        <time>2002-03-28T11:01:14Z</time>
      </trkpt>
      <trkpt lat="44.84093" lon="4.22385">
        <ele>1411.35</ele>
        <time>2002-03-28T11:01:21Z</time>
      </trkpt>
      <trkpt lat="44.84097" lon="4.22374">
        <ele>1411.83</ele>
        <time>2002-03-28T11:01:28Z</time>
      </trkpt>
      <trkpt lat="44.84101" lon="4.22358">
        <ele>1411.83</ele>
        <time>2002-03-28T11:01:37Z</time>
      </trkpt>
      <trkpt lat="44.84105" lon="4.22334">
        <ele>1411.83</ele>
        <time>2002-03-28T11:01:50Z</time>
      </trkpt>
      <trkpt lat="44.84107" lon="4.22328">
        <ele>1410.87</ele>
        <time>2002-03-28T11:01:54Z</time>
      </trkpt>
      <trkpt lat="44.84111" lon="4.22307">
        <ele>1411.83</ele>
        <time>2002-03-28T11:02:07Z</time>
      </trkpt>
      <trkpt lat="44.84113" lon="4.22291">
        <ele>1411.35</ele>
        <time>2002-03-28T11:02:34Z</time>
      </trkpt>
      <trkpt lat="44.84117" lon="4.22268">
        <ele>1410.39</ele>
        <time>2002-03-28T11:02:48Z</time>
      </trkpt>
      <trkpt lat="44.84123" lon="4.22242">
        <ele>1410.87</ele>
        <time>2002-03-28T11:03:03Z</time>
      </trkpt>
      <trkpt lat="44.84127" lon="4.22218">
        <ele>1411.83</ele>
        <time>2002-03-28T11:03:16Z</time>
      </trkpt>
      <trkpt lat="44.84128" lon="4.22209">
        <ele>1411.83</ele>
        <time>2002-03-28T11:03:21Z</time>
      </trkpt>
      <trkpt lat="44.84131" lon="4.22195">
        <ele>1411.83</ele>
        <time>2002-03-28T11:03:29Z</time>
      </trkpt>
      <trkpt lat="44.84136" lon="4.22169">
        <ele>1411.83</ele>
        <time>2002-03-28T11:03:43Z</time>
      </trkpt>
      <trkpt lat="44.8414" lon="4.22144">
        <ele>1412.31</ele>
        <time>2002-03-28T11:03:57Z</time>
      </trkpt>
      <trkpt lat="44.84146" lon="4.22119">
        <ele>1411.83</ele>
        <time>2002-03-28T11:04:12Z</time>
      </trkpt>
      <trkpt lat="44.84148" lon="4.22106">
        <ele>1412.31</ele>
        <time>2002-03-28T11:04:19Z</time>
      </trkpt>
      <trkpt lat="44.8415" lon="4.22099">
        <ele>1411.83</ele>
        <time>2002-03-28T11:04:23Z</time>
      </trkpt>
      <trkpt lat="44.84155" lon="4.22077">
        <ele>1411.83</ele>
        <time>2002-03-28T11:04:36Z</time>
      </trkpt>
      <trkpt lat="44.8416" lon="4.22055">
        <ele>1411.83</ele>
        <time>2002-03-28T11:04:49Z</time>
      </trkpt>
      <trkpt lat="44.84162" lon="4.22045">
        <ele>1411.83</ele>
        <time>2002-03-28T11:04:55Z</time>
      </trkpt>
      <trkpt lat="44.84165" lon="4.22029">
        <ele>1411.35</ele>
        <time>2002-03-28T11:05:04Z</time>
      </trkpt>
      <trkpt lat="44.84168" lon="4.22009">
        <ele>1411.83</ele>
        <time>2002-03-28T11:05:16Z</time>
      </trkpt>
      <trkpt lat="44.84171" lon="4.21993">
        <ele>1411.83</ele>
        <time>2002-03-28T11:05:26Z</time>
      </trkpt>
      <trkpt lat="44.84171" lon="4.21989">
        <ele>1411.83</ele>
        <time>2002-03-28T11:05:29Z</time>
      </trkpt>
      <trkpt lat="44.84173" lon="4.21979">
        <ele>1412.31</ele>
        <time>2002-03-28T11:05:35Z</time>
      </trkpt>
      <trkpt lat="44.84175" lon="4.21969">
        <ele>1412.31</ele>
        <time>2002-03-28T11:05:42Z</time>
      </trkpt>
      <trkpt lat="44.84176" lon="4.2195">
        <ele>1411.35</ele>
        <time>2002-03-28T11:05:54Z</time>
      </trkpt>
      <trkpt lat="44.84178" lon="4.21936">
        <ele>1412.31</ele>
        <time>2002-03-28T11:06:04Z</time>
      </trkpt>
      <trkpt lat="44.8418" lon="4.21915">
        <ele>1411.83</ele>
        <time>2002-03-28T11:06:15Z</time>
      </trkpt>
      <trkpt lat="44.84181" lon="4.21913">
        <ele>1411.83</ele>
        <time>2002-03-28T11:06:16Z</time>
      </trkpt>
      <trkpt lat="44.84181" lon="4.2191">
        <ele>1411.35</ele>
        <time>2002-03-28T11:06:19Z</time>
      </trkpt>
      <trkpt lat="44.84183" lon="4.21893">
        <ele>1410.87</ele>
        <time>2002-03-28T11:06:28Z</time>
      </trkpt>
      <trkpt lat="44.84185" lon="4.21882">
        <ele>1410.87</ele>
        <time>2002-03-28T11:06:34Z</time>
      </trkpt>
      <trkpt lat="44.84188" lon="4.21857">
        <ele>1410.39</ele>
        <time>2002-03-28T11:06:47Z</time>
      </trkpt>
      <trkpt lat="44.84191" lon="4.21846">
        <ele>1409.91</ele>
        <time>2002-03-28T11:06:53Z</time>
      </trkpt>
      <trkpt lat="44.84193" lon="4.21843">
        <ele>1410.39</ele>
        <time>2002-03-28T11:06:55Z</time>
      </trkpt>
      <trkpt lat="44.84195" lon="4.21832">
        <ele>1410.39</ele>
        <time>2002-03-28T11:07:01Z</time>
      </trkpt>
      <trkpt lat="44.84195" lon="4.21827">
        <ele>1409.91</ele>
        <time>2002-03-28T11:07:04Z</time>
      </trkpt>
      <trkpt lat="44.84197" lon="4.21818">
        <ele>1409.91</ele>
        <time>2002-03-28T11:07:26Z</time>
      </trkpt>
      <trkpt lat="44.84198" lon="4.21816">
        <ele>1410.87</ele>
        <time>2002-03-28T11:07:28Z</time>
      </trkpt>
      <trkpt lat="44.84206" lon="4.21793">
        <ele>1409.43</ele>
        <time>2002-03-28T11:07:43Z</time>
      </trkpt>
      <trkpt lat="44.84212" lon="4.21781">
        <ele>1409.43</ele>
        <time>2002-03-28T11:07:50Z</time>
      </trkpt>
      <trkpt lat="44.84219" lon="4.21762">
        <ele>1409.43</ele>
        <time>2002-03-28T11:08:01Z</time>
      </trkpt>
      <trkpt lat="44.84225" lon="4.2175">
        <ele>1409.91</ele>
        <time>2002-03-28T11:08:08Z</time>
      </trkpt>
      <trkpt lat="44.84228" lon="4.21743">
        <ele>1409.91</ele>
        <time>2002-03-28T11:08:12Z</time>
      </trkpt>
      <trkpt lat="44.84238" lon="4.21721">
        <ele>1409.43</ele>
        <time>2002-03-28T11:08:26Z</time>
      </trkpt>
      <trkpt lat="44.84238" lon="4.21721">
        <ele>1408.47</ele>
        <time>2002-03-28T11:08:51Z</time>
      </trkpt>
      <trkpt lat="44.84238" lon="4.21721">
        <ele>1407.99</ele>
        <time>2002-03-28T11:09:27Z</time>
      </trkpt>
      <trkpt lat="44.84242" lon="4.21716">
        <ele>1407.99</ele>
        <time>2002-03-28T11:09:31Z</time>
      </trkpt>
      <trkpt lat="44.84246" lon="4.2171">
        <ele>1407.03</ele>
        <time>2002-03-28T11:09:35Z</time>
      </trkpt>
      <trkpt lat="44.84248" lon="4.21705">
        <ele>1407.99</ele>
        <time>2002-03-28T11:09:38Z</time>
      </trkpt>
      <trkpt lat="44.84257" lon="4.21696">
        <ele>1407.51</ele>
        <time>2002-03-28T11:09:46Z</time>
      </trkpt>
      <trkpt lat="44.84268" lon="4.2168">
        <ele>1407.03</ele>
        <time>2002-03-28T11:09:59Z</time>
      </trkpt>
      <trkpt lat="44.84269" lon="4.21677">
        <ele>1407.03</ele>
        <time>2002-03-28T11:10:01Z</time>
      </trkpt>
      <trkpt lat="44.84282" lon="4.21662">
        <ele>1407.51</ele>
        <time>2002-03-28T11:10:13Z</time>
      </trkpt>
      <trkpt lat="44.84284" lon="4.21659">
        <ele>1407.03</ele>
        <time>2002-03-28T11:10:16Z</time>
      </trkpt>
      <trkpt lat="44.84299" lon="4.21645">
        <ele>1406.55</ele>
        <time>2002-03-28T11:10:29Z</time>
      </trkpt>
      <trkpt lat="44.84301" lon="4.21642">
        <ele>1406.07</ele>
        <time>2002-03-28T11:10:31Z</time>
      </trkpt>
      <trkpt lat="44.84314" lon="4.21632">
        <ele>1406.07</ele>
        <time>2002-03-28T11:10:42Z</time>
      </trkpt>
      <trkpt lat="44.84312" lon="4.2162">
        <ele>1406.07</ele>
        <time>2002-03-28T11:10:58Z</time>
      </trkpt>
      <trkpt lat="44.84312" lon="4.2162">
        <ele>1405.58</ele>
        <time>2002-03-28T11:12:25Z</time>
      </trkpt>
      <trkpt lat="44.84314" lon="4.21616">
        <ele>1405.58</ele>
        <time>2002-03-28T11:12:28Z</time>
      </trkpt>
      <trkpt lat="44.8432" lon="4.21608">
        <ele>1405.1</ele>
        <time>2002-03-28T11:12:36Z</time>
      </trkpt>
      <trkpt lat="44.84324" lon="4.21602">
        <ele>1404.62</ele>
        <time>2002-03-28T11:12:40Z</time>
      </trkpt>
      <trkpt lat="44.84326" lon="4.21596">
        <ele>1404.62</ele>
        <time>2002-03-28T11:12:44Z</time>
      </trkpt>
      <trkpt lat="44.84329" lon="4.21589">
        <ele>1404.62</ele>
        <time>2002-03-28T11:12:48Z</time>
      </trkpt>
      <trkpt lat="44.84334" lon="4.21577">
        <ele>1404.62</ele>
        <time>2002-03-28T11:12:54Z</time>
      </trkpt>
      <trkpt lat="44.8434" lon="4.21563">
        <ele>1405.58</ele>
        <time>2002-03-28T11:13:03Z</time>
      </trkpt>
      <trkpt lat="44.8434" lon="4.21561">
        <ele>1404.62</ele>
        <time>2002-03-28T11:13:05Z</time>
      </trkpt>
      <trkpt lat="44.84345" lon="4.21544">
        <ele>1405.1</ele>
        <time>2002-03-28T11:13:15Z</time>
      </trkpt>
      <trkpt lat="44.84347" lon="4.21539">
        <ele>1405.1</ele>
        <time>2002-03-28T11:13:18Z</time>
      </trkpt>
      <trkpt lat="44.8435" lon="4.21526">
        <ele>1405.58</ele>
        <time>2002-03-28T11:13:25Z</time>
      </trkpt>
      <trkpt lat="44.84351" lon="4.21523">
        <ele>1405.1</ele>
        <time>2002-03-28T11:13:27Z</time>
      </trkpt>
      <trkpt lat="44.84359" lon="4.21503">
        <ele>1405.1</ele>
        <time>2002-03-28T11:13:38Z</time>
      </trkpt>
      <trkpt lat="44.84362" lon="4.21493">
        <ele>1405.1</ele>
        <time>2002-03-28T11:13:44Z</time>
      </trkpt>
      <trkpt lat="44.8437" lon="4.21473">
        <ele>1405.58</ele>
        <time>2002-03-28T11:13:55Z</time>
      </trkpt>
      <trkpt lat="44.84377" lon="4.21448">
        <ele>1404.62</ele>
        <time>2002-03-28T11:14:08Z</time>
      </trkpt>
      <trkpt lat="44.8438" lon="4.21439">
        <ele>1404.62</ele>
        <time>2002-03-28T11:14:13Z</time>
      </trkpt>
      <trkpt lat="44.84382" lon="4.21434">
        <ele>1404.62</ele>
        <time>2002-03-28T11:14:16Z</time>
      </trkpt>
      <trkpt lat="44.84388" lon="4.21419">
        <ele>1404.14</ele>
        <time>2002-03-28T11:14:25Z</time>
      </trkpt>
      <trkpt lat="44.84391" lon="4.2141">
        <ele>1405.58</ele>
        <time>2002-03-28T11:14:30Z</time>
      </trkpt>
      <trkpt lat="44.844" lon="4.21392">
        <ele>1405.1</ele>
        <time>2002-03-28T11:14:43Z</time>
      </trkpt>
      <trkpt lat="44.84403" lon="4.2139">
        <ele>1404.62</ele>
        <time>2002-03-28T11:14:48Z</time>
      </trkpt>
      <trkpt lat="44.84406" lon="4.21379">
        <ele>1404.14</ele>
        <time>2002-03-28T11:14:56Z</time>
      </trkpt>
      <trkpt lat="44.84409" lon="4.21363">
        <ele>1405.1</ele>
        <time>2002-03-28T11:15:05Z</time>
      </trkpt>
      <trkpt lat="44.84411" lon="4.2136">
        <ele>1404.14</ele>
        <time>2002-03-28T11:15:07Z</time>
      </trkpt>
      <trkpt lat="44.84413" lon="4.21351">
        <ele>1404.14</ele>
        <time>2002-03-28T11:15:12Z</time>
      </trkpt>
      <trkpt lat="44.84415" lon="4.21347">
        <ele>1404.62</ele>
        <time>2002-03-28T11:15:35Z</time>
      </trkpt>
      <trkpt lat="44.84415" lon="4.21348">
        <ele>1405.1</ele>
        <time>2002-03-28T11:16:58Z</time>
      </trkpt>
      <trkpt lat="44.84415" lon="4.21346">
        <ele>1405.1</ele>
        <time>2002-03-28T11:17:01Z</time>
      </trkpt>
      <trkpt lat="44.84424" lon="4.21327">
        <ele>1406.07</ele>
        <time>2002-03-28T11:17:16Z</time>
      </trkpt>
      <trkpt lat="44.84424" lon="4.21323">
        <ele>1406.07</ele>
        <time>2002-03-28T11:17:20Z</time>
      </trkpt>
      <trkpt lat="44.84428" lon="4.2131">
        <ele>1406.07</ele>
        <time>2002-03-28T11:17:28Z</time>
      </trkpt>
      <trkpt lat="44.84433" lon="4.21297">
        <ele>1406.55</ele>
        <time>2002-03-28T11:17:37Z</time>
      </trkpt>
      <trkpt lat="44.84436" lon="4.21291">
        <ele>1405.1</ele>
        <time>2002-03-28T11:17:41Z</time>
      </trkpt>
      <trkpt lat="44.8444" lon="4.21282">
        <ele>1405.58</ele>
        <time>2002-03-28T11:17:47Z</time>
      </trkpt>
      <trkpt lat="44.84443" lon="4.21274">
        <ele>1405.58</ele>
        <time>2002-03-28T11:17:52Z</time>
      </trkpt>
      <trkpt lat="44.8445" lon="4.21262">
        <ele>1404.62</ele>
        <time>2002-03-28T11:18:01Z</time>
      </trkpt>
      <trkpt lat="44.84454" lon="4.21258">
        <ele>1404.14</ele>
        <time>2002-03-28T11:18:05Z</time>
      </trkpt>
      <trkpt lat="44.84458" lon="4.21254">
        <ele>1403.66</ele>
        <time>2002-03-28T11:18:09Z</time>
      </trkpt>
      <trkpt lat="44.84468" lon="4.21242">
        <ele>1402.7</ele>
        <time>2002-03-28T11:18:20Z</time>
      </trkpt>
      <trkpt lat="44.84482" lon="4.21231">
        <ele>1400.3</ele>
        <time>2002-03-28T11:18:33Z</time>
      </trkpt>
      <trkpt lat="44.84499" lon="4.21222">
        <ele>1399.82</ele>
        <time>2002-03-28T11:18:48Z</time>
      </trkpt>
      <trkpt lat="44.84505" lon="4.21219">
        <ele>1398.86</ele>
        <time>2002-03-28T11:18:52Z</time>
      </trkpt>
      <trkpt lat="44.84509" lon="4.21217">
        <ele>1398.86</ele>
        <time>2002-03-28T11:18:56Z</time>
      </trkpt>
      <trkpt lat="44.84521" lon="4.21211">
        <ele>1397.41</ele>
        <time>2002-03-28T11:19:08Z</time>
      </trkpt>
      <trkpt lat="44.8453" lon="4.21206">
        <ele>1397.41</ele>
        <time>2002-03-28T11:19:17Z</time>
      </trkpt>
      <trkpt lat="44.84532" lon="4.21204">
        <ele>1396.45</ele>
        <time>2002-03-28T11:19:19Z</time>
      </trkpt>
      <trkpt lat="44.84541" lon="4.21198">
        <ele>1395.49</ele>
        <time>2002-03-28T11:19:29Z</time>
      </trkpt>
      <trkpt lat="44.84549" lon="4.21191">
        <ele>1395.01</ele>
        <time>2002-03-28T11:19:38Z</time>
      </trkpt>
      <trkpt lat="44.84561" lon="4.21183">
        <ele>1395.49</ele>
        <time>2002-03-28T11:19:46Z</time>
      </trkpt>
      <trkpt lat="44.84563" lon="4.2118">
        <ele>1394.53</ele>
        <time>2002-03-28T11:19:49Z</time>
      </trkpt>
      <trkpt lat="44.84574" lon="4.21173">
        <ele>1394.05</ele>
        <time>2002-03-28T11:19:57Z</time>
      </trkpt>
      <trkpt lat="44.8458" lon="4.2117">
        <ele>1393.57</ele>
        <time>2002-03-28T11:20:01Z</time>
      </trkpt>
      <trkpt lat="44.84602" lon="4.21157">
        <ele>1392.61</ele>
        <time>2002-03-28T11:20:16Z</time>
      </trkpt>
      <trkpt lat="44.84621" lon="4.21144">
        <ele>1391.65</ele>
        <time>2002-03-28T11:20:28Z</time>
      </trkpt>
      <trkpt lat="44.84638" lon="4.21132">
        <ele>1391.17</ele>
        <time>2002-03-28T11:20:40Z</time>
      </trkpt>
      <trkpt lat="44.84638" lon="4.21131">
        <ele>1391.17</ele>
        <time>2002-03-28T11:20:41Z</time>
      </trkpt>
      <trkpt lat="44.84639" lon="4.21128">
        <ele>1390.68</ele>
        <time>2002-03-28T11:20:44Z</time>
      </trkpt>
      <trkpt lat="44.84644" lon="4.21122">
        <ele>1390.68</ele>
        <time>2002-03-28T11:20:48Z</time>
      </trkpt>
      <trkpt lat="44.84655" lon="4.21112">
        <ele>1389.72</ele>
        <time>2002-03-28T11:20:56Z</time>
      </trkpt>
      <trkpt lat="44.84662" lon="4.21103">
        <ele>1388.76</ele>
        <time>2002-03-28T11:21:03Z</time>
      </trkpt>
      <trkpt lat="44.84664" lon="4.21101">
        <ele>1389.24</ele>
        <time>2002-03-28T11:21:05Z</time>
      </trkpt>
      <trkpt lat="44.84668" lon="4.21094">
        <ele>1389.72</ele>
        <time>2002-03-28T11:21:09Z</time>
      </trkpt>
      <trkpt lat="44.84671" lon="4.21092">
        <ele>1388.28</ele>
        <time>2002-03-28T11:21:11Z</time>
      </trkpt>
      <trkpt lat="44.84679" lon="4.21086">
        <ele>1388.28</ele>
        <time>2002-03-28T11:21:16Z</time>
      </trkpt>
      <trkpt lat="44.8469" lon="4.21075">
        <ele>1386.84</ele>
        <time>2002-03-28T11:21:23Z</time>
      </trkpt>
      <trkpt lat="44.84697" lon="4.2107">
        <ele>1387.8</ele>
        <time>2002-03-28T11:21:29Z</time>
      </trkpt>
      <trkpt lat="44.84705" lon="4.21062">
        <ele>1386.84</ele>
        <time>2002-03-28T11:21:36Z</time>
      </trkpt>
      <trkpt lat="44.84706" lon="4.2106">
        <ele>1386.36</ele>
        <time>2002-03-28T11:21:38Z</time>
      </trkpt>
      <trkpt lat="44.84713" lon="4.21049">
        <ele>1385.4</ele>
        <time>2002-03-28T11:21:45Z</time>
      </trkpt>
      <trkpt lat="44.84715" lon="4.21042">
        <ele>1384.92</ele>
        <time>2002-03-28T11:21:49Z</time>
      </trkpt>
      <trkpt lat="44.84715" lon="4.21035">
        <ele>1384.44</ele>
        <time>2002-03-28T11:21:52Z</time>
      </trkpt>
      <trkpt lat="44.84725" lon="4.21005">
        <ele>1383.47</ele>
        <time>2002-03-28T11:22:07Z</time>
      </trkpt>
      <trkpt lat="44.8473" lon="4.20989">
        <ele>1382.51</ele>
        <time>2002-03-28T11:22:15Z</time>
      </trkpt>
      <trkpt lat="44.84735" lon="4.20968">
        <ele>1382.03</ele>
        <time>2002-03-28T11:22:25Z</time>
      </trkpt>
      <trkpt lat="44.84737" lon="4.20956">
        <ele>1382.03</ele>
        <time>2002-03-28T11:22:30Z</time>
      </trkpt>
      <trkpt lat="44.84741" lon="4.20941">
        <ele>1381.07</ele>
        <time>2002-03-28T11:22:39Z</time>
      </trkpt>
      <trkpt lat="44.84745" lon="4.20914">
        <ele>1380.11</ele>
        <time>2002-03-28T11:22:53Z</time>
      </trkpt>
      <trkpt lat="44.84745" lon="4.20912">
        <ele>1379.63</ele>
        <time>2002-03-28T11:22:54Z</time>
      </trkpt>
      <trkpt lat="44.84749" lon="4.20885">
        <ele>1379.15</ele>
        <time>2002-03-28T11:23:07Z</time>
      </trkpt>
      <trkpt lat="44.8475" lon="4.20881">
        <ele>1379.63</ele>
        <time>2002-03-28T11:23:09Z</time>
      </trkpt>
      <trkpt lat="44.84753" lon="4.20872">
        <ele>1379.15</ele>
        <time>2002-03-28T11:23:14Z</time>
      </trkpt>
      <trkpt lat="44.84755" lon="4.20869">
        <ele>1378.67</ele>
        <time>2002-03-28T11:23:16Z</time>
      </trkpt>
      <trkpt lat="44.84758" lon="4.20857">
        <ele>1378.19</ele>
        <time>2002-03-28T11:23:22Z</time>
      </trkpt>
      <trkpt lat="44.84761" lon="4.20849">
        <ele>1378.67</ele>
        <time>2002-03-28T11:23:26Z</time>
      </trkpt>
      <trkpt lat="44.84762" lon="4.20842">
        <ele>1378.19</ele>
        <time>2002-03-28T11:23:30Z</time>
      </trkpt>
      <trkpt lat="44.84768" lon="4.20826">
        <ele>1377.23</ele>
        <time>2002-03-28T11:23:40Z</time>
      </trkpt>
      <trkpt lat="44.84774" lon="4.20812">
        <ele>1375.78</ele>
        <time>2002-03-28T11:23:53Z</time>
      </trkpt>
      <trkpt lat="44.8478" lon="4.20802">
        <ele>1374.82</ele>
        <time>2002-03-28T11:24:02Z</time>
      </trkpt>
      <trkpt lat="44.84784" lon="4.20787">
        <ele>1374.34</ele>
        <time>2002-03-28T11:24:12Z</time>
      </trkpt>
      <trkpt lat="44.84788" lon="4.20777">
        <ele>1374.34</ele>
        <time>2002-03-28T11:24:19Z</time>
      </trkpt>
      <trkpt lat="44.84789" lon="4.20768">
        <ele>1373.86</ele>
        <time>2002-03-28T11:24:23Z</time>
      </trkpt>
      <trkpt lat="44.84795" lon="4.20755">
        <ele>1373.38</ele>
        <time>2002-03-28T11:24:29Z</time>
      </trkpt>
      <trkpt lat="44.84799" lon="4.20743">
        <ele>1372.9</ele>
        <time>2002-03-28T11:24:35Z</time>
      </trkpt>
      <trkpt lat="44.84805" lon="4.2073">
        <ele>1372.42</ele>
        <time>2002-03-28T11:24:47Z</time>
      </trkpt>
      <trkpt lat="44.84809" lon="4.20727">
        <ele>1371.94</ele>
        <time>2002-03-28T11:24:53Z</time>
      </trkpt>
      <trkpt lat="44.84817" lon="4.20723">
        <ele>1371.46</ele>
        <time>2002-03-28T11:25:09Z</time>
      </trkpt>
      <trkpt lat="44.8482" lon="4.20721">
        <ele>1371.46</ele>
        <time>2002-03-28T11:25:11Z</time>
      </trkpt>
      <trkpt lat="44.8483" lon="4.2071">
        <ele>1370.5</ele>
        <time>2002-03-28T11:25:22Z</time>
      </trkpt>
      <trkpt lat="44.84845" lon="4.20701">
        <ele>1369.54</ele>
        <time>2002-03-28T11:25:33Z</time>
      </trkpt>
      <trkpt lat="44.84849" lon="4.20697">
        <ele>1369.05</ele>
        <time>2002-03-28T11:25:37Z</time>
      </trkpt>
      <trkpt lat="44.84854" lon="4.20685">
        <ele>1369.05</ele>
        <time>2002-03-28T11:25:44Z</time>
      </trkpt>
      <trkpt lat="44.8486" lon="4.20665">
        <ele>1368.57</ele>
        <time>2002-03-28T11:25:56Z</time>
      </trkpt>
      <trkpt lat="44.84861" lon="4.20662">
        <ele>1368.57</ele>
        <time>2002-03-28T11:25:58Z</time>
      </trkpt>
      <trkpt lat="44.84865" lon="4.20658">
        <ele>1367.61</ele>
        <time>2002-03-28T11:26:01Z</time>
      </trkpt>
      <trkpt lat="44.8487" lon="4.20647">
        <ele>1367.13</ele>
        <time>2002-03-28T11:26:07Z</time>
      </trkpt>
      <trkpt lat="44.84874" lon="4.20634">
        <ele>1366.65</ele>
        <time>2002-03-28T11:26:14Z</time>
      </trkpt>
      <trkpt lat="44.84881" lon="4.20616">
        <ele>1365.21</ele>
        <time>2002-03-28T11:26:24Z</time>
      </trkpt>
      <trkpt lat="44.84887" lon="4.20597">
        <ele>1364.25</ele>
        <time>2002-03-28T11:26:35Z</time>
      </trkpt>
      <trkpt lat="44.84889" lon="4.20591">
        <ele>1363.77</ele>
        <time>2002-03-28T11:26:40Z</time>
      </trkpt>
      <trkpt lat="44.84891" lon="4.20581">
        <ele>1363.29</ele>
        <time>2002-03-28T11:26:45Z</time>
      </trkpt>
      <trkpt lat="44.84902" lon="4.2056">
        <ele>1362.33</ele>
        <time>2002-03-28T11:26:56Z</time>
      </trkpt>
      <trkpt lat="44.84904" lon="4.20557">
        <ele>1361.36</ele>
        <time>2002-03-28T11:26:58Z</time>
      </trkpt>
      <trkpt lat="44.84909" lon="4.20553">
        <ele>1361.36</ele>
        <time>2002-03-28T11:27:01Z</time>
      </trkpt>
      <trkpt lat="44.8492" lon="4.20541">
        <ele>1359.92</ele>
        <time>2002-03-28T11:27:11Z</time>
      </trkpt>
      <trkpt lat="44.84926" lon="4.20536">
        <ele>1358.96</ele>
        <time>2002-03-28T11:27:16Z</time>
      </trkpt>
      <trkpt lat="44.84929" lon="4.20533">
        <ele>1358.48</ele>
        <time>2002-03-28T11:27:18Z</time>
      </trkpt>
      <trkpt lat="44.84937" lon="4.20525">
        <ele>1357.52</ele>
        <time>2002-03-28T11:27:26Z</time>
      </trkpt>
      <trkpt lat="44.84947" lon="4.20513">
        <ele>1355.6</ele>
        <time>2002-03-28T11:27:38Z</time>
      </trkpt>
      <trkpt lat="44.84952" lon="4.20509">
        <ele>1355.6</ele>
        <time>2002-03-28T11:27:45Z</time>
      </trkpt>
      <trkpt lat="44.84965" lon="4.20507">
        <ele>1355.12</ele>
        <time>2002-03-28T11:27:56Z</time>
      </trkpt>
      <trkpt lat="44.84971" lon="4.20507">
        <ele>1354.63</ele>
        <time>2002-03-28T11:28:05Z</time>
      </trkpt>
      <trkpt lat="44.84984" lon="4.20503">
        <ele>1352.23</ele>
        <time>2002-03-28T11:28:17Z</time>
      </trkpt>
      <trkpt lat="44.84996" lon="4.205">
        <ele>1349.35</ele>
        <time>2002-03-28T11:28:29Z</time>
      </trkpt>
      <trkpt lat="44.84997" lon="4.20499">
        <ele>1349.35</ele>
        <time>2002-03-28T11:28:30Z</time>
      </trkpt>
      <trkpt lat="44.85008" lon="4.20498">
        <ele>1347.43</ele>
        <time>2002-03-28T11:28:39Z</time>
      </trkpt>
      <trkpt lat="44.85023" lon="4.20495">
        <ele>1345.5</ele>
        <time>2002-03-28T11:28:49Z</time>
      </trkpt>
      <trkpt lat="44.85034" lon="4.20492">
        <ele>1344.54</ele>
        <time>2002-03-28T11:28:56Z</time>
      </trkpt>
      <trkpt lat="44.85062" lon="4.20491">
        <ele>1341.18</ele>
        <time>2002-03-28T11:29:09Z</time>
      </trkpt>
      <trkpt lat="44.85088" lon="4.20492">
        <ele>1339.73</ele>
        <time>2002-03-28T11:29:22Z</time>
      </trkpt>
      <trkpt lat="44.85106" lon="4.20492">
        <ele>1338.77</ele>
        <time>2002-03-28T11:29:33Z</time>
      </trkpt>
      <trkpt lat="44.85109" lon="4.20492">
        <ele>1338.77</ele>
        <time>2002-03-28T11:29:51Z</time>
      </trkpt>
      <trkpt lat="44.85127" lon="4.20494">
        <ele>1338.77</ele>
        <time>2002-03-28T11:30:11Z</time>
      </trkpt>
      <trkpt lat="44.85148" lon="4.20502">
        <ele>1337.81</ele>
        <time>2002-03-28T11:30:26Z</time>
      </trkpt>
      <trkpt lat="44.85166" lon="4.20505">
        <ele>1337.81</ele>
        <time>2002-03-28T11:30:39Z</time>
      </trkpt>
      <trkpt lat="44.8518" lon="4.20511">
        <ele>1337.33</ele>
        <time>2002-03-28T11:30:49Z</time>
      </trkpt>
      <trkpt lat="44.85197" lon="4.20517">
        <ele>1336.85</ele>
        <time>2002-03-28T11:31:00Z</time>
      </trkpt>
      <trkpt lat="44.85212" lon="4.20524">
        <ele>1336.85</ele>
        <time>2002-03-28T11:31:12Z</time>
      </trkpt>
      <trkpt lat="44.8523" lon="4.20528">
        <ele>1336.85</ele>
        <time>2002-03-28T11:31:25Z</time>
      </trkpt>
      <trkpt lat="44.85248" lon="4.20534">
        <ele>1337.33</ele>
        <time>2002-03-28T11:31:37Z</time>
      </trkpt>
      <trkpt lat="44.85261" lon="4.20539">
        <ele>1337.81</ele>
        <time>2002-03-28T11:31:47Z</time>
      </trkpt>
      <trkpt lat="44.85276" lon="4.20544">
        <ele>1338.29</ele>
        <time>2002-03-28T11:31:59Z</time>
      </trkpt>
      <trkpt lat="44.85297" lon="4.20549">
        <ele>1338.77</ele>
        <time>2002-03-28T11:32:14Z</time>
      </trkpt>
      <trkpt lat="44.85307" lon="4.20554">
        <ele>1339.25</ele>
        <time>2002-03-28T11:32:21Z</time>
      </trkpt>
      <trkpt lat="44.85321" lon="4.2056">
        <ele>1339.73</ele>
        <time>2002-03-28T11:32:35Z</time>
      </trkpt>
      <trkpt lat="44.85325" lon="4.20562">
        <ele>1339.25</ele>
        <time>2002-03-28T11:32:39Z</time>
      </trkpt>
      <trkpt lat="44.85336" lon="4.20567">
        <ele>1339.73</ele>
        <time>2002-03-28T11:32:50Z</time>
      </trkpt>
      <trkpt lat="44.85352" lon="4.2057">
        <ele>1340.7</ele>
        <time>2002-03-28T11:33:03Z</time>
      </trkpt>
      <trkpt lat="44.85359" lon="4.2057">
        <ele>1340.7</ele>
        <time>2002-03-28T11:33:09Z</time>
      </trkpt>
      <trkpt lat="44.85372" lon="4.20566">
        <ele>1340.22</ele>
        <time>2002-03-28T11:33:18Z</time>
      </trkpt>
      <trkpt lat="44.85384" lon="4.20558">
        <ele>1340.22</ele>
        <time>2002-03-28T11:33:30Z</time>
      </trkpt>
      <trkpt lat="44.85394" lon="4.20551">
        <ele>1340.22</ele>
        <time>2002-03-28T11:33:42Z</time>
      </trkpt>
      <trkpt lat="44.85404" lon="4.20544">
        <ele>1340.22</ele>
        <time>2002-03-28T11:33:54Z</time>
      </trkpt>
      <trkpt lat="44.85417" lon="4.20533">
        <ele>1339.73</ele>
        <time>2002-03-28T11:34:04Z</time>
      </trkpt>
      <trkpt lat="44.85427" lon="4.20526">
        <ele>1339.73</ele>
        <time>2002-03-28T11:34:29Z</time>
      </trkpt>
      <trkpt lat="44.85431" lon="4.20522">
        <ele>1339.73</ele>
        <time>2002-03-28T11:35:40Z</time>
      </trkpt>
      <trkpt lat="44.85441" lon="4.20514">
        <ele>1339.73</ele>
        <time>2002-03-28T11:36:14Z</time>
      </trkpt>
      <trkpt lat="44.85446" lon="4.20506">
        <ele>1339.73</ele>
        <time>2002-03-28T11:36:21Z</time>
      </trkpt>
      <trkpt lat="44.85454" lon="4.20496">
        <ele>1340.22</ele>
        <time>2002-03-28T11:36:30Z</time>
      </trkpt>
      <trkpt lat="44.85461" lon="4.20483">
        <ele>1341.18</ele>
        <time>2002-03-28T11:36:42Z</time>
      </trkpt>
      <trkpt lat="44.85466" lon="4.20475">
        <ele>1341.66</ele>
        <time>2002-03-28T11:36:52Z</time>
      </trkpt>
      <trkpt lat="44.85476" lon="4.20467">
        <ele>1342.62</ele>
        <time>2002-03-28T11:37:06Z</time>
      </trkpt>
      <trkpt lat="44.85486" lon="4.20457">
        <ele>1344.06</ele>
        <time>2002-03-28T11:37:17Z</time>
      </trkpt>
      <trkpt lat="44.85495" lon="4.20452">
        <ele>1347.43</ele>
        <time>2002-03-28T11:37:31Z</time>
      </trkpt>
      <trkpt lat="44.85514" lon="4.20432">
        <ele>1350.31</ele>
        <time>2002-03-28T11:38:06Z</time>
      </trkpt>
      <trkpt lat="44.85515" lon="4.20427">
        <ele>1353.67</ele>
        <time>2002-03-28T11:38:32Z</time>
      </trkpt>
      <trkpt lat="44.85528" lon="4.20406">
        <ele>1356.08</ele>
        <time>2002-03-28T11:39:00Z</time>
      </trkpt>
      <trkpt lat="44.8554" lon="4.20387">
        <ele>1358.48</ele>
        <time>2002-03-28T11:39:23Z</time>
      </trkpt>
      <trkpt lat="44.85546" lon="4.20373">
        <ele>1360.88</ele>
        <time>2002-03-28T11:39:43Z</time>
      </trkpt>
      <trkpt lat="44.85558" lon="4.20344">
        <ele>1361.84</ele>
        <time>2002-03-28T11:40:02Z</time>
      </trkpt>
      <trkpt lat="44.85563" lon="4.20325">
        <ele>1361.84</ele>
        <time>2002-03-28T11:40:14Z</time>
      </trkpt>
      <trkpt lat="44.85568" lon="4.20309">
        <ele>1362.81</ele>
        <time>2002-03-28T11:40:24Z</time>
      </trkpt>
      <trkpt lat="44.85574" lon="4.20293">
        <ele>1362.33</ele>
        <time>2002-03-28T11:40:33Z</time>
      </trkpt>
      <trkpt lat="44.85577" lon="4.20288">
        <ele>1362.81</ele>
        <time>2002-03-28T11:40:36Z</time>
      </trkpt>
      <trkpt lat="44.85578" lon="4.20284">
        <ele>1363.29</ele>
        <time>2002-03-28T11:40:38Z</time>
      </trkpt>
      <trkpt lat="44.85582" lon="4.20274">
        <ele>1362.81</ele>
        <time>2002-03-28T11:40:43Z</time>
      </trkpt>
      <trkpt lat="44.85588" lon="4.20256">
        <ele>1362.81</ele>
        <time>2002-03-28T11:40:54Z</time>
      </trkpt>
      <trkpt lat="44.85597" lon="4.20242">
        <ele>1362.33</ele>
        <time>2002-03-28T11:41:06Z</time>
      </trkpt>
      <trkpt lat="44.85607" lon="4.20223">
        <ele>1362.33</ele>
        <time>2002-03-28T11:41:20Z</time>
      </trkpt>
      <trkpt lat="44.85608" lon="4.20222">
        <ele>1362.33</ele>
        <time>2002-03-28T11:41:21Z</time>
      </trkpt>
      <trkpt lat="44.85611" lon="4.20193">
        <ele>1362.81</ele>
        <time>2002-03-28T11:41:34Z</time>
      </trkpt>
      <trkpt lat="44.85614" lon="4.20184">
        <ele>1362.33</ele>
        <time>2002-03-28T11:41:40Z</time>
      </trkpt>
      <trkpt lat="44.85619" lon="4.20164">
        <ele>1362.81</ele>
        <time>2002-03-28T11:41:53Z</time>
      </trkpt>
      <trkpt lat="44.85625" lon="4.20148">
        <ele>1362.81</ele>
        <time>2002-03-28T11:42:05Z</time>
      </trkpt>
      <trkpt lat="44.85632" lon="4.20132">
        <ele>1363.29</ele>
        <time>2002-03-28T11:42:15Z</time>
      </trkpt>
      <trkpt lat="44.85634" lon="4.20125">
        <ele>1363.77</ele>
        <time>2002-03-28T11:42:20Z</time>
      </trkpt>
      <trkpt lat="44.85644" lon="4.20105">
        <ele>1364.73</ele>
        <time>2002-03-28T11:42:31Z</time>
      </trkpt>
      <trkpt lat="44.85654" lon="4.20094">
        <ele>1364.25</ele>
        <time>2002-03-28T11:42:41Z</time>
      </trkpt>
      <trkpt lat="44.85665" lon="4.20083">
        <ele>1363.77</ele>
        <time>2002-03-28T11:42:52Z</time>
      </trkpt>
      <trkpt lat="44.85675" lon="4.20075">
        <ele>1363.77</ele>
        <time>2002-03-28T11:43:04Z</time>
      </trkpt>
      <trkpt lat="44.85677" lon="4.20075">
        <ele>1362.81</ele>
        <time>2002-03-28T11:43:25Z</time>
      </trkpt>
      <trkpt lat="44.85678" lon="4.20076">
        <ele>1361.84</ele>
        <time>2002-03-28T11:44:00Z</time>
      </trkpt>
      <trkpt lat="44.85691" lon="4.20074">
        <ele>1359.44</ele>
        <time>2002-03-28T11:57:01Z</time>
      </trkpt>
      <trkpt lat="44.85693" lon="4.20074">
        <ele>1359.44</ele>
        <time>2002-03-28T11:58:58Z</time>
      </trkpt>
      <trkpt lat="44.85695" lon="4.20074">
        <ele>1361.36</ele>
        <time>2002-03-28T12:05:02Z</time>
      </trkpt>
      <trkpt lat="44.85695" lon="4.20076">
        <ele>1361.84</ele>
        <time>2002-03-28T12:08:58Z</time>
      </trkpt>
      <trkpt lat="44.85695" lon="4.20077">
        <ele>1361.84</ele>
        <time>2002-03-28T12:10:23Z</time>
      </trkpt>
      <trkpt lat="44.85694" lon="4.20075">
        <ele>1363.29</ele>
        <time>2002-03-28T12:11:10Z</time>
      </trkpt>
      <trkpt lat="44.85695" lon="4.20073">
        <ele>1363.29</ele>
        <time>2002-03-28T12:11:36Z</time>
      </trkpt>
      <trkpt lat="44.85697" lon="4.20071">
        <ele>1363.29</ele>
        <time>2002-03-28T12:11:42Z</time>
      </trkpt>
      <trkpt lat="44.85709" lon="4.20062">
        <ele>1362.81</ele>
        <time>2002-03-28T12:11:54Z</time>
      </trkpt>
      <trkpt lat="44.85724" lon="4.20047">
        <ele>1360.88</ele>
        <time>2002-03-28T12:12:10Z</time>
      </trkpt>
      <trkpt lat="44.8574" lon="4.20032">
        <ele>1360.4</ele>
        <time>2002-03-28T12:12:24Z</time>
      </trkpt>
      <trkpt lat="44.85741" lon="4.2003">
        <ele>1360.4</ele>
        <time>2002-03-28T12:12:25Z</time>
      </trkpt>
      <trkpt lat="44.85755" lon="4.20009">
        <ele>1358.96</ele>
        <time>2002-03-28T12:12:40Z</time>
      </trkpt>
      <trkpt lat="44.85769" lon="4.19991">
        <ele>1358.48</ele>
        <time>2002-03-28T12:12:54Z</time>
      </trkpt>
      <trkpt lat="44.85772" lon="4.19986">
        <ele>1358.48</ele>
        <time>2002-03-28T12:12:58Z</time>
      </trkpt>
      <trkpt lat="44.85779" lon="4.1998">
        <ele>1358</ele>
        <time>2002-03-28T12:13:14Z</time>
      </trkpt>
      <trkpt lat="44.85781" lon="4.19978">
        <ele>1358.48</ele>
        <time>2002-03-28T12:13:23Z</time>
      </trkpt>
      <trkpt lat="44.85797" lon="4.19967">
        <ele>1358.48</ele>
        <time>2002-03-28T12:13:37Z</time>
      </trkpt>
      <trkpt lat="44.85808" lon="4.19959">
        <ele>1358.48</ele>
        <time>2002-03-28T12:13:47Z</time>
      </trkpt>
      <trkpt lat="44.85814" lon="4.19955">
        <ele>1359.44</ele>
        <time>2002-03-28T12:13:53Z</time>
      </trkpt>
      <trkpt lat="44.85821" lon="4.19952">
        <ele>1359.44</ele>
        <time>2002-03-28T12:14:00Z</time>
      </trkpt>
      <trkpt lat="44.85841" lon="4.19943">
        <ele>1360.4</ele>
        <time>2002-03-28T12:14:13Z</time>
      </trkpt>
      <trkpt lat="44.85855" lon="4.19938">
        <ele>1360.88</ele>
        <time>2002-03-28T12:14:24Z</time>
      </trkpt>
      <trkpt lat="44.85859" lon="4.19937">
        <ele>1360.4</ele>
        <time>2002-03-28T12:14:27Z</time>
      </trkpt>
      <trkpt lat="44.85864" lon="4.1994">
        <ele>1361.36</ele>
        <time>2002-03-28T12:14:38Z</time>
      </trkpt>
      <trkpt lat="44.85865" lon="4.19941">
        <ele>1361.36</ele>
        <time>2002-03-28T12:15:23Z</time>
      </trkpt>
      <trkpt lat="44.85866" lon="4.19939">
        <ele>1361.84</ele>
        <time>2002-03-28T12:16:31Z</time>
      </trkpt>
      <trkpt lat="44.85868" lon="4.19936">
        <ele>1361.36</ele>
        <time>2002-03-28T12:16:33Z</time>
      </trkpt>
      <trkpt lat="44.85867" lon="4.19934">
        <ele>1361.84</ele>
        <time>2002-03-28T12:16:47Z</time>
      </trkpt>
      <trkpt lat="44.85867" lon="4.19934">
        <ele>1361.84</ele>
        <time>2002-03-28T12:16:49Z</time>
      </trkpt>
      <trkpt lat="44.85872" lon="4.19928">
        <ele>1361.84</ele>
        <time>2002-03-28T12:16:54Z</time>
      </trkpt>
      <trkpt lat="44.85884" lon="4.19916">
        <ele>1362.81</ele>
        <time>2002-03-28T12:17:06Z</time>
      </trkpt>
      <trkpt lat="44.85886" lon="4.19915">
        <ele>1363.29</ele>
        <time>2002-03-28T12:17:08Z</time>
      </trkpt>
      <trkpt lat="44.85894" lon="4.19901">
        <ele>1362.81</ele>
        <time>2002-03-28T12:17:18Z</time>
      </trkpt>
      <trkpt lat="44.85902" lon="4.1989">
        <ele>1364.25</ele>
        <time>2002-03-28T12:17:27Z</time>
      </trkpt>
      <trkpt lat="44.85912" lon="4.19884">
        <ele>1365.21</ele>
        <time>2002-03-28T12:17:38Z</time>
      </trkpt>
      <trkpt lat="44.85924" lon="4.19882">
        <ele>1366.17</ele>
        <time>2002-03-28T12:17:53Z</time>
      </trkpt>
      <trkpt lat="44.85929" lon="4.19881">
        <ele>1367.61</ele>
        <time>2002-03-28T12:18:00Z</time>
      </trkpt>
      <trkpt lat="44.85942" lon="4.19875">
        <ele>1368.57</ele>
        <time>2002-03-28T12:18:11Z</time>
      </trkpt>
      <trkpt lat="44.85948" lon="4.19874">
        <ele>1369.54</ele>
        <time>2002-03-28T12:18:22Z</time>
      </trkpt>
      <trkpt lat="44.8595" lon="4.19872">
        <ele>1369.54</ele>
        <time>2002-03-28T12:18:26Z</time>
      </trkpt>
      <trkpt lat="44.85961" lon="4.19867">
        <ele>1371.46</ele>
        <time>2002-03-28T12:18:36Z</time>
      </trkpt>
      <trkpt lat="44.85968" lon="4.19862">
        <ele>1371.94</ele>
        <time>2002-03-28T12:18:46Z</time>
      </trkpt>
      <trkpt lat="44.85972" lon="4.19858">
        <ele>1372.42</ele>
        <time>2002-03-28T12:18:51Z</time>
      </trkpt>
      <trkpt lat="44.85974" lon="4.19854">
        <ele>1371.94</ele>
        <time>2002-03-28T12:18:54Z</time>
      </trkpt>
      <trkpt lat="44.85989" lon="4.19839">
        <ele>1372.42</ele>
        <time>2002-03-28T12:19:08Z</time>
      </trkpt>
      <trkpt lat="44.8599" lon="4.19838">
        <ele>1373.38</ele>
        <time>2002-03-28T12:19:09Z</time>
      </trkpt>
      <trkpt lat="44.85993" lon="4.19832">
        <ele>1373.38</ele>
        <time>2002-03-28T12:19:14Z</time>
      </trkpt>
      <trkpt lat="44.86006" lon="4.1982">
        <ele>1374.34</ele>
        <time>2002-03-28T12:19:26Z</time>
      </trkpt>
      <trkpt lat="44.86014" lon="4.19809">
        <ele>1375.78</ele>
        <time>2002-03-28T12:19:36Z</time>
      </trkpt>
      <trkpt lat="44.86022" lon="4.19797">
        <ele>1376.75</ele>
        <time>2002-03-28T12:19:48Z</time>
      </trkpt>
      <trkpt lat="44.86024" lon="4.19797">
        <ele>1375.78</ele>
        <time>2002-03-28T12:20:01Z</time>
      </trkpt>
      <trkpt lat="44.86035" lon="4.1978">
        <ele>1376.26</ele>
        <time>2002-03-28T12:20:14Z</time>
      </trkpt>
      <trkpt lat="44.8604" lon="4.19774">
        <ele>1376.26</ele>
        <time>2002-03-28T12:20:20Z</time>
      </trkpt>
      <trkpt lat="44.86054" lon="4.19763">
        <ele>1375.3</ele>
        <time>2002-03-28T12:20:32Z</time>
      </trkpt>
      <trkpt lat="44.8607" lon="4.19753">
        <ele>1373.86</ele>
        <time>2002-03-28T12:20:45Z</time>
      </trkpt>
      <trkpt lat="44.86088" lon="4.19749">
        <ele>1373.86</ele>
        <time>2002-03-28T12:20:58Z</time>
      </trkpt>
      <trkpt lat="44.86102" lon="4.19743">
        <ele>1374.34</ele>
        <time>2002-03-28T12:21:08Z</time>
      </trkpt>
      <trkpt lat="44.86118" lon="4.19744">
        <ele>1373.86</ele>
        <time>2002-03-28T12:21:21Z</time>
      </trkpt>
      <trkpt lat="44.86136" lon="4.19746">
        <ele>1374.82</ele>
        <time>2002-03-28T12:21:34Z</time>
      </trkpt>
      <trkpt lat="44.86142" lon="4.19745">
        <ele>1375.3</ele>
        <time>2002-03-28T12:21:38Z</time>
      </trkpt>
      <trkpt lat="44.86163" lon="4.19745">
        <ele>1375.3</ele>
        <time>2002-03-28T12:21:53Z</time>
      </trkpt>
      <trkpt lat="44.86166" lon="4.19745">
        <ele>1375.78</ele>
        <time>2002-03-28T12:21:55Z</time>
      </trkpt>
      <trkpt lat="44.86169" lon="4.19744">
        <ele>1374.82</ele>
        <time>2002-03-28T12:21:58Z</time>
      </trkpt>
      <trkpt lat="44.86185" lon="4.19742">
        <ele>1375.3</ele>
        <time>2002-03-28T12:22:10Z</time>
      </trkpt>
      <trkpt lat="44.86203" lon="4.19735">
        <ele>1376.26</ele>
        <time>2002-03-28T12:22:24Z</time>
      </trkpt>
      <trkpt lat="44.86204" lon="4.19734">
        <ele>1375.78</ele>
        <time>2002-03-28T12:22:25Z</time>
      </trkpt>
      <trkpt lat="44.86221" lon="4.19725">
        <ele>1376.75</ele>
        <time>2002-03-28T12:22:38Z</time>
      </trkpt>
      <trkpt lat="44.86229" lon="4.1972">
        <ele>1377.71</ele>
        <time>2002-03-28T12:22:49Z</time>
      </trkpt>
      <trkpt lat="44.86241" lon="4.19712">
        <ele>1378.19</ele>
        <time>2002-03-28T12:23:00Z</time>
      </trkpt>
      <trkpt lat="44.86254" lon="4.19704">
        <ele>1377.71</ele>
        <time>2002-03-28T12:23:10Z</time>
      </trkpt>
      <trkpt lat="44.86266" lon="4.19697">
        <ele>1378.19</ele>
        <time>2002-03-28T12:23:20Z</time>
      </trkpt>
      <trkpt lat="44.86278" lon="4.19692">
        <ele>1377.71</ele>
        <time>2002-03-28T12:23:30Z</time>
      </trkpt>
      <trkpt lat="44.86291" lon="4.19685">
        <ele>1379.63</ele>
        <time>2002-03-28T12:23:40Z</time>
      </trkpt>
      <trkpt lat="44.86309" lon="4.19675">
        <ele>1378.67</ele>
        <time>2002-03-28T12:23:53Z</time>
      </trkpt>
      <trkpt lat="44.8632" lon="4.19671">
        <ele>1379.63</ele>
        <time>2002-03-28T12:24:03Z</time>
      </trkpt>
      <trkpt lat="44.86334" lon="4.19667">
        <ele>1379.15</ele>
        <time>2002-03-28T12:24:14Z</time>
      </trkpt>
      <trkpt lat="44.86341" lon="4.19665">
        <ele>1380.11</ele>
        <time>2002-03-28T12:24:19Z</time>
      </trkpt>
      <trkpt lat="44.86352" lon="4.19661">
        <ele>1379.63</ele>
        <time>2002-03-28T12:24:31Z</time>
      </trkpt>
      <trkpt lat="44.86364" lon="4.19656">
        <ele>1379.63</ele>
        <time>2002-03-28T12:24:53Z</time>
      </trkpt>
      <trkpt lat="44.86372" lon="4.19653">
        <ele>1380.59</ele>
        <time>2002-03-28T12:24:59Z</time>
      </trkpt>
      <trkpt lat="44.86383" lon="4.19646">
        <ele>1380.11</ele>
        <time>2002-03-28T12:25:09Z</time>
      </trkpt>
      <trkpt lat="44.86397" lon="4.19636">
        <ele>1380.11</ele>
        <time>2002-03-28T12:25:21Z</time>
      </trkpt>
      <trkpt lat="44.864" lon="4.19634">
        <ele>1380.59</ele>
        <time>2002-03-28T12:25:23Z</time>
      </trkpt>
      <trkpt lat="44.86404" lon="4.1963">
        <ele>1381.07</ele>
        <time>2002-03-28T12:25:27Z</time>
      </trkpt>
      <trkpt lat="44.86408" lon="4.19627">
        <ele>1381.07</ele>
        <time>2002-03-28T12:25:31Z</time>
      </trkpt>
      <trkpt lat="44.86411" lon="4.19626">
        <ele>1381.55</ele>
        <time>2002-03-28T12:25:33Z</time>
      </trkpt>
      <trkpt lat="44.86426" lon="4.19614">
        <ele>1381.07</ele>
        <time>2002-03-28T12:25:46Z</time>
      </trkpt>
      <trkpt lat="44.86442" lon="4.19604">
        <ele>1381.55</ele>
        <time>2002-03-28T12:25:59Z</time>
      </trkpt>
      <trkpt lat="44.86456" lon="4.19593">
        <ele>1382.51</ele>
        <time>2002-03-28T12:26:11Z</time>
      </trkpt>
      <trkpt lat="44.86472" lon="4.1958">
        <ele>1381.55</ele>
        <time>2002-03-28T12:26:24Z</time>
      </trkpt>
      <trkpt lat="44.86489" lon="4.19566">
        <ele>1382.03</ele>
        <time>2002-03-28T12:26:39Z</time>
      </trkpt>
      <trkpt lat="44.86506" lon="4.19551">
        <ele>1382.03</ele>
        <time>2002-03-28T12:26:54Z</time>
      </trkpt>
      <trkpt lat="44.86522" lon="4.19538">
        <ele>1382.51</ele>
        <time>2002-03-28T12:27:07Z</time>
      </trkpt>
      <trkpt lat="44.8654" lon="4.19524">
        <ele>1383.47</ele>
        <time>2002-03-28T12:27:22Z</time>
      </trkpt>
      <trkpt lat="44.86558" lon="4.19511">
        <ele>1383.96</ele>
        <time>2002-03-28T12:27:36Z</time>
      </trkpt>
      <trkpt lat="44.86573" lon="4.19496">
        <ele>1383.47</ele>
        <time>2002-03-28T12:27:49Z</time>
      </trkpt>
      <trkpt lat="44.86581" lon="4.19486">
        <ele>1383.47</ele>
        <time>2002-03-28T12:27:57Z</time>
      </trkpt>
      <trkpt lat="44.86586" lon="4.19479">
        <ele>1383.96</ele>
        <time>2002-03-28T12:28:02Z</time>
      </trkpt>
      <trkpt lat="44.86592" lon="4.19463">
        <ele>1384.44</ele>
        <time>2002-03-28T12:28:13Z</time>
      </trkpt>
      <trkpt lat="44.86592" lon="4.19463">
        <ele>1385.4</ele>
        <time>2002-03-28T12:29:11Z</time>
      </trkpt>
      <trkpt lat="44.86594" lon="4.1946">
        <ele>1386.84</ele>
        <time>2002-03-28T12:30:57Z</time>
      </trkpt>
      <trkpt lat="44.86596" lon="4.19456">
        <ele>1385.88</ele>
        <time>2002-03-28T12:31:01Z</time>
      </trkpt>
      <trkpt lat="44.86597" lon="4.19453">
        <ele>1386.36</ele>
        <time>2002-03-28T12:31:03Z</time>
      </trkpt>
      <trkpt lat="44.86604" lon="4.1944">
        <ele>1386.84</ele>
        <time>2002-03-28T12:31:13Z</time>
      </trkpt>
      <trkpt lat="44.86609" lon="4.19426">
        <ele>1387.32</ele>
        <time>2002-03-28T12:31:22Z</time>
      </trkpt>
      <trkpt lat="44.86612" lon="4.19417">
        <ele>1388.28</ele>
        <time>2002-03-28T12:31:29Z</time>
      </trkpt>
      <trkpt lat="44.86616" lon="4.19408">
        <ele>1388.76</ele>
        <time>2002-03-28T12:31:36Z</time>
      </trkpt>
      <trkpt lat="44.86621" lon="4.19391">
        <ele>1390.68</ele>
        <time>2002-03-28T12:31:48Z</time>
      </trkpt>
      <trkpt lat="44.86622" lon="4.1939">
        <ele>1390.2</ele>
        <time>2002-03-28T12:31:49Z</time>
      </trkpt>
      <trkpt lat="44.8663" lon="4.19375">
        <ele>1391.17</ele>
        <time>2002-03-28T12:32:01Z</time>
      </trkpt>
      <trkpt lat="44.86632" lon="4.19372">
        <ele>1390.68</ele>
        <time>2002-03-28T12:32:04Z</time>
      </trkpt>
      <trkpt lat="44.86634" lon="4.19368">
        <ele>1392.61</ele>
        <time>2002-03-28T12:32:07Z</time>
      </trkpt>
      <trkpt lat="44.86641" lon="4.1936">
        <ele>1393.09</ele>
        <time>2002-03-28T12:32:17Z</time>
      </trkpt>
      <trkpt lat="44.86653" lon="4.19352">
        <ele>1395.97</ele>
        <time>2002-03-28T12:32:31Z</time>
      </trkpt>
      <trkpt lat="44.86655" lon="4.19351">
        <ele>1395.49</ele>
        <time>2002-03-28T12:32:36Z</time>
      </trkpt>
      <trkpt lat="44.86657" lon="4.19347">
        <ele>1397.41</ele>
        <time>2002-03-28T12:32:43Z</time>
      </trkpt>
      <trkpt lat="44.86661" lon="4.1934">
        <ele>1399.34</ele>
        <time>2002-03-28T12:32:55Z</time>
      </trkpt>
      <trkpt lat="44.86662" lon="4.19332">
        <ele>1400.3</ele>
        <time>2002-03-28T12:33:03Z</time>
      </trkpt>
      <trkpt lat="44.86671" lon="4.19323">
        <ele>1402.22</ele>
        <time>2002-03-28T12:33:13Z</time>
      </trkpt>
      <trkpt lat="44.86677" lon="4.19313">
        <ele>1403.18</ele>
        <time>2002-03-28T12:33:23Z</time>
      </trkpt>
      <trkpt lat="44.86679" lon="4.19302">
        <ele>1403.66</ele>
        <time>2002-03-28T12:33:32Z</time>
      </trkpt>
      <trkpt lat="44.86679" lon="4.193">
        <ele>1404.62</ele>
        <time>2002-03-28T12:33:38Z</time>
      </trkpt>
      <trkpt lat="44.86684" lon="4.1929">
        <ele>1407.03</ele>
        <time>2002-03-28T12:33:49Z</time>
      </trkpt>
      <trkpt lat="44.86685" lon="4.19288">
        <ele>1407.99</ele>
        <time>2002-03-28T12:33:51Z</time>
      </trkpt>
      <trkpt lat="44.86689" lon="4.1928">
        <ele>1409.43</ele>
        <time>2002-03-28T12:33:59Z</time>
      </trkpt>
      <trkpt lat="44.8669" lon="4.19279">
        <ele>1409.91</ele>
        <time>2002-03-28T12:34:00Z</time>
      </trkpt>
      <trkpt lat="44.86694" lon="4.19274">
        <ele>1410.87</ele>
        <time>2002-03-28T12:34:07Z</time>
      </trkpt>
      <trkpt lat="44.86696" lon="4.1927">
        <ele>1410.87</ele>
        <time>2002-03-28T12:34:11Z</time>
      </trkpt>
      <trkpt lat="44.86697" lon="4.19256">
        <ele>1412.31</ele>
        <time>2002-03-28T12:34:21Z</time>
      </trkpt>
      <trkpt lat="44.86697" lon="4.19253">
        <ele>1412.79</ele>
        <time>2002-03-28T12:34:23Z</time>
      </trkpt>
      <trkpt lat="44.86704" lon="4.19244">
        <ele>1414.24</ele>
        <time>2002-03-28T12:34:32Z</time>
      </trkpt>
      <trkpt lat="44.86706" lon="4.19233">
        <ele>1415.68</ele>
        <time>2002-03-28T12:34:42Z</time>
      </trkpt>
      <trkpt lat="44.86708" lon="4.19225">
        <ele>1416.64</ele>
        <time>2002-03-28T12:34:50Z</time>
      </trkpt>
      <trkpt lat="44.86707" lon="4.19214">
        <ele>1416.64</ele>
        <time>2002-03-28T12:37:22Z</time>
      </trkpt>
      <trkpt lat="44.86711" lon="4.19206">
        <ele>1417.6</ele>
        <time>2002-03-28T12:37:39Z</time>
      </trkpt>
      <trkpt lat="44.86712" lon="4.19201">
        <ele>1418.56</ele>
        <time>2002-03-28T12:37:43Z</time>
      </trkpt>
      <trkpt lat="44.86715" lon="4.19195">
        <ele>1418.56</ele>
        <time>2002-03-28T12:37:48Z</time>
      </trkpt>
      <trkpt lat="44.86719" lon="4.1918">
        <ele>1420.49</ele>
        <time>2002-03-28T12:37:57Z</time>
      </trkpt>
      <trkpt lat="44.86726" lon="4.19163">
        <ele>1422.41</ele>
        <time>2002-03-28T12:38:08Z</time>
      </trkpt>
      <trkpt lat="44.86729" lon="4.19158">
        <ele>1422.89</ele>
        <time>2002-03-28T12:38:12Z</time>
      </trkpt>
      <trkpt lat="44.86731" lon="4.19153">
        <ele>1423.85</ele>
        <time>2002-03-28T12:38:16Z</time>
      </trkpt>
      <trkpt lat="44.86733" lon="4.19148">
        <ele>1424.33</ele>
        <time>2002-03-28T12:38:20Z</time>
      </trkpt>
      <trkpt lat="44.86735" lon="4.19144">
        <ele>1425.29</ele>
        <time>2002-03-28T12:38:23Z</time>
      </trkpt>
      <trkpt lat="44.86737" lon="4.19134">
        <ele>1426.25</ele>
        <time>2002-03-28T12:38:30Z</time>
      </trkpt>
      <trkpt lat="44.86741" lon="4.19126">
        <ele>1427.21</ele>
        <time>2002-03-28T12:38:36Z</time>
      </trkpt>
      <trkpt lat="44.86747" lon="4.19115">
        <ele>1428.66</ele>
        <time>2002-03-28T12:38:44Z</time>
      </trkpt>
      <trkpt lat="44.86747" lon="4.1911">
        <ele>1429.62</ele>
        <time>2002-03-28T12:38:48Z</time>
      </trkpt>
      <trkpt lat="44.86749" lon="4.19105">
        <ele>1430.1</ele>
        <time>2002-03-28T12:38:52Z</time>
      </trkpt>
      <trkpt lat="44.86754" lon="4.19094">
        <ele>1431.54</ele>
        <time>2002-03-28T12:39:01Z</time>
      </trkpt>
      <trkpt lat="44.86756" lon="4.19083">
        <ele>1432.98</ele>
        <time>2002-03-28T12:39:10Z</time>
      </trkpt>
      <trkpt lat="44.86758" lon="4.19075">
        <ele>1433.94</ele>
        <time>2002-03-28T12:39:22Z</time>
      </trkpt>
      <trkpt lat="44.86758" lon="4.1907">
        <ele>1433.94</ele>
        <time>2002-03-28T12:39:49Z</time>
      </trkpt>
      <trkpt lat="44.86761" lon="4.19062">
        <ele>1434.91</ele>
        <time>2002-03-28T12:39:55Z</time>
      </trkpt>
      <trkpt lat="44.86764" lon="4.19058">
        <ele>1436.35</ele>
        <time>2002-03-28T12:40:00Z</time>
      </trkpt>
      <trkpt lat="44.86768" lon="4.1905">
        <ele>1437.31</ele>
        <time>2002-03-28T12:40:09Z</time>
      </trkpt>
      <trkpt lat="44.8677" lon="4.19048">
        <ele>1437.31</ele>
        <time>2002-03-28T12:40:13Z</time>
      </trkpt>
      <trkpt lat="44.86775" lon="4.19035">
        <ele>1439.23</ele>
        <time>2002-03-28T12:40:23Z</time>
      </trkpt>
      <trkpt lat="44.86775" lon="4.19034">
        <ele>1439.71</ele>
        <time>2002-03-28T12:40:24Z</time>
      </trkpt>
      <trkpt lat="44.86777" lon="4.19025">
        <ele>1441.15</ele>
        <time>2002-03-28T12:40:31Z</time>
      </trkpt>
      <trkpt lat="44.86779" lon="4.19022">
        <ele>1441.63</ele>
        <time>2002-03-28T12:40:33Z</time>
      </trkpt>
      <trkpt lat="44.8678" lon="4.19018">
        <ele>1442.11</ele>
        <time>2002-03-28T12:40:36Z</time>
      </trkpt>
      <trkpt lat="44.86784" lon="4.19013">
        <ele>1443.08</ele>
        <time>2002-03-28T12:40:41Z</time>
      </trkpt>
      <trkpt lat="44.86787" lon="4.19009">
        <ele>1443.08</ele>
        <time>2002-03-28T12:40:44Z</time>
      </trkpt>
      <trkpt lat="44.86791" lon="4.19004">
        <ele>1444.52</ele>
        <time>2002-03-28T12:40:50Z</time>
      </trkpt>
      <trkpt lat="44.86793" lon="4.18998">
        <ele>1445.48</ele>
        <time>2002-03-28T12:40:54Z</time>
      </trkpt>
      <trkpt lat="44.86792" lon="4.18994">
        <ele>1445.96</ele>
        <time>2002-03-28T12:40:57Z</time>
      </trkpt>
      <trkpt lat="44.86795" lon="4.18989">
        <ele>1446.44</ele>
        <time>2002-03-28T12:41:01Z</time>
      </trkpt>
      <trkpt lat="44.86795" lon="4.18985">
        <ele>1446.92</ele>
        <time>2002-03-28T12:41:04Z</time>
      </trkpt>
      <trkpt lat="44.86795" lon="4.18983">
        <ele>1447.4</ele>
        <time>2002-03-28T12:41:06Z</time>
      </trkpt>
      <trkpt lat="44.86803" lon="4.18969">
        <ele>1448.84</ele>
        <time>2002-03-28T12:41:17Z</time>
      </trkpt>
      <trkpt lat="44.86809" lon="4.18958">
        <ele>1450.29</ele>
        <time>2002-03-28T12:41:29Z</time>
      </trkpt>
      <trkpt lat="44.86813" lon="4.18948">
        <ele>1451.25</ele>
        <time>2002-03-28T12:41:37Z</time>
      </trkpt>
      <trkpt lat="44.86813" lon="4.18945">
        <ele>1451.73</ele>
        <time>2002-03-28T12:41:39Z</time>
      </trkpt>
      <trkpt lat="44.86816" lon="4.18934">
        <ele>1452.69</ele>
        <time>2002-03-28T12:41:48Z</time>
      </trkpt>
      <trkpt lat="44.86818" lon="4.18928">
        <ele>1453.17</ele>
        <time>2002-03-28T12:41:52Z</time>
      </trkpt>
      <trkpt lat="44.86821" lon="4.18921">
        <ele>1453.65</ele>
        <time>2002-03-28T12:41:58Z</time>
      </trkpt>
      <trkpt lat="44.86822" lon="4.18916">
        <ele>1453.65</ele>
        <time>2002-03-28T12:42:01Z</time>
      </trkpt>
      <trkpt lat="44.86824" lon="4.18913">
        <ele>1454.13</ele>
        <time>2002-03-28T12:42:03Z</time>
      </trkpt>
      <trkpt lat="44.86827" lon="4.18905">
        <ele>1454.61</ele>
        <time>2002-03-28T12:42:08Z</time>
      </trkpt>
      <trkpt lat="44.8683" lon="4.18899">
        <ele>1454.61</ele>
        <time>2002-03-28T12:42:13Z</time>
      </trkpt>
      <trkpt lat="44.8683" lon="4.18896">
        <ele>1455.57</ele>
        <time>2002-03-28T12:42:15Z</time>
      </trkpt>
      <trkpt lat="44.86832" lon="4.1889">
        <ele>1455.57</ele>
        <time>2002-03-28T12:42:19Z</time>
      </trkpt>
      <trkpt lat="44.86833" lon="4.18887">
        <ele>1455.57</ele>
        <time>2002-03-28T12:42:21Z</time>
      </trkpt>
      <trkpt lat="44.86835" lon="4.18881">
        <ele>1456.05</ele>
        <time>2002-03-28T12:42:25Z</time>
      </trkpt>
      <trkpt lat="44.86837" lon="4.18877">
        <ele>1456.53</ele>
        <time>2002-03-28T12:42:28Z</time>
      </trkpt>
      <trkpt lat="44.86844" lon="4.1887">
        <ele>1457.02</ele>
        <time>2002-03-28T12:42:34Z</time>
      </trkpt>
      <trkpt lat="44.8685" lon="4.18861">
        <ele>1456.53</ele>
        <time>2002-03-28T12:42:40Z</time>
      </trkpt>
      <trkpt lat="44.86853" lon="4.18854">
        <ele>1457.02</ele>
        <time>2002-03-28T12:42:44Z</time>
      </trkpt>
      <trkpt lat="44.86858" lon="4.18836">
        <ele>1457.98</ele>
        <time>2002-03-28T12:42:55Z</time>
      </trkpt>
      <trkpt lat="44.86859" lon="4.18833">
        <ele>1457.98</ele>
        <time>2002-03-28T12:42:57Z</time>
      </trkpt>
      <trkpt lat="44.8686" lon="4.18823">
        <ele>1457.5</ele>
        <time>2002-03-28T12:43:03Z</time>
      </trkpt>
      <trkpt lat="44.86866" lon="4.18811">
        <ele>1457.02</ele>
        <time>2002-03-28T12:43:11Z</time>
      </trkpt>
      <trkpt lat="44.86869" lon="4.18801">
        <ele>1456.05</ele>
        <time>2002-03-28T12:43:18Z</time>
      </trkpt>
      <trkpt lat="44.8687" lon="4.1879">
        <ele>1456.05</ele>
        <time>2002-03-28T12:43:25Z</time>
      </trkpt>
      <trkpt lat="44.86871" lon="4.18786">
        <ele>1456.53</ele>
        <time>2002-03-28T12:43:47Z</time>
      </trkpt>
      <trkpt lat="44.86875" lon="4.18771">
        <ele>1456.05</ele>
        <time>2002-03-28T12:45:55Z</time>
      </trkpt>
      <trkpt lat="44.86879" lon="4.18756">
        <ele>1454.13</ele>
        <time>2002-03-28T12:46:06Z</time>
      </trkpt>
      <trkpt lat="44.86884" lon="4.18743">
        <ele>1452.69</ele>
        <time>2002-03-28T12:46:15Z</time>
      </trkpt>
      <trkpt lat="44.86891" lon="4.18732">
        <ele>1451.25</ele>
        <time>2002-03-28T12:46:26Z</time>
      </trkpt>
      <trkpt lat="44.86893" lon="4.18729">
        <ele>1450.77</ele>
        <time>2002-03-28T12:46:29Z</time>
      </trkpt>
      <trkpt lat="44.86902" lon="4.1871">
        <ele>1447.88</ele>
        <time>2002-03-28T12:46:41Z</time>
      </trkpt>
      <trkpt lat="44.86912" lon="4.18696">
        <ele>1445.96</ele>
        <time>2002-03-28T12:46:52Z</time>
      </trkpt>
      <trkpt lat="44.86914" lon="4.18693">
        <ele>1445.48</ele>
        <time>2002-03-28T12:46:54Z</time>
      </trkpt>
      <trkpt lat="44.8692" lon="4.18677">
        <ele>1444.04</ele>
        <time>2002-03-28T12:47:04Z</time>
      </trkpt>
      <trkpt lat="44.86927" lon="4.18662">
        <ele>1441.63</ele>
        <time>2002-03-28T12:47:14Z</time>
      </trkpt>
      <trkpt lat="44.8693" lon="4.18651">
        <ele>1441.63</ele>
        <time>2002-03-28T12:47:25Z</time>
      </trkpt>
      <trkpt lat="44.86935" lon="4.18646">
        <ele>1440.67</ele>
        <time>2002-03-28T12:49:17Z</time>
      </trkpt>
      <trkpt lat="44.86947" lon="4.18647">
        <ele>1440.19</ele>
        <time>2002-03-28T12:49:35Z</time>
      </trkpt>
      <trkpt lat="44.86957" lon="4.1865">
        <ele>1440.19</ele>
        <time>2002-03-28T12:49:51Z</time>
      </trkpt>
      <trkpt lat="44.86967" lon="4.18654">
        <ele>1441.15</ele>
        <time>2002-03-28T12:50:01Z</time>
      </trkpt>
      <trkpt lat="44.8698" lon="4.18664">
        <ele>1440.67</ele>
        <time>2002-03-28T12:50:14Z</time>
      </trkpt>
      <trkpt lat="44.86996" lon="4.18676">
        <ele>1440.19</ele>
        <time>2002-03-28T12:50:28Z</time>
      </trkpt>
      <trkpt lat="44.86999" lon="4.1868">
        <ele>1439.71</ele>
        <time>2002-03-28T12:50:31Z</time>
      </trkpt>
      <trkpt lat="44.87013" lon="4.18688">
        <ele>1439.23</ele>
        <time>2002-03-28T12:50:42Z</time>
      </trkpt>
      <trkpt lat="44.8702" lon="4.18695">
        <ele>1438.75</ele>
        <time>2002-03-28T12:50:48Z</time>
      </trkpt>
      <trkpt lat="44.8703" lon="4.18706">
        <ele>1438.27</ele>
        <time>2002-03-28T12:50:57Z</time>
      </trkpt>
      <trkpt lat="44.87043" lon="4.18714">
        <ele>1437.31</ele>
        <time>2002-03-28T12:51:06Z</time>
      </trkpt>
      <trkpt lat="44.87055" lon="4.1873">
        <ele>1435.87</ele>
        <time>2002-03-28T12:51:20Z</time>
      </trkpt>
      <trkpt lat="44.87069" lon="4.18735">
        <ele>1434.42</ele>
        <time>2002-03-28T12:51:30Z</time>
      </trkpt>
      <trkpt lat="44.87071" lon="4.18735">
        <ele>1432.98</ele>
        <time>2002-03-28T12:51:32Z</time>
      </trkpt>
      <trkpt lat="44.87078" lon="4.18735">
        <ele>1432.02</ele>
        <time>2002-03-28T12:51:37Z</time>
      </trkpt>
      <trkpt lat="44.87084" lon="4.18737">
        <ele>1432.02</ele>
        <time>2002-03-28T12:51:41Z</time>
      </trkpt>
      <trkpt lat="44.87099" lon="4.18744">
        <ele>1430.1</ele>
        <time>2002-03-28T12:51:54Z</time>
      </trkpt>
      <trkpt lat="44.871" lon="4.18748">
        <ele>1429.14</ele>
        <time>2002-03-28T12:52:03Z</time>
      </trkpt>
      <trkpt lat="44.871" lon="4.18749">
        <ele>1428.66</ele>
        <time>2002-03-28T12:52:05Z</time>
      </trkpt>
      <trkpt lat="44.87107" lon="4.1875">
        <ele>1427.7</ele>
        <time>2002-03-28T12:52:11Z</time>
      </trkpt>
      <trkpt lat="44.8711" lon="4.18754">
        <ele>1427.7</ele>
        <time>2002-03-28T12:52:14Z</time>
      </trkpt>
      <trkpt lat="44.87121" lon="4.18761">
        <ele>1426.73</ele>
        <time>2002-03-28T12:52:23Z</time>
      </trkpt>
      <trkpt lat="44.87147" lon="4.18768">
        <ele>1425.29</ele>
        <time>2002-03-28T12:52:36Z</time>
      </trkpt>
      <trkpt lat="44.87165" lon="4.18768">
        <ele>1424.33</ele>
        <time>2002-03-28T12:52:47Z</time>
      </trkpt>
      <trkpt lat="44.87187" lon="4.18767">
        <ele>1422.89</ele>
        <time>2002-03-28T12:53:04Z</time>
      </trkpt>
      <trkpt lat="44.87199" lon="4.18769">
        <ele>1423.37</ele>
        <time>2002-03-28T12:53:11Z</time>
      </trkpt>
      <trkpt lat="44.872" lon="4.1877">
        <ele>1423.37</ele>
        <time>2002-03-28T12:53:12Z</time>
      </trkpt>
      <trkpt lat="44.87216" lon="4.18774">
        <ele>1422.41</ele>
        <time>2002-03-28T12:53:25Z</time>
      </trkpt>
      <trkpt lat="44.87225" lon="4.18775">
        <ele>1421.93</ele>
        <time>2002-03-28T12:53:30Z</time>
      </trkpt>
      <trkpt lat="44.87239" lon="4.18776">
        <ele>1421.93</ele>
        <time>2002-03-28T12:53:39Z</time>
      </trkpt>
      <trkpt lat="44.87253" lon="4.18767">
        <ele>1421.45</ele>
        <time>2002-03-28T12:53:50Z</time>
      </trkpt>
      <trkpt lat="44.87263" lon="4.18762">
        <ele>1420.97</ele>
        <time>2002-03-28T12:53:57Z</time>
      </trkpt>
      <trkpt lat="44.8728" lon="4.18753">
        <ele>1419.04</ele>
        <time>2002-03-28T12:54:07Z</time>
      </trkpt>
      <trkpt lat="44.87287" lon="4.18747">
        <ele>1418.56</ele>
        <time>2002-03-28T12:54:12Z</time>
      </trkpt>
      <trkpt lat="44.87293" lon="4.1874">
        <ele>1417.6</ele>
        <time>2002-03-28T12:54:17Z</time>
      </trkpt>
      <trkpt lat="44.87299" lon="4.18733">
        <ele>1417.12</ele>
        <time>2002-03-28T12:54:21Z</time>
      </trkpt>
      <trkpt lat="44.87305" lon="4.1872">
        <ele>1415.68</ele>
        <time>2002-03-28T12:54:27Z</time>
      </trkpt>
      <trkpt lat="44.87313" lon="4.18708">
        <ele>1414.72</ele>
        <time>2002-03-28T12:54:35Z</time>
      </trkpt>
      <trkpt lat="44.87322" lon="4.18698">
        <ele>1413.76</ele>
        <time>2002-03-28T12:54:45Z</time>
      </trkpt>
      <trkpt lat="44.87333" lon="4.18689">
        <ele>1413.28</ele>
        <time>2002-03-28T12:54:54Z</time>
      </trkpt>
      <trkpt lat="44.87346" lon="4.1868">
        <ele>1412.31</ele>
        <time>2002-03-28T12:55:05Z</time>
      </trkpt>
      <trkpt lat="44.87351" lon="4.18674">
        <ele>1412.31</ele>
        <time>2002-03-28T12:55:09Z</time>
      </trkpt>
      <trkpt lat="44.87361" lon="4.18666">
        <ele>1410.39</ele>
        <time>2002-03-28T12:55:17Z</time>
      </trkpt>
      <trkpt lat="44.87363" lon="4.18664">
        <ele>1410.39</ele>
        <time>2002-03-28T12:55:18Z</time>
      </trkpt>
      <trkpt lat="44.87367" lon="4.18659">
        <ele>1409.43</ele>
        <time>2002-03-28T12:55:23Z</time>
      </trkpt>
      <trkpt lat="44.87375" lon="4.18652">
        <ele>1407.99</ele>
        <time>2002-03-28T12:55:33Z</time>
      </trkpt>
      <trkpt lat="44.87381" lon="4.18647">
        <ele>1405.58</ele>
        <time>2002-03-28T12:55:39Z</time>
      </trkpt>
      <trkpt lat="44.87382" lon="4.18645">
        <ele>1404.14</ele>
        <time>2002-03-28T12:55:44Z</time>
      </trkpt>
      <trkpt lat="44.87386" lon="4.18644">
        <ele>1403.66</ele>
        <time>2002-03-28T12:55:49Z</time>
      </trkpt>
      <trkpt lat="44.87388" lon="4.18644">
        <ele>1403.66</ele>
        <time>2002-03-28T12:55:50Z</time>
      </trkpt>
      <trkpt lat="44.87398" lon="4.1863">
        <ele>1402.22</ele>
        <time>2002-03-28T12:55:59Z</time>
      </trkpt>
      <trkpt lat="44.87399" lon="4.18628">
        <ele>1402.22</ele>
        <time>2002-03-28T12:56:00Z</time>
      </trkpt>
      <trkpt lat="44.87401" lon="4.18626">
        <ele>1401.26</ele>
        <time>2002-03-28T12:56:02Z</time>
      </trkpt>
      <trkpt lat="44.87408" lon="4.18624">
        <ele>1401.26</ele>
        <time>2002-03-28T12:56:07Z</time>
      </trkpt>
      <trkpt lat="44.87414" lon="4.18625">
        <ele>1400.3</ele>
        <time>2002-03-28T12:56:12Z</time>
      </trkpt>
      <trkpt lat="44.8743" lon="4.18623">
        <ele>1399.82</ele>
        <time>2002-03-28T12:56:22Z</time>
      </trkpt>
      <trkpt lat="44.87436" lon="4.18621">
        <ele>1398.37</ele>
        <time>2002-03-28T12:56:26Z</time>
      </trkpt>
      <trkpt lat="44.87443" lon="4.18617">
        <ele>1397.89</ele>
        <time>2002-03-28T12:56:30Z</time>
      </trkpt>
      <trkpt lat="44.8745" lon="4.18613">
        <ele>1397.89</ele>
        <time>2002-03-28T12:56:35Z</time>
      </trkpt>
      <trkpt lat="44.87464" lon="4.18609">
        <ele>1395.97</ele>
        <time>2002-03-28T12:56:46Z</time>
      </trkpt>
      <trkpt lat="44.87478" lon="4.18602">
        <ele>1393.09</ele>
        <time>2002-03-28T12:56:57Z</time>
      </trkpt>
      <trkpt lat="44.87484" lon="4.18602">
        <ele>1392.61</ele>
        <time>2002-03-28T12:57:02Z</time>
      </trkpt>
      <trkpt lat="44.87491" lon="4.186">
        <ele>1390.68</ele>
        <time>2002-03-28T12:57:13Z</time>
      </trkpt>
      <trkpt lat="44.87506" lon="4.186">
        <ele>1389.24</ele>
        <time>2002-03-28T12:57:23Z</time>
      </trkpt>
      <trkpt lat="44.87514" lon="4.18601">
        <ele>1388.76</ele>
        <time>2002-03-28T12:57:30Z</time>
      </trkpt>
      <trkpt lat="44.87521" lon="4.18602">
        <ele>1388.28</ele>
        <time>2002-03-28T12:57:38Z</time>
      </trkpt>
      <trkpt lat="44.87535" lon="4.18604">
        <ele>1385.4</ele>
        <time>2002-03-28T12:57:50Z</time>
      </trkpt>
      <trkpt lat="44.87537" lon="4.18604">
        <ele>1385.88</ele>
        <time>2002-03-28T12:57:51Z</time>
      </trkpt>
      <trkpt lat="44.87544" lon="4.186">
        <ele>1385.4</ele>
        <time>2002-03-28T12:57:56Z</time>
      </trkpt>
      <trkpt lat="44.87562" lon="4.18589">
        <ele>1382.99</ele>
        <time>2002-03-28T12:58:08Z</time>
      </trkpt>
      <trkpt lat="44.87564" lon="4.18588">
        <ele>1382.99</ele>
        <time>2002-03-28T12:58:09Z</time>
      </trkpt>
      <trkpt lat="44.87579" lon="4.18581">
        <ele>1382.51</ele>
        <time>2002-03-28T12:58:21Z</time>
      </trkpt>
      <trkpt lat="44.87586" lon="4.18578">
        <ele>1381.07</ele>
        <time>2002-03-28T12:58:26Z</time>
      </trkpt>
      <trkpt lat="44.87591" lon="4.18575">
        <ele>1381.07</ele>
        <time>2002-03-28T12:58:30Z</time>
      </trkpt>
      <trkpt lat="44.87595" lon="4.18574">
        <ele>1380.59</ele>
        <time>2002-03-28T12:58:32Z</time>
      </trkpt>
      <trkpt lat="44.87604" lon="4.18568">
        <ele>1379.15</ele>
        <time>2002-03-28T12:58:39Z</time>
      </trkpt>
      <trkpt lat="44.87607" lon="4.18564">
        <ele>1379.15</ele>
        <time>2002-03-28T12:58:42Z</time>
      </trkpt>
      <trkpt lat="44.87621" lon="4.18556">
        <ele>1377.71</ele>
        <time>2002-03-28T12:58:53Z</time>
      </trkpt>
      <trkpt lat="44.87626" lon="4.1855">
        <ele>1377.71</ele>
        <time>2002-03-28T12:58:58Z</time>
      </trkpt>
      <trkpt lat="44.8763" lon="4.18548">
        <ele>1376.26</ele>
        <time>2002-03-28T12:59:01Z</time>
      </trkpt>
      <trkpt lat="44.87635" lon="4.18545">
        <ele>1375.3</ele>
        <time>2002-03-28T12:59:07Z</time>
      </trkpt>
      <trkpt lat="44.87636" lon="4.18543">
        <ele>1374.34</ele>
        <time>2002-03-28T12:59:09Z</time>
      </trkpt>
      <trkpt lat="44.87642" lon="4.18538">
        <ele>1373.86</ele>
        <time>2002-03-28T12:59:14Z</time>
      </trkpt>
      <trkpt lat="44.8765" lon="4.1853">
        <ele>1372.42</ele>
        <time>2002-03-28T12:59:22Z</time>
      </trkpt>
      <trkpt lat="44.87652" lon="4.18527">
        <ele>1371.94</ele>
        <time>2002-03-28T12:59:25Z</time>
      </trkpt>
      <trkpt lat="44.87659" lon="4.18523">
        <ele>1371.46</ele>
        <time>2002-03-28T12:59:30Z</time>
      </trkpt>
      <trkpt lat="44.87673" lon="4.18505">
        <ele>1369.54</ele>
        <time>2002-03-28T12:59:41Z</time>
      </trkpt>
      <trkpt lat="44.87687" lon="4.18494">
        <ele>1369.05</ele>
        <time>2002-03-28T12:59:52Z</time>
      </trkpt>
      <trkpt lat="44.87692" lon="4.18487">
        <ele>1368.57</ele>
        <time>2002-03-28T12:59:56Z</time>
      </trkpt>
      <trkpt lat="44.87705" lon="4.18479">
        <ele>1368.09</ele>
        <time>2002-03-28T13:00:06Z</time>
      </trkpt>
      <trkpt lat="44.8772" lon="4.1847">
        <ele>1367.61</ele>
        <time>2002-03-28T13:00:17Z</time>
      </trkpt>
      <trkpt lat="44.87724" lon="4.18467">
        <ele>1367.61</ele>
        <time>2002-03-28T13:00:21Z</time>
      </trkpt>
      <trkpt lat="44.87733" lon="4.18461">
        <ele>1367.13</ele>
        <time>2002-03-28T13:00:29Z</time>
      </trkpt>
      <trkpt lat="44.87744" lon="4.18449">
        <ele>1367.13</ele>
        <time>2002-03-28T13:00:40Z</time>
      </trkpt>
      <trkpt lat="44.87756" lon="4.18437">
        <ele>1367.13</ele>
        <time>2002-03-28T13:00:51Z</time>
      </trkpt>
      <trkpt lat="44.87764" lon="4.18427">
        <ele>1367.61</ele>
        <time>2002-03-28T13:01:01Z</time>
      </trkpt>
      <trkpt lat="44.87771" lon="4.18419">
        <ele>1367.13</ele>
        <time>2002-03-28T13:01:11Z</time>
      </trkpt>
      <trkpt lat="44.87771" lon="4.18419">
        <ele>1367.61</ele>
        <time>2002-03-28T13:01:50Z</time>
      </trkpt>
      <trkpt lat="44.87783" lon="4.18413">
        <ele>1368.09</ele>
        <time>2002-03-28T13:02:01Z</time>
      </trkpt>
      <trkpt lat="44.87784" lon="4.18412">
        <ele>1367.61</ele>
        <time>2002-03-28T13:02:31Z</time>
      </trkpt>
      <trkpt lat="44.87786" lon="4.18411">
        <ele>1368.57</ele>
        <time>2002-03-28T13:03:56Z</time>
      </trkpt>
      <trkpt lat="44.8779" lon="4.18409">
        <ele>1369.54</ele>
        <time>2002-03-28T13:04:00Z</time>
      </trkpt>
      <trkpt lat="44.87797" lon="4.18404">
        <ele>1369.54</ele>
        <time>2002-03-28T13:04:05Z</time>
      </trkpt>
      <trkpt lat="44.87809" lon="4.18389">
        <ele>1370.5</ele>
        <time>2002-03-28T13:04:18Z</time>
      </trkpt>
      <trkpt lat="44.87812" lon="4.18384">
        <ele>1370.98</ele>
        <time>2002-03-28T13:04:22Z</time>
      </trkpt>
      <trkpt lat="44.87821" lon="4.18367">
        <ele>1371.94</ele>
        <time>2002-03-28T13:04:34Z</time>
      </trkpt>
      <trkpt lat="44.87826" lon="4.18357">
        <ele>1372.42</ele>
        <time>2002-03-28T13:04:41Z</time>
      </trkpt>
      <trkpt lat="44.87829" lon="4.18348">
        <ele>1372.42</ele>
        <time>2002-03-28T13:04:47Z</time>
      </trkpt>
      <trkpt lat="44.87831" lon="4.18334">
        <ele>1373.38</ele>
        <time>2002-03-28T13:04:55Z</time>
      </trkpt>
      <trkpt lat="44.87834" lon="4.18325">
        <ele>1374.34</ele>
        <time>2002-03-28T13:05:00Z</time>
      </trkpt>
      <trkpt lat="44.87838" lon="4.18307">
        <ele>1375.3</ele>
        <time>2002-03-28T13:05:10Z</time>
      </trkpt>
      <trkpt lat="44.8784" lon="4.18296">
        <ele>1376.26</ele>
        <time>2002-03-28T13:05:17Z</time>
      </trkpt>
      <trkpt lat="44.87844" lon="4.1829">
        <ele>1376.75</ele>
        <time>2002-03-28T13:05:30Z</time>
      </trkpt>
      <trkpt lat="44.87856" lon="4.18284">
        <ele>1377.71</ele>
        <time>2002-03-28T13:05:41Z</time>
      </trkpt>
      <trkpt lat="44.87865" lon="4.18284">
        <ele>1378.67</ele>
        <time>2002-03-28T13:05:51Z</time>
      </trkpt>
      <trkpt lat="44.87866" lon="4.18285">
        <ele>1378.67</ele>
        <time>2002-03-28T13:05:54Z</time>
      </trkpt>
      <trkpt lat="44.87873" lon="4.18287">
        <ele>1380.11</ele>
        <time>2002-03-28T13:06:01Z</time>
      </trkpt>
      <trkpt lat="44.87881" lon="4.18288">
        <ele>1381.07</ele>
        <time>2002-03-28T13:06:10Z</time>
      </trkpt>
      <trkpt lat="44.87887" lon="4.18286">
        <ele>1382.03</ele>
        <time>2002-03-28T13:07:57Z</time>
      </trkpt>
      <trkpt lat="44.8789" lon="4.1828">
        <ele>1382.99</ele>
        <time>2002-03-28T13:08:06Z</time>
      </trkpt>
      <trkpt lat="44.87888" lon="4.18264">
        <ele>1384.44</ele>
        <time>2002-03-28T13:08:19Z</time>
      </trkpt>
      <trkpt lat="44.87882" lon="4.18249">
        <ele>1385.88</ele>
        <time>2002-03-28T13:08:32Z</time>
      </trkpt>
      <trkpt lat="44.87881" lon="4.1824">
        <ele>1386.36</ele>
        <time>2002-03-28T13:08:39Z</time>
      </trkpt>
      <trkpt lat="44.87885" lon="4.18229">
        <ele>1388.28</ele>
        <time>2002-03-28T13:08:50Z</time>
      </trkpt>
      <trkpt lat="44.87888" lon="4.18232">
        <ele>1388.28</ele>
        <time>2002-03-28T13:08:57Z</time>
      </trkpt>
      <trkpt lat="44.87893" lon="4.18237">
        <ele>1389.24</ele>
        <time>2002-03-28T13:09:06Z</time>
      </trkpt>
      <trkpt lat="44.87903" lon="4.18245">
        <ele>1389.72</ele>
        <time>2002-03-28T13:09:16Z</time>
      </trkpt>
      <trkpt lat="44.87913" lon="4.18251">
        <ele>1390.68</ele>
        <time>2002-03-28T13:09:27Z</time>
      </trkpt>
      <trkpt lat="44.8792" lon="4.18258">
        <ele>1391.65</ele>
        <time>2002-03-28T13:09:37Z</time>
      </trkpt>
      <trkpt lat="44.87927" lon="4.18261">
        <ele>1391.65</ele>
        <time>2002-03-28T13:09:43Z</time>
      </trkpt>
      <trkpt lat="44.87935" lon="4.18253">
        <ele>1392.61</ele>
        <time>2002-03-28T13:09:55Z</time>
      </trkpt>
      <trkpt lat="44.87936" lon="4.18248">
        <ele>1394.05</ele>
        <time>2002-03-28T13:10:02Z</time>
      </trkpt>
      <trkpt lat="44.87934" lon="4.18241">
        <ele>1394.05</ele>
        <time>2002-03-28T13:10:14Z</time>
      </trkpt>
      <trkpt lat="44.87932" lon="4.18236">
        <ele>1395.01</ele>
        <time>2002-03-28T13:10:23Z</time>
      </trkpt>
      <trkpt lat="44.87926" lon="4.18227">
        <ele>1395.97</ele>
        <time>2002-03-28T13:10:33Z</time>
      </trkpt>
      <trkpt lat="44.87924" lon="4.18224">
        <ele>1395.97</ele>
        <time>2002-03-28T13:10:37Z</time>
      </trkpt>
      <trkpt lat="44.87921" lon="4.18215">
        <ele>1397.41</ele>
        <time>2002-03-28T13:10:50Z</time>
      </trkpt>
      <trkpt lat="44.87915" lon="4.18195">
        <ele>1398.37</ele>
        <time>2002-03-28T13:11:09Z</time>
      </trkpt>
      <trkpt lat="44.87911" lon="4.18185">
        <ele>1399.82</ele>
        <time>2002-03-28T13:11:16Z</time>
      </trkpt>
      <trkpt lat="44.87906" lon="4.18169">
        <ele>1398.86</ele>
        <time>2002-03-28T13:11:27Z</time>
      </trkpt>
      <trkpt lat="44.87899" lon="4.18145">
        <ele>1400.3</ele>
        <time>2002-03-28T13:11:40Z</time>
      </trkpt>
      <trkpt lat="44.87892" lon="4.18127">
        <ele>1400.78</ele>
        <time>2002-03-28T13:11:52Z</time>
      </trkpt>
      <trkpt lat="44.87889" lon="4.18116">
        <ele>1401.26</ele>
        <time>2002-03-28T13:11:59Z</time>
      </trkpt>
      <trkpt lat="44.87884" lon="4.18104">
        <ele>1401.26</ele>
        <time>2002-03-28T13:12:08Z</time>
      </trkpt>
      <trkpt lat="44.87876" lon="4.18086">
        <ele>1402.7</ele>
        <time>2002-03-28T13:12:18Z</time>
      </trkpt>
      <trkpt lat="44.87872" lon="4.18075">
        <ele>1403.18</ele>
        <time>2002-03-28T13:12:28Z</time>
      </trkpt>
      <trkpt lat="44.87867" lon="4.1806">
        <ele>1404.14</ele>
        <time>2002-03-28T13:12:42Z</time>
      </trkpt>
      <trkpt lat="44.87861" lon="4.18041">
        <ele>1405.1</ele>
        <time>2002-03-28T13:12:55Z</time>
      </trkpt>
      <trkpt lat="44.87854" lon="4.18026">
        <ele>1406.07</ele>
        <time>2002-03-28T13:13:06Z</time>
      </trkpt>
      <trkpt lat="44.87848" lon="4.18006">
        <ele>1407.03</ele>
        <time>2002-03-28T13:13:18Z</time>
      </trkpt>
      <trkpt lat="44.87839" lon="4.17991">
        <ele>1407.99</ele>
        <time>2002-03-28T13:13:29Z</time>
      </trkpt>
      <trkpt lat="44.87831" lon="4.17979">
        <ele>1409.43</ele>
        <time>2002-03-28T13:13:40Z</time>
      </trkpt>
      <trkpt lat="44.87825" lon="4.17965">
        <ele>1410.39</ele>
        <time>2002-03-28T13:13:50Z</time>
      </trkpt>
      <trkpt lat="44.87824" lon="4.17957">
        <ele>1410.87</ele>
        <time>2002-03-28T13:13:55Z</time>
      </trkpt>
      <trkpt lat="44.87832" lon="4.17941">
        <ele>1412.31</ele>
        <time>2002-03-28T13:14:08Z</time>
      </trkpt>
      <trkpt lat="44.87833" lon="4.17941">
        <ele>1412.79</ele>
        <time>2002-03-28T13:14:10Z</time>
      </trkpt>
      <trkpt lat="44.87841" lon="4.17944">
        <ele>1413.76</ele>
        <time>2002-03-28T13:14:20Z</time>
      </trkpt>
      <trkpt lat="44.87848" lon="4.17948">
        <ele>1415.2</ele>
        <time>2002-03-28T13:14:29Z</time>
      </trkpt>
      <trkpt lat="44.87855" lon="4.17952">
        <ele>1415.68</ele>
        <time>2002-03-28T13:14:40Z</time>
      </trkpt>
      <trkpt lat="44.87864" lon="4.17955">
        <ele>1416.64</ele>
        <time>2002-03-28T13:14:51Z</time>
      </trkpt>
      <trkpt lat="44.87875" lon="4.17959">
        <ele>1418.56</ele>
        <time>2002-03-28T13:15:01Z</time>
      </trkpt>
      <trkpt lat="44.87885" lon="4.17962">
        <ele>1418.56</ele>
        <time>2002-03-28T13:15:11Z</time>
      </trkpt>
      <trkpt lat="44.87894" lon="4.17966">
        <ele>1419.52</ele>
        <time>2002-03-28T13:15:21Z</time>
      </trkpt>
      <trkpt lat="44.8791" lon="4.17968">
        <ele>1421.45</ele>
        <time>2002-03-28T13:15:46Z</time>
      </trkpt>
      <trkpt lat="44.87925" lon="4.17969">
        <ele>1421.93</ele>
        <time>2002-03-28T13:15:58Z</time>
      </trkpt>
      <trkpt lat="44.87936" lon="4.17971">
        <ele>1422.89</ele>
        <time>2002-03-28T13:16:11Z</time>
      </trkpt>
      <trkpt lat="44.87956" lon="4.17972">
        <ele>1424.33</ele>
        <time>2002-03-28T13:16:27Z</time>
      </trkpt>
      <trkpt lat="44.8797" lon="4.17972">
        <ele>1425.77</ele>
        <time>2002-03-28T13:16:40Z</time>
      </trkpt>
      <trkpt lat="44.87978" lon="4.17966">
        <ele>1426.73</ele>
        <time>2002-03-28T13:16:48Z</time>
      </trkpt>
      <trkpt lat="44.87995" lon="4.17968">
        <ele>1427.21</ele>
        <time>2002-03-28T13:17:00Z</time>
      </trkpt>
      <trkpt lat="44.88009" lon="4.17977">
        <ele>1427.21</ele>
        <time>2002-03-28T13:18:09Z</time>
      </trkpt>
      <trkpt lat="44.8802" lon="4.17981">
        <ele>1427.7</ele>
        <time>2002-03-28T13:18:18Z</time>
      </trkpt>
      <trkpt lat="44.88035" lon="4.17985">
        <ele>1428.66</ele>
        <time>2002-03-28T13:18:30Z</time>
      </trkpt>
      <trkpt lat="44.88045" lon="4.17986">
        <ele>1430.1</ele>
        <time>2002-03-28T13:18:38Z</time>
      </trkpt>
      <trkpt lat="44.88057" lon="4.17995">
        <ele>1430.1</ele>
        <time>2002-03-28T13:18:49Z</time>
      </trkpt>
      <trkpt lat="44.8806" lon="4.17998">
        <ele>1431.06</ele>
        <time>2002-03-28T13:18:53Z</time>
      </trkpt>
      <trkpt lat="44.88068" lon="4.18005">
        <ele>1431.54</ele>
        <time>2002-03-28T13:19:01Z</time>
      </trkpt>
      <trkpt lat="44.88078" lon="4.18011">
        <ele>1432.02</ele>
        <time>2002-03-28T13:19:09Z</time>
      </trkpt>
      <trkpt lat="44.88088" lon="4.1802">
        <ele>1432.5</ele>
        <time>2002-03-28T13:19:20Z</time>
      </trkpt>
      <trkpt lat="44.88096" lon="4.18026">
        <ele>1433.46</ele>
        <time>2002-03-28T13:19:30Z</time>
      </trkpt>
      <trkpt lat="44.88107" lon="4.18029">
        <ele>1434.42</ele>
        <time>2002-03-28T13:19:42Z</time>
      </trkpt>
      <trkpt lat="44.88119" lon="4.18034">
        <ele>1435.39</ele>
        <time>2002-03-28T13:19:53Z</time>
      </trkpt>
      <trkpt lat="44.8813" lon="4.18041">
        <ele>1435.87</ele>
        <time>2002-03-28T13:20:03Z</time>
      </trkpt>
      <trkpt lat="44.88142" lon="4.1805">
        <ele>1436.35</ele>
        <time>2002-03-28T13:20:13Z</time>
      </trkpt>
      <trkpt lat="44.8815" lon="4.18056">
        <ele>1436.83</ele>
        <time>2002-03-28T13:20:21Z</time>
      </trkpt>
      <trkpt lat="44.88162" lon="4.18064">
        <ele>1437.31</ele>
        <time>2002-03-28T13:20:32Z</time>
      </trkpt>
      <trkpt lat="44.88174" lon="4.18073">
        <ele>1437.79</ele>
        <time>2002-03-28T13:20:43Z</time>
      </trkpt>
      <trkpt lat="44.88184" lon="4.18084">
        <ele>1438.75</ele>
        <time>2002-03-28T13:20:54Z</time>
      </trkpt>
      <trkpt lat="44.88195" lon="4.18093">
        <ele>1439.23</ele>
        <time>2002-03-28T13:21:08Z</time>
      </trkpt>
      <trkpt lat="44.88207" lon="4.18104">
        <ele>1440.67</ele>
        <time>2002-03-28T13:21:20Z</time>
      </trkpt>
      <trkpt lat="44.88218" lon="4.18116">
        <ele>1441.63</ele>
        <time>2002-03-28T13:21:32Z</time>
      </trkpt>
      <trkpt lat="44.88228" lon="4.18127">
        <ele>1442.11</ele>
        <time>2002-03-28T13:21:43Z</time>
      </trkpt>
      <trkpt lat="44.88237" lon="4.18132">
        <ele>1443.08</ele>
        <time>2002-03-28T13:21:50Z</time>
      </trkpt>
      <trkpt lat="44.88245" lon="4.18136">
        <ele>1443.56</ele>
        <time>2002-03-28T13:21:58Z</time>
      </trkpt>
      <trkpt lat="44.88254" lon="4.18142">
        <ele>1444.04</ele>
        <time>2002-03-28T13:22:06Z</time>
      </trkpt>
      <trkpt lat="44.88264" lon="4.18147">
        <ele>1445.48</ele>
        <time>2002-03-28T13:22:16Z</time>
      </trkpt>
      <trkpt lat="44.88277" lon="4.18159">
        <ele>1445.96</ele>
        <time>2002-03-28T13:22:42Z</time>
      </trkpt>
      <trkpt lat="44.88285" lon="4.18165">
        <ele>1446.92</ele>
        <time>2002-03-28T13:22:53Z</time>
      </trkpt>
      <trkpt lat="44.88293" lon="4.18169">
        <ele>1448.36</ele>
        <time>2002-03-28T13:23:03Z</time>
      </trkpt>
      <trkpt lat="44.88306" lon="4.18175">
        <ele>1448.84</ele>
        <time>2002-03-28T13:23:18Z</time>
      </trkpt>
      <trkpt lat="44.8832" lon="4.1818">
        <ele>1450.29</ele>
        <time>2002-03-28T13:23:31Z</time>
      </trkpt>
      <trkpt lat="44.88332" lon="4.18186">
        <ele>1450.77</ele>
        <time>2002-03-28T13:23:43Z</time>
      </trkpt>
      <trkpt lat="44.88342" lon="4.1819">
        <ele>1451.73</ele>
        <time>2002-03-28T13:23:52Z</time>
      </trkpt>
      <trkpt lat="44.88353" lon="4.18195">
        <ele>1451.73</ele>
        <time>2002-03-28T13:24:02Z</time>
      </trkpt>
      <trkpt lat="44.88363" lon="4.18199">
        <ele>1453.17</ele>
        <time>2002-03-28T13:24:11Z</time>
      </trkpt>
      <trkpt lat="44.8837" lon="4.18204">
        <ele>1453.65</ele>
        <time>2002-03-28T13:24:19Z</time>
      </trkpt>
      <trkpt lat="44.88383" lon="4.18206">
        <ele>1454.61</ele>
        <time>2002-03-28T13:24:31Z</time>
      </trkpt>
      <trkpt lat="44.88393" lon="4.18208">
        <ele>1455.09</ele>
        <time>2002-03-28T13:24:41Z</time>
      </trkpt>
      <trkpt lat="44.88397" lon="4.18208">
        <ele>1456.05</ele>
        <time>2002-03-28T13:24:45Z</time>
      </trkpt>
      <trkpt lat="44.8841" lon="4.18213">
        <ele>1457.02</ele>
        <time>2002-03-28T13:24:57Z</time>
      </trkpt>
      <trkpt lat="44.88419" lon="4.18217">
        <ele>1457.5</ele>
        <time>2002-03-28T13:25:09Z</time>
      </trkpt>
      <trkpt lat="44.88424" lon="4.18217">
        <ele>1457.98</ele>
        <time>2002-03-28T13:25:13Z</time>
      </trkpt>
      <trkpt lat="44.88439" lon="4.18215">
        <ele>1458.94</ele>
        <time>2002-03-28T13:25:24Z</time>
      </trkpt>
      <trkpt lat="44.8844" lon="4.18215">
        <ele>1458.94</ele>
        <time>2002-03-28T13:25:25Z</time>
      </trkpt>
      <trkpt lat="44.8845" lon="4.18214">
        <ele>1459.9</ele>
        <time>2002-03-28T13:25:35Z</time>
      </trkpt>
      <trkpt lat="44.88464" lon="4.18211">
        <ele>1460.86</ele>
        <time>2002-03-28T13:25:46Z</time>
      </trkpt>
      <trkpt lat="44.88469" lon="4.18208">
        <ele>1460.38</ele>
        <time>2002-03-28T13:26:07Z</time>
      </trkpt>
      <trkpt lat="44.88481" lon="4.18205">
        <ele>1459.9</ele>
        <time>2002-03-28T13:28:36Z</time>
      </trkpt>
      <trkpt lat="44.88484" lon="4.18205">
        <ele>1459.9</ele>
        <time>2002-03-28T13:28:39Z</time>
      </trkpt>
      <trkpt lat="44.88487" lon="4.18203">
        <ele>1460.38</ele>
        <time>2002-03-28T13:28:42Z</time>
      </trkpt>
      <trkpt lat="44.88498" lon="4.18204">
        <ele>1462.3</ele>
        <time>2002-03-28T13:28:55Z</time>
      </trkpt>
      <trkpt lat="44.88506" lon="4.18204">
        <ele>1463.26</ele>
        <time>2002-03-28T13:29:05Z</time>
      </trkpt>
      <trkpt lat="44.88515" lon="4.18201">
        <ele>1464.23</ele>
        <time>2002-03-28T13:29:12Z</time>
      </trkpt>
      <trkpt lat="44.88527" lon="4.18196">
        <ele>1465.19</ele>
        <time>2002-03-28T13:29:24Z</time>
      </trkpt>
      <trkpt lat="44.88534" lon="4.18193">
        <ele>1466.63</ele>
        <time>2002-03-28T13:29:32Z</time>
      </trkpt>
      <trkpt lat="44.88546" lon="4.1819">
        <ele>1468.07</ele>
        <time>2002-03-28T13:29:44Z</time>
      </trkpt>
      <trkpt lat="44.88552" lon="4.18191">
        <ele>1468.55</ele>
        <time>2002-03-28T13:29:54Z</time>
      </trkpt>
      <trkpt lat="44.88556" lon="4.18189">
        <ele>1469.99</ele>
        <time>2002-03-28T13:30:03Z</time>
      </trkpt>
      <trkpt lat="44.88556" lon="4.18189">
        <ele>1469.51</ele>
        <time>2002-03-28T13:30:04Z</time>
      </trkpt>
      <trkpt lat="44.88556" lon="4.18188">
        <ele>1469.99</ele>
        <time>2002-03-28T13:30:07Z</time>
      </trkpt>
      <trkpt lat="44.88556" lon="4.18183">
        <ele>1470.47</ele>
        <time>2002-03-28T13:30:20Z</time>
      </trkpt>
      <trkpt lat="44.88556" lon="4.18183">
        <ele>1470.95</ele>
        <time>2002-03-28T13:31:22Z</time>
      </trkpt>
      <trkpt lat="44.88555" lon="4.18178">
        <ele>1471.92</ele>
        <time>2002-03-28T13:31:42Z</time>
      </trkpt>
      <trkpt lat="44.88557" lon="4.18175">
        <ele>1471.44</ele>
        <time>2002-03-28T13:31:47Z</time>
      </trkpt>
      <trkpt lat="44.88559" lon="4.1817">
        <ele>1471.92</ele>
        <time>2002-03-28T13:31:50Z</time>
      </trkpt>
      <trkpt lat="44.88561" lon="4.18166">
        <ele>1472.88</ele>
        <time>2002-03-28T13:31:53Z</time>
      </trkpt>
      <trkpt lat="44.88571" lon="4.18158">
        <ele>1474.8</ele>
        <time>2002-03-28T13:32:04Z</time>
      </trkpt>
      <trkpt lat="44.88579" lon="4.18153">
        <ele>1475.28</ele>
        <time>2002-03-28T13:32:14Z</time>
      </trkpt>
      <trkpt lat="44.8858" lon="4.18152">
        <ele>1475.28</ele>
        <time>2002-03-28T13:32:15Z</time>
      </trkpt>
      <trkpt lat="44.88591" lon="4.18147">
        <ele>1477.68</ele>
        <time>2002-03-28T13:32:26Z</time>
      </trkpt>
      <trkpt lat="44.886" lon="4.18144">
        <ele>1478.16</ele>
        <time>2002-03-28T13:32:34Z</time>
      </trkpt>
      <trkpt lat="44.88611" lon="4.18138">
        <ele>1478.65</ele>
        <time>2002-03-28T13:32:43Z</time>
      </trkpt>
      <trkpt lat="44.88614" lon="4.18135">
        <ele>1479.61</ele>
        <time>2002-03-28T13:32:47Z</time>
      </trkpt>
      <trkpt lat="44.88618" lon="4.18128">
        <ele>1480.09</ele>
        <time>2002-03-28T13:32:53Z</time>
      </trkpt>
      <trkpt lat="44.88626" lon="4.18122">
        <ele>1481.05</ele>
        <time>2002-03-28T13:33:03Z</time>
      </trkpt>
      <trkpt lat="44.88633" lon="4.18121">
        <ele>1482.01</ele>
        <time>2002-03-28T13:33:08Z</time>
      </trkpt>
      <trkpt lat="44.88644" lon="4.1812">
        <ele>1482.97</ele>
        <time>2002-03-28T13:33:20Z</time>
      </trkpt>
      <trkpt lat="44.88653" lon="4.18118">
        <ele>1484.41</ele>
        <time>2002-03-28T13:33:30Z</time>
      </trkpt>
      <trkpt lat="44.88663" lon="4.18118">
        <ele>1485.37</ele>
        <time>2002-03-28T13:33:40Z</time>
      </trkpt>
      <trkpt lat="44.88664" lon="4.18117">
        <ele>1484.89</ele>
        <time>2002-03-28T13:33:42Z</time>
      </trkpt>
      <trkpt lat="44.88672" lon="4.18113">
        <ele>1486.34</ele>
        <time>2002-03-28T13:33:50Z</time>
      </trkpt>
      <trkpt lat="44.88679" lon="4.18105">
        <ele>1487.78</ele>
        <time>2002-03-28T13:34:05Z</time>
      </trkpt>
      <trkpt lat="44.88679" lon="4.18105">
        <ele>1488.26</ele>
        <time>2002-03-28T13:35:17Z</time>
      </trkpt>
      <trkpt lat="44.8868" lon="4.18102">
        <ele>1488.26</ele>
        <time>2002-03-28T13:35:19Z</time>
      </trkpt>
      <trkpt lat="44.88681" lon="4.18095">
        <ele>1490.18</ele>
        <time>2002-03-28T13:35:36Z</time>
      </trkpt>
      <trkpt lat="44.88681" lon="4.18095">
        <ele>1489.22</ele>
        <time>2002-03-28T13:35:51Z</time>
      </trkpt>
      <trkpt lat="44.88683" lon="4.18093">
        <ele>1490.18</ele>
        <time>2002-03-28T13:35:55Z</time>
      </trkpt>
      <trkpt lat="44.88688" lon="4.18089">
        <ele>1491.14</ele>
        <time>2002-03-28T13:36:01Z</time>
      </trkpt>
      <trkpt lat="44.88697" lon="4.18085">
        <ele>1492.58</ele>
        <time>2002-03-28T13:36:11Z</time>
      </trkpt>
      <trkpt lat="44.8871" lon="4.18081">
        <ele>1494.03</ele>
        <time>2002-03-28T13:36:24Z</time>
      </trkpt>
      <trkpt lat="44.88716" lon="4.18083">
        <ele>1495.47</ele>
        <time>2002-03-28T13:36:32Z</time>
      </trkpt>
      <trkpt lat="44.88731" lon="4.18091">
        <ele>1495.95</ele>
        <time>2002-03-28T13:36:44Z</time>
      </trkpt>
      <trkpt lat="44.88735" lon="4.18092">
        <ele>1496.43</ele>
        <time>2002-03-28T13:36:47Z</time>
      </trkpt>
      <trkpt lat="44.88743" lon="4.18093">
        <ele>1498.35</ele>
        <time>2002-03-28T13:37:00Z</time>
      </trkpt>
      <trkpt lat="44.88749" lon="4.18093">
        <ele>1500.27</ele>
        <time>2002-03-28T13:37:10Z</time>
      </trkpt>
      <trkpt lat="44.8875" lon="4.18094">
        <ele>1500.27</ele>
        <time>2002-03-28T13:37:11Z</time>
      </trkpt>
      <trkpt lat="44.88764" lon="4.18099">
        <ele>1502.68</ele>
        <time>2002-03-28T13:37:26Z</time>
      </trkpt>
      <trkpt lat="44.88778" lon="4.181">
        <ele>1504.6</ele>
        <time>2002-03-28T13:37:40Z</time>
      </trkpt>
      <trkpt lat="44.88788" lon="4.18099">
        <ele>1506.04</ele>
        <time>2002-03-28T13:37:51Z</time>
      </trkpt>
      <trkpt lat="44.88794" lon="4.181">
        <ele>1506.52</ele>
        <time>2002-03-28T13:38:00Z</time>
      </trkpt>
      <trkpt lat="44.88804" lon="4.18102">
        <ele>1507.97</ele>
        <time>2002-03-28T13:38:10Z</time>
      </trkpt>
      <trkpt lat="44.88811" lon="4.18105">
        <ele>1508.93</ele>
        <time>2002-03-28T13:38:17Z</time>
      </trkpt>
      <trkpt lat="44.88815" lon="4.18108">
        <ele>1509.41</ele>
        <time>2002-03-28T13:38:21Z</time>
      </trkpt>
      <trkpt lat="44.88824" lon="4.18111">
        <ele>1510.37</ele>
        <time>2002-03-28T13:38:28Z</time>
      </trkpt>
      <trkpt lat="44.88831" lon="4.18114">
        <ele>1511.33</ele>
        <time>2002-03-28T13:38:39Z</time>
      </trkpt>
      <trkpt lat="44.88841" lon="4.18119">
        <ele>1512.77</ele>
        <time>2002-03-28T13:38:49Z</time>
      </trkpt>
      <trkpt lat="44.88854" lon="4.18122">
        <ele>1514.21</ele>
        <time>2002-03-28T13:39:00Z</time>
      </trkpt>
      <trkpt lat="44.88861" lon="4.18124">
        <ele>1514.69</ele>
        <time>2002-03-28T13:39:17Z</time>
      </trkpt>
      <trkpt lat="44.8887" lon="4.18129">
        <ele>1515.66</ele>
        <time>2002-03-28T13:39:27Z</time>
      </trkpt>
      <trkpt lat="44.88879" lon="4.18131">
        <ele>1516.14</ele>
        <time>2002-03-28T13:39:35Z</time>
      </trkpt>
      <trkpt lat="44.88894" lon="4.18135">
        <ele>1517.1</ele>
        <time>2002-03-28T13:39:47Z</time>
      </trkpt>
      <trkpt lat="44.88909" lon="4.18143">
        <ele>1517.58</ele>
        <time>2002-03-28T13:40:00Z</time>
      </trkpt>
      <trkpt lat="44.88919" lon="4.18154">
        <ele>1517.1</ele>
        <time>2002-03-28T13:40:11Z</time>
      </trkpt>
      <trkpt lat="44.88929" lon="4.18163">
        <ele>1517.58</ele>
        <time>2002-03-28T13:40:20Z</time>
      </trkpt>
      <trkpt lat="44.88939" lon="4.18173">
        <ele>1517.1</ele>
        <time>2002-03-28T13:40:31Z</time>
      </trkpt>
      <trkpt lat="44.88951" lon="4.18183">
        <ele>1517.58</ele>
        <time>2002-03-28T13:40:42Z</time>
      </trkpt>
      <trkpt lat="44.88954" lon="4.18185">
        <ele>1518.06</ele>
        <time>2002-03-28T13:40:45Z</time>
      </trkpt>
      <trkpt lat="44.88969" lon="4.18196">
        <ele>1519.02</ele>
        <time>2002-03-28T13:40:57Z</time>
      </trkpt>
      <trkpt lat="44.88985" lon="4.18206">
        <ele>1520.46</ele>
        <time>2002-03-28T13:41:11Z</time>
      </trkpt>
      <trkpt lat="44.88996" lon="4.18212">
        <ele>1520.46</ele>
        <time>2002-03-28T13:41:21Z</time>
      </trkpt>
      <trkpt lat="44.8901" lon="4.18222">
        <ele>1521.42</ele>
        <time>2002-03-28T13:41:33Z</time>
      </trkpt>
      <trkpt lat="44.89022" lon="4.18232">
        <ele>1521.9</ele>
        <time>2002-03-28T13:41:45Z</time>
      </trkpt>
      <trkpt lat="44.89037" lon="4.18245">
        <ele>1522.39</ele>
        <time>2002-03-28T13:41:59Z</time>
      </trkpt>
      <trkpt lat="44.89045" lon="4.18254">
        <ele>1522.87</ele>
        <time>2002-03-28T13:42:08Z</time>
      </trkpt>
      <trkpt lat="44.89054" lon="4.18259">
        <ele>1523.35</ele>
        <time>2002-03-28T13:42:15Z</time>
      </trkpt>
      <trkpt lat="44.89064" lon="4.18267">
        <ele>1524.31</ele>
        <time>2002-03-28T13:42:24Z</time>
      </trkpt>
      <trkpt lat="44.89079" lon="4.18277">
        <ele>1524.79</ele>
        <time>2002-03-28T13:42:39Z</time>
      </trkpt>
      <trkpt lat="44.89089" lon="4.18286">
        <ele>1526.23</ele>
        <time>2002-03-28T13:42:49Z</time>
      </trkpt>
      <trkpt lat="44.891" lon="4.18292">
        <ele>1527.19</ele>
        <time>2002-03-28T13:43:01Z</time>
      </trkpt>
      <trkpt lat="44.89114" lon="4.18294">
        <ele>1527.67</ele>
        <time>2002-03-28T13:43:14Z</time>
      </trkpt>
      <trkpt lat="44.89127" lon="4.18298">
        <ele>1529.11</ele>
        <time>2002-03-28T13:43:26Z</time>
      </trkpt>
      <trkpt lat="44.8913" lon="4.18298">
        <ele>1529.59</ele>
        <time>2002-03-28T13:43:28Z</time>
      </trkpt>
      <trkpt lat="44.89133" lon="4.18298">
        <ele>1529.59</ele>
        <time>2002-03-28T13:43:48Z</time>
      </trkpt>
      <trkpt lat="44.89144" lon="4.183">
        <ele>1530.56</ele>
        <time>2002-03-28T13:44:03Z</time>
      </trkpt>
      <trkpt lat="44.8916" lon="4.18304">
        <ele>1532</ele>
        <time>2002-03-28T13:44:16Z</time>
      </trkpt>
      <trkpt lat="44.89177" lon="4.18308">
        <ele>1533.92</ele>
        <time>2002-03-28T13:44:29Z</time>
      </trkpt>
      <trkpt lat="44.89194" lon="4.18311">
        <ele>1534.88</ele>
        <time>2002-03-28T13:44:43Z</time>
      </trkpt>
      <trkpt lat="44.89208" lon="4.18313">
        <ele>1535.36</ele>
        <time>2002-03-28T13:44:54Z</time>
      </trkpt>
      <trkpt lat="44.89217" lon="4.18312">
        <ele>1536.8</ele>
        <time>2002-03-28T13:45:04Z</time>
      </trkpt>
      <trkpt lat="44.89218" lon="4.18312">
        <ele>1537.29</ele>
        <time>2002-03-28T13:45:22Z</time>
      </trkpt>
      <trkpt lat="44.89219" lon="4.18311">
        <ele>1535.84</ele>
        <time>2002-03-28T13:45:43Z</time>
      </trkpt>
      <trkpt lat="44.89219" lon="4.18311">
        <ele>1537.29</ele>
        <time>2002-03-28T13:46:55Z</time>
      </trkpt>
      <trkpt lat="44.8922" lon="4.1831">
        <ele>1540.17</ele>
        <time>2002-03-28T13:49:58Z</time>
      </trkpt>
      <trkpt lat="44.8922" lon="4.1831">
        <ele>1543.53</ele>
        <time>2002-03-28T13:53:49Z</time>
      </trkpt>
      <trkpt lat="44.89221" lon="4.18311">
        <ele>1545.94</ele>
        <time>2002-03-28T13:56:07Z</time>
      </trkpt>
      <trkpt lat="44.89224" lon="4.18311">
        <ele>1546.42</ele>
        <time>2002-03-28T13:56:33Z</time>
      </trkpt>
      <trkpt lat="44.89231" lon="4.18308">
        <ele>1546.9</ele>
        <time>2002-03-28T13:56:42Z</time>
      </trkpt>
      <trkpt lat="44.89236" lon="4.18306">
        <ele>1547.38</ele>
        <time>2002-03-28T13:56:46Z</time>
      </trkpt>
      <trkpt lat="44.8925" lon="4.18298">
        <ele>1548.34</ele>
        <time>2002-03-28T13:56:59Z</time>
      </trkpt>
      <trkpt lat="44.89252" lon="4.18297">
        <ele>1549.3</ele>
        <time>2002-03-28T13:57:02Z</time>
      </trkpt>
      <trkpt lat="44.89258" lon="4.18294">
        <ele>1549.3</ele>
        <time>2002-03-28T13:57:08Z</time>
      </trkpt>
      <trkpt lat="44.89271" lon="4.18293">
        <ele>1549.78</ele>
        <time>2002-03-28T13:57:19Z</time>
      </trkpt>
      <trkpt lat="44.89285" lon="4.1829">
        <ele>1551.22</ele>
        <time>2002-03-28T13:57:32Z</time>
      </trkpt>
      <trkpt lat="44.893" lon="4.18289">
        <ele>1552.19</ele>
        <time>2002-03-28T13:57:44Z</time>
      </trkpt>
      <trkpt lat="44.89314" lon="4.18287">
        <ele>1552.67</ele>
        <time>2002-03-28T13:57:56Z</time>
      </trkpt>
      <trkpt lat="44.8932" lon="4.18285">
        <ele>1552.67</ele>
        <time>2002-03-28T13:58:02Z</time>
      </trkpt>
      <trkpt lat="44.8933" lon="4.18286">
        <ele>1551.71</ele>
        <time>2002-03-28T13:58:12Z</time>
      </trkpt>
      <trkpt lat="44.89339" lon="4.18294">
        <ele>1551.71</ele>
        <time>2002-03-28T13:58:23Z</time>
      </trkpt>
      <trkpt lat="44.89344" lon="4.18304">
        <ele>1551.22</ele>
        <time>2002-03-28T13:58:39Z</time>
      </trkpt>
      <trkpt lat="44.89354" lon="4.18315">
        <ele>1551.22</ele>
        <time>2002-03-28T13:58:49Z</time>
      </trkpt>
      <trkpt lat="44.89363" lon="4.18323">
        <ele>1550.26</ele>
        <time>2002-03-28T13:58:58Z</time>
      </trkpt>
      <trkpt lat="44.89367" lon="4.18336">
        <ele>1549.78</ele>
        <time>2002-03-28T13:59:09Z</time>
      </trkpt>
      <trkpt lat="44.89369" lon="4.18338">
        <ele>1549.3</ele>
        <time>2002-03-28T13:59:34Z</time>
      </trkpt>
      <trkpt lat="44.89375" lon="4.18348">
        <ele>1546.9</ele>
        <time>2002-03-28T13:59:46Z</time>
      </trkpt>
      <trkpt lat="44.89382" lon="4.1835">
        <ele>1545.94</ele>
        <time>2002-03-28T13:59:55Z</time>
      </trkpt>
      <trkpt lat="44.89387" lon="4.1835">
        <ele>1545.46</ele>
        <time>2002-03-28T13:59:58Z</time>
      </trkpt>
      <trkpt lat="44.89395" lon="4.18347">
        <ele>1544.98</ele>
        <time>2002-03-28T14:00:04Z</time>
      </trkpt>
      <trkpt lat="44.89405" lon="4.18348">
        <ele>1543.05</ele>
        <time>2002-03-28T14:00:13Z</time>
      </trkpt>
      <trkpt lat="44.89414" lon="4.18352">
        <ele>1541.61</ele>
        <time>2002-03-28T14:00:23Z</time>
      </trkpt>
      <trkpt lat="44.89418" lon="4.18353">
        <ele>1541.61</ele>
        <time>2002-03-28T14:00:26Z</time>
      </trkpt>
      <trkpt lat="44.89428" lon="4.18356">
        <ele>1539.69</ele>
        <time>2002-03-28T14:00:32Z</time>
      </trkpt>
      <trkpt lat="44.89439" lon="4.18356">
        <ele>1539.21</ele>
        <time>2002-03-28T14:00:37Z</time>
      </trkpt>
      <trkpt lat="44.89448" lon="4.1836">
        <ele>1539.21</ele>
        <time>2002-03-28T14:00:48Z</time>
      </trkpt>
      <trkpt lat="44.89448" lon="4.18367">
        <ele>1538.25</ele>
        <time>2002-03-28T14:00:59Z</time>
      </trkpt>
      <trkpt lat="44.89449" lon="4.18368">
        <ele>1538.73</ele>
        <time>2002-03-28T14:01:52Z</time>
      </trkpt>
      <trkpt lat="44.8945" lon="4.18369">
        <ele>1538.73</ele>
        <time>2002-03-28T14:02:15Z</time>
      </trkpt>
      <trkpt lat="44.89449" lon="4.18372">
        <ele>1538.73</ele>
        <time>2002-03-28T14:02:17Z</time>
      </trkpt>
      <trkpt lat="44.89448" lon="4.18374">
        <ele>1538.25</ele>
        <time>2002-03-28T14:02:27Z</time>
      </trkpt>
      <trkpt lat="44.89453" lon="4.18373">
        <ele>1536.32</ele>
        <time>2002-03-28T14:02:37Z</time>
      </trkpt>
      <trkpt lat="44.89462" lon="4.18375">
        <ele>1534.88</ele>
        <time>2002-03-28T14:02:47Z</time>
      </trkpt>
      <trkpt lat="44.89472" lon="4.18376">
        <ele>1531.52</ele>
        <time>2002-03-28T14:03:06Z</time>
      </trkpt>
      <trkpt lat="44.89483" lon="4.18369">
        <ele>1530.08</ele>
        <time>2002-03-28T14:03:20Z</time>
      </trkpt>
      <trkpt lat="44.89506" lon="4.18367">
        <ele>1529.59</ele>
        <time>2002-03-28T14:03:39Z</time>
      </trkpt>
      <trkpt lat="44.8953" lon="4.18373">
        <ele>1528.15</ele>
        <time>2002-03-28T14:03:50Z</time>
      </trkpt>
      <trkpt lat="44.89536" lon="4.18377">
        <ele>1526.71</ele>
        <time>2002-03-28T14:03:56Z</time>
      </trkpt>
      <trkpt lat="44.89544" lon="4.18378">
        <ele>1525.75</ele>
        <time>2002-03-28T14:04:01Z</time>
      </trkpt>
      <trkpt lat="44.89554" lon="4.18382">
        <ele>1524.79</ele>
        <time>2002-03-28T14:04:11Z</time>
      </trkpt>
      <trkpt lat="44.89563" lon="4.18384">
        <ele>1522.87</ele>
        <time>2002-03-28T14:04:25Z</time>
      </trkpt>
      <trkpt lat="44.89577" lon="4.18387">
        <ele>1520.46</ele>
        <time>2002-03-28T14:04:37Z</time>
      </trkpt>
      <trkpt lat="44.89591" lon="4.18382">
        <ele>1518.54</ele>
        <time>2002-03-28T14:04:48Z</time>
      </trkpt>
      <trkpt lat="44.89605" lon="4.18389">
        <ele>1515.66</ele>
        <time>2002-03-28T14:05:00Z</time>
      </trkpt>
      <trkpt lat="44.8962" lon="4.18395">
        <ele>1513.73</ele>
        <time>2002-03-28T14:05:14Z</time>
      </trkpt>
      <trkpt lat="44.8964" lon="4.18402">
        <ele>1510.85</ele>
        <time>2002-03-28T14:05:33Z</time>
      </trkpt>
      <trkpt lat="44.89646" lon="4.18404">
        <ele>1510.85</ele>
        <time>2002-03-28T14:05:37Z</time>
      </trkpt>
      <trkpt lat="44.89663" lon="4.18411">
        <ele>1508.93</ele>
        <time>2002-03-28T14:05:51Z</time>
      </trkpt>
      <trkpt lat="44.89685" lon="4.18415">
        <ele>1506.52</ele>
        <time>2002-03-28T14:06:08Z</time>
      </trkpt>
      <trkpt lat="44.897" lon="4.18417">
        <ele>1505.08</ele>
        <time>2002-03-28T14:06:17Z</time>
      </trkpt>
      <trkpt lat="44.89709" lon="4.18419">
        <ele>1504.12</ele>
        <time>2002-03-28T14:06:26Z</time>
      </trkpt>
      <trkpt lat="44.89721" lon="4.18425">
        <ele>1503.16</ele>
        <time>2002-03-28T14:06:35Z</time>
      </trkpt>
      <trkpt lat="44.89737" lon="4.18432">
        <ele>1502.2</ele>
        <time>2002-03-28T14:06:45Z</time>
      </trkpt>
      <trkpt lat="44.89751" lon="4.18436">
        <ele>1501.72</ele>
        <time>2002-03-28T14:06:57Z</time>
      </trkpt>
      <trkpt lat="44.89754" lon="4.18436">
        <ele>1501.24</ele>
        <time>2002-03-28T14:07:14Z</time>
      </trkpt>
      <trkpt lat="44.89771" lon="4.18436">
        <ele>1499.79</ele>
        <time>2002-03-28T14:07:26Z</time>
      </trkpt>
      <trkpt lat="44.89783" lon="4.18441">
        <ele>1497.87</ele>
        <time>2002-03-28T14:07:37Z</time>
      </trkpt>
      <trkpt lat="44.89789" lon="4.18444">
        <ele>1496.91</ele>
        <time>2002-03-28T14:07:43Z</time>
      </trkpt>
      <trkpt lat="44.89804" lon="4.18448">
        <ele>1494.51</ele>
        <time>2002-03-28T14:07:56Z</time>
      </trkpt>
      <trkpt lat="44.89822" lon="4.18456">
        <ele>1491.14</ele>
        <time>2002-03-28T14:08:14Z</time>
      </trkpt>
      <trkpt lat="44.89836" lon="4.18463">
        <ele>1490.66</ele>
        <time>2002-03-28T14:08:24Z</time>
      </trkpt>
      <trkpt lat="44.89854" lon="4.18474">
        <ele>1488.26</ele>
        <time>2002-03-28T14:08:38Z</time>
      </trkpt>
      <trkpt lat="44.8987" lon="4.18484">
        <ele>1487.3</ele>
        <time>2002-03-28T14:08:49Z</time>
      </trkpt>
      <trkpt lat="44.89882" lon="4.18491">
        <ele>1486.34</ele>
        <time>2002-03-28T14:09:05Z</time>
      </trkpt>
      <trkpt lat="44.89886" lon="4.18493">
        <ele>1485.85</ele>
        <time>2002-03-28T14:12:40Z</time>
      </trkpt>
      <trkpt lat="44.89912" lon="4.18505">
        <ele>1484.89</ele>
        <time>2002-03-28T14:12:52Z</time>
      </trkpt>
      <trkpt lat="44.89915" lon="4.18505">
        <ele>1484.89</ele>
        <time>2002-03-28T14:12:53Z</time>
      </trkpt>
      <trkpt lat="44.89921" lon="4.18507">
        <ele>1485.37</ele>
        <time>2002-03-28T14:12:56Z</time>
      </trkpt>
      <trkpt lat="44.89926" lon="4.18511">
        <ele>1485.85</ele>
        <time>2002-03-28T14:13:00Z</time>
      </trkpt>
      <trkpt lat="44.89933" lon="4.18518">
        <ele>1485.37</ele>
        <time>2002-03-28T14:13:06Z</time>
      </trkpt>
      <trkpt lat="44.89936" lon="4.18522">
        <ele>1485.37</ele>
        <time>2002-03-28T14:13:09Z</time>
      </trkpt>
      <trkpt lat="44.89938" lon="4.18525">
        <ele>1485.37</ele>
        <time>2002-03-28T14:13:11Z</time>
      </trkpt>
      <trkpt lat="44.89942" lon="4.1853">
        <ele>1484.89</ele>
        <time>2002-03-28T14:13:15Z</time>
      </trkpt>
      <trkpt lat="44.89952" lon="4.18544">
        <ele>1484.41</ele>
        <time>2002-03-28T14:13:25Z</time>
      </trkpt>
      <trkpt lat="44.89952" lon="4.18545">
        <ele>1484.41</ele>
        <time>2002-03-28T14:13:26Z</time>
      </trkpt>
      <trkpt lat="44.89958" lon="4.18559">
        <ele>1483.45</ele>
        <time>2002-03-28T14:13:37Z</time>
      </trkpt>
      <trkpt lat="44.89963" lon="4.18572">
        <ele>1483.45</ele>
        <time>2002-03-28T14:13:47Z</time>
      </trkpt>
      <trkpt lat="44.89972" lon="4.18582">
        <ele>1482.49</ele>
        <time>2002-03-28T14:14:00Z</time>
      </trkpt>
      <trkpt lat="44.89979" lon="4.18587">
        <ele>1482.01</ele>
        <time>2002-03-28T14:14:10Z</time>
      </trkpt>
      <trkpt lat="44.89979" lon="4.18587">
        <ele>1482.49</ele>
        <time>2002-03-28T14:14:43Z</time>
      </trkpt>
      <trkpt lat="44.89987" lon="4.18601">
        <ele>1481.05</ele>
        <time>2002-03-28T14:14:55Z</time>
      </trkpt>
      <trkpt lat="44.89991" lon="4.18612">
        <ele>1480.09</ele>
        <time>2002-03-28T14:15:05Z</time>
      </trkpt>
      <trkpt lat="44.89999" lon="4.18619">
        <ele>1479.13</ele>
        <time>2002-03-28T14:15:12Z</time>
      </trkpt>
      <trkpt lat="44.90019" lon="4.18626">
        <ele>1478.16</ele>
        <time>2002-03-28T14:15:23Z</time>
      </trkpt>
      <trkpt lat="44.90032" lon="4.18635">
        <ele>1477.2</ele>
        <time>2002-03-28T14:15:32Z</time>
      </trkpt>
      <trkpt lat="44.90033" lon="4.18635">
        <ele>1477.2</ele>
        <time>2002-03-28T14:15:33Z</time>
      </trkpt>
      <trkpt lat="44.90036" lon="4.18637">
        <ele>1477.2</ele>
        <time>2002-03-28T14:15:35Z</time>
      </trkpt>
      <trkpt lat="44.90043" lon="4.18646">
        <ele>1476.72</ele>
        <time>2002-03-28T14:15:41Z</time>
      </trkpt>
      <trkpt lat="44.90052" lon="4.18657">
        <ele>1476.72</ele>
        <time>2002-03-28T14:15:49Z</time>
      </trkpt>
      <trkpt lat="44.90061" lon="4.18666">
        <ele>1476.72</ele>
        <time>2002-03-28T14:15:57Z</time>
      </trkpt>
      <trkpt lat="44.90069" lon="4.18672">
        <ele>1477.68</ele>
        <time>2002-03-28T14:16:05Z</time>
      </trkpt>
      <trkpt lat="44.90072" lon="4.18675">
        <ele>1478.16</ele>
        <time>2002-03-28T14:16:08Z</time>
      </trkpt>
      <trkpt lat="44.90077" lon="4.18679">
        <ele>1478.65</ele>
        <time>2002-03-28T14:16:13Z</time>
      </trkpt>
      <trkpt lat="44.90079" lon="4.18683">
        <ele>1479.13</ele>
        <time>2002-03-28T14:16:16Z</time>
      </trkpt>
      <trkpt lat="44.90081" lon="4.18686">
        <ele>1479.13</ele>
        <time>2002-03-28T14:16:18Z</time>
      </trkpt>
      <trkpt lat="44.90086" lon="4.18699">
        <ele>1480.57</ele>
        <time>2002-03-28T14:16:26Z</time>
      </trkpt>
      <trkpt lat="44.9009" lon="4.18711">
        <ele>1481.53</ele>
        <time>2002-03-28T14:16:35Z</time>
      </trkpt>
      <trkpt lat="44.90092" lon="4.18713">
        <ele>1481.53</ele>
        <time>2002-03-28T14:16:37Z</time>
      </trkpt>
      <trkpt lat="44.90094" lon="4.18715">
        <ele>1481.53</ele>
        <time>2002-03-28T14:16:39Z</time>
      </trkpt>
      <trkpt lat="44.90097" lon="4.18722">
        <ele>1481.53</ele>
        <time>2002-03-28T14:16:43Z</time>
      </trkpt>
      <trkpt lat="44.90099" lon="4.18731">
        <ele>1482.01</ele>
        <time>2002-03-28T14:16:48Z</time>
      </trkpt>
      <trkpt lat="44.90102" lon="4.18733">
        <ele>1482.01</ele>
        <time>2002-03-28T14:16:51Z</time>
      </trkpt>
      <trkpt lat="44.90106" lon="4.18738">
        <ele>1481.53</ele>
        <time>2002-03-28T14:16:55Z</time>
      </trkpt>
      <trkpt lat="44.90108" lon="4.18738">
        <ele>1482.01</ele>
        <time>2002-03-28T14:16:57Z</time>
      </trkpt>
      <trkpt lat="44.90114" lon="4.18745">
        <ele>1481.53</ele>
        <time>2002-03-28T14:17:03Z</time>
      </trkpt>
      <trkpt lat="44.90117" lon="4.18754">
        <ele>1481.05</ele>
        <time>2002-03-28T14:17:08Z</time>
      </trkpt>
      <trkpt lat="44.90119" lon="4.18756">
        <ele>1481.05</ele>
        <time>2002-03-28T14:17:10Z</time>
      </trkpt>
      <trkpt lat="44.90124" lon="4.18764">
        <ele>1481.05</ele>
        <time>2002-03-28T14:17:16Z</time>
      </trkpt>
      <trkpt lat="44.90132" lon="4.18775">
        <ele>1480.57</ele>
        <time>2002-03-28T14:17:24Z</time>
      </trkpt>
      <trkpt lat="44.90141" lon="4.1879">
        <ele>1479.61</ele>
        <time>2002-03-28T14:17:34Z</time>
      </trkpt>
      <trkpt lat="44.90146" lon="4.18797">
        <ele>1478.65</ele>
        <time>2002-03-28T14:17:52Z</time>
      </trkpt>
      <trkpt lat="44.90153" lon="4.18809">
        <ele>1478.16</ele>
        <time>2002-03-28T14:18:00Z</time>
      </trkpt>
      <trkpt lat="44.90161" lon="4.18836">
        <ele>1478.16</ele>
        <time>2002-03-28T14:18:15Z</time>
      </trkpt>
      <trkpt lat="44.90165" lon="4.18857">
        <ele>1477.68</ele>
        <time>2002-03-28T14:18:25Z</time>
      </trkpt>
      <trkpt lat="44.90166" lon="4.18858">
        <ele>1477.68</ele>
        <time>2002-03-28T14:18:26Z</time>
      </trkpt>
      <trkpt lat="44.90167" lon="4.1887">
        <ele>1477.68</ele>
        <time>2002-03-28T14:18:32Z</time>
      </trkpt>
      <trkpt lat="44.90166" lon="4.18878">
        <ele>1477.68</ele>
        <time>2002-03-28T14:18:36Z</time>
      </trkpt>
      <trkpt lat="44.90169" lon="4.18885">
        <ele>1478.16</ele>
        <time>2002-03-28T14:18:40Z</time>
      </trkpt>
      <trkpt lat="44.90169" lon="4.1889">
        <ele>1477.68</ele>
        <time>2002-03-28T14:18:43Z</time>
      </trkpt>
      <trkpt lat="44.9017" lon="4.18898">
        <ele>1478.16</ele>
        <time>2002-03-28T14:18:56Z</time>
      </trkpt>
      <trkpt lat="44.90171" lon="4.18909">
        <ele>1477.2</ele>
        <time>2002-03-28T14:19:06Z</time>
      </trkpt>
      <trkpt lat="44.90171" lon="4.18913">
        <ele>1477.68</ele>
        <time>2002-03-28T14:19:08Z</time>
      </trkpt>
      <trkpt lat="44.90172" lon="4.1892">
        <ele>1477.2</ele>
        <time>2002-03-28T14:19:12Z</time>
      </trkpt>
      <trkpt lat="44.90173" lon="4.18923">
        <ele>1477.2</ele>
        <time>2002-03-28T14:19:14Z</time>
      </trkpt>
      <trkpt lat="44.90178" lon="4.18938">
        <ele>1476.24</ele>
        <time>2002-03-28T14:19:23Z</time>
      </trkpt>
      <trkpt lat="44.90178" lon="4.18942">
        <ele>1476.24</ele>
        <time>2002-03-28T14:19:25Z</time>
      </trkpt>
      <trkpt lat="44.90178" lon="4.18954">
        <ele>1475.28</ele>
        <time>2002-03-28T14:19:30Z</time>
      </trkpt>
      <trkpt lat="44.90182" lon="4.1897">
        <ele>1474.8</ele>
        <time>2002-03-28T14:19:39Z</time>
      </trkpt>
      <trkpt lat="44.90184" lon="4.18978">
        <ele>1474.8</ele>
        <time>2002-03-28T14:19:44Z</time>
      </trkpt>
      <trkpt lat="44.90187" lon="4.18985">
        <ele>1473.84</ele>
        <time>2002-03-28T14:19:48Z</time>
      </trkpt>
      <trkpt lat="44.90188" lon="4.18994">
        <ele>1472.4</ele>
        <time>2002-03-28T14:19:53Z</time>
      </trkpt>
      <trkpt lat="44.9019" lon="4.18997">
        <ele>1472.88</ele>
        <time>2002-03-28T14:19:55Z</time>
      </trkpt>
      <trkpt lat="44.90193" lon="4.19006">
        <ele>1472.4</ele>
        <time>2002-03-28T14:20:01Z</time>
      </trkpt>
      <trkpt lat="44.90196" lon="4.19013">
        <ele>1470.95</ele>
        <time>2002-03-28T14:20:06Z</time>
      </trkpt>
      <trkpt lat="44.90197" lon="4.19021">
        <ele>1470.47</ele>
        <time>2002-03-28T14:20:11Z</time>
      </trkpt>
      <trkpt lat="44.90201" lon="4.1903">
        <ele>1469.99</ele>
        <time>2002-03-28T14:20:17Z</time>
      </trkpt>
      <trkpt lat="44.90203" lon="4.19041">
        <ele>1469.51</ele>
        <time>2002-03-28T14:20:23Z</time>
      </trkpt>
      <trkpt lat="44.90206" lon="4.1905">
        <ele>1468.55</ele>
        <time>2002-03-28T14:20:29Z</time>
      </trkpt>
      <trkpt lat="44.90209" lon="4.19055">
        <ele>1468.07</ele>
        <time>2002-03-28T14:20:33Z</time>
      </trkpt>
      <trkpt lat="44.90212" lon="4.19059">
        <ele>1467.11</ele>
        <time>2002-03-28T14:20:37Z</time>
      </trkpt>
      <trkpt lat="44.90214" lon="4.19065">
        <ele>1467.11</ele>
        <time>2002-03-28T14:20:40Z</time>
      </trkpt>
      <trkpt lat="44.90218" lon="4.19071">
        <ele>1466.63</ele>
        <time>2002-03-28T14:20:44Z</time>
      </trkpt>
      <trkpt lat="44.9023" lon="4.19084">
        <ele>1465.19</ele>
        <time>2002-03-28T14:20:55Z</time>
      </trkpt>
      <trkpt lat="44.90239" lon="4.19095">
        <ele>1463.26</ele>
        <time>2002-03-28T14:21:05Z</time>
      </trkpt>
      <trkpt lat="44.90241" lon="4.19097">
        <ele>1463.26</ele>
        <time>2002-03-28T14:21:08Z</time>
      </trkpt>
      <trkpt lat="44.90247" lon="4.19108">
        <ele>1461.82</ele>
        <time>2002-03-28T14:21:16Z</time>
      </trkpt>
      <trkpt lat="44.90254" lon="4.19115">
        <ele>1461.34</ele>
        <time>2002-03-28T14:21:23Z</time>
      </trkpt>
      <trkpt lat="44.90255" lon="4.19122">
        <ele>1460.86</ele>
        <time>2002-03-28T14:21:27Z</time>
      </trkpt>
      <trkpt lat="44.90257" lon="4.19134">
        <ele>1460.86</ele>
        <time>2002-03-28T14:21:39Z</time>
      </trkpt>
      <trkpt lat="44.90257" lon="4.19135">
        <ele>1460.86</ele>
        <time>2002-03-28T14:22:00Z</time>
      </trkpt>
      <trkpt lat="44.90261" lon="4.19143">
        <ele>1459.9</ele>
        <time>2002-03-28T14:22:07Z</time>
      </trkpt>
      <trkpt lat="44.90263" lon="4.19148">
        <ele>1459.9</ele>
        <time>2002-03-28T14:22:11Z</time>
      </trkpt>
      <trkpt lat="44.90268" lon="4.19165">
        <ele>1459.42</ele>
        <time>2002-03-28T14:22:22Z</time>
      </trkpt>
      <trkpt lat="44.9027" lon="4.1917">
        <ele>1459.42</ele>
        <time>2002-03-28T14:22:25Z</time>
      </trkpt>
      <trkpt lat="44.90272" lon="4.19177">
        <ele>1458.46</ele>
        <time>2002-03-28T14:22:30Z</time>
      </trkpt>
      <trkpt lat="44.90274" lon="4.19187">
        <ele>1457.98</ele>
        <time>2002-03-28T14:22:35Z</time>
      </trkpt>
      <trkpt lat="44.90275" lon="4.19197">
        <ele>1457.98</ele>
        <time>2002-03-28T14:22:40Z</time>
      </trkpt>
      <trkpt lat="44.90277" lon="4.19202">
        <ele>1457.98</ele>
        <time>2002-03-28T14:22:52Z</time>
      </trkpt>
      <trkpt lat="44.9028" lon="4.1921">
        <ele>1457.98</ele>
        <time>2002-03-28T14:22:58Z</time>
      </trkpt>
      <trkpt lat="44.90281" lon="4.19214">
        <ele>1457.98</ele>
        <time>2002-03-28T14:23:00Z</time>
      </trkpt>
      <trkpt lat="44.90289" lon="4.19232">
        <ele>1457.02</ele>
        <time>2002-03-28T14:23:11Z</time>
      </trkpt>
      <trkpt lat="44.90292" lon="4.19237">
        <ele>1456.53</ele>
        <time>2002-03-28T14:23:14Z</time>
      </trkpt>
      <trkpt lat="44.90296" lon="4.19244">
        <ele>1457.02</ele>
        <time>2002-03-28T14:23:19Z</time>
      </trkpt>
      <trkpt lat="44.90306" lon="4.19258">
        <ele>1457.02</ele>
        <time>2002-03-28T14:23:29Z</time>
      </trkpt>
      <trkpt lat="44.90308" lon="4.19261">
        <ele>1457.02</ele>
        <time>2002-03-28T14:23:31Z</time>
      </trkpt>
      <trkpt lat="44.90318" lon="4.19271">
        <ele>1456.53</ele>
        <time>2002-03-28T14:23:40Z</time>
      </trkpt>
      <trkpt lat="44.90329" lon="4.19278">
        <ele>1457.02</ele>
        <time>2002-03-28T14:23:49Z</time>
      </trkpt>
      <trkpt lat="44.9033" lon="4.19279">
        <ele>1457.5</ele>
        <time>2002-03-28T14:23:50Z</time>
      </trkpt>
      <trkpt lat="44.90334" lon="4.19292">
        <ele>1457.98</ele>
        <time>2002-03-28T14:23:57Z</time>
      </trkpt>
      <trkpt lat="44.9034" lon="4.19298">
        <ele>1457.98</ele>
        <time>2002-03-28T14:24:02Z</time>
      </trkpt>
      <trkpt lat="44.9035" lon="4.19308">
        <ele>1458.46</ele>
        <time>2002-03-28T14:24:12Z</time>
      </trkpt>
      <trkpt lat="44.90351" lon="4.19309">
        <ele>1457.98</ele>
        <time>2002-03-28T14:24:13Z</time>
      </trkpt>
      <trkpt lat="44.90354" lon="4.19311">
        <ele>1458.46</ele>
        <time>2002-03-28T14:24:15Z</time>
      </trkpt>
      <trkpt lat="44.90358" lon="4.19321">
        <ele>1458.94</ele>
        <time>2002-03-28T14:24:22Z</time>
      </trkpt>
      <trkpt lat="44.90363" lon="4.19326">
        <ele>1458.94</ele>
        <time>2002-03-28T14:24:28Z</time>
      </trkpt>
      <trkpt lat="44.90365" lon="4.19334">
        <ele>1458.46</ele>
        <time>2002-03-28T14:24:32Z</time>
      </trkpt>
      <trkpt lat="44.90371" lon="4.19347">
        <ele>1459.42</ele>
        <time>2002-03-28T14:24:40Z</time>
      </trkpt>
      <trkpt lat="44.90372" lon="4.1935">
        <ele>1459.42</ele>
        <time>2002-03-28T14:24:42Z</time>
      </trkpt>
      <trkpt lat="44.90377" lon="4.19367">
        <ele>1459.9</ele>
        <time>2002-03-28T14:24:55Z</time>
      </trkpt>
      <trkpt lat="44.90377" lon="4.19369">
        <ele>1459.9</ele>
        <time>2002-03-28T14:24:56Z</time>
      </trkpt>
      <trkpt lat="44.90383" lon="4.1938">
        <ele>1460.38</ele>
        <time>2002-03-28T14:25:04Z</time>
      </trkpt>
      <trkpt lat="44.90383" lon="4.19382">
        <ele>1460.86</ele>
        <time>2002-03-28T14:26:22Z</time>
      </trkpt>
      <trkpt lat="44.90387" lon="4.19393">
        <ele>1460.86</ele>
        <time>2002-03-28T14:26:29Z</time>
      </trkpt>
      <trkpt lat="44.90393" lon="4.1941">
        <ele>1460.86</ele>
        <time>2002-03-28T14:26:40Z</time>
      </trkpt>
      <trkpt lat="44.90395" lon="4.19416">
        <ele>1460.86</ele>
        <time>2002-03-28T14:26:44Z</time>
      </trkpt>
      <trkpt lat="44.90398" lon="4.19434">
        <ele>1461.34</ele>
        <time>2002-03-28T14:26:55Z</time>
      </trkpt>
      <trkpt lat="44.90397" lon="4.19445">
        <ele>1461.34</ele>
        <time>2002-03-28T14:27:04Z</time>
      </trkpt>
      <trkpt lat="44.90399" lon="4.19459">
        <ele>1461.82</ele>
        <time>2002-03-28T14:27:14Z</time>
      </trkpt>
      <trkpt lat="44.90399" lon="4.19479">
        <ele>1462.78</ele>
        <time>2002-03-28T14:27:27Z</time>
      </trkpt>
      <trkpt lat="44.904" lon="4.19499">
        <ele>1462.78</ele>
        <time>2002-03-28T14:27:37Z</time>
      </trkpt>
      <trkpt lat="44.904" lon="4.19512">
        <ele>1463.26</ele>
        <time>2002-03-28T14:27:44Z</time>
      </trkpt>
      <trkpt lat="44.90401" lon="4.19524">
        <ele>1463.74</ele>
        <time>2002-03-28T14:27:50Z</time>
      </trkpt>
      <trkpt lat="44.90402" lon="4.19548">
        <ele>1463.74</ele>
        <time>2002-03-28T14:28:04Z</time>
      </trkpt>
      <trkpt lat="44.90399" lon="4.19565">
        <ele>1464.23</ele>
        <time>2002-03-28T14:28:14Z</time>
      </trkpt>
      <trkpt lat="44.90396" lon="4.19576">
        <ele>1464.23</ele>
        <time>2002-03-28T14:28:20Z</time>
      </trkpt>
      <trkpt lat="44.90393" lon="4.19593">
        <ele>1464.23</ele>
        <time>2002-03-28T14:28:29Z</time>
      </trkpt>
      <trkpt lat="44.9039" lon="4.196">
        <ele>1464.71</ele>
        <time>2002-03-28T14:28:34Z</time>
      </trkpt>
      <trkpt lat="44.90387" lon="4.19606">
        <ele>1464.71</ele>
        <time>2002-03-28T14:28:38Z</time>
      </trkpt>
      <trkpt lat="44.90383" lon="4.1962">
        <ele>1465.19</ele>
        <time>2002-03-28T14:28:46Z</time>
      </trkpt>
      <trkpt lat="44.90385" lon="4.19635">
        <ele>1463.74</ele>
        <time>2002-03-28T14:28:57Z</time>
      </trkpt>
      <trkpt lat="44.90386" lon="4.19637">
        <ele>1462.3</ele>
        <time>2002-03-28T14:29:00Z</time>
      </trkpt>
      <trkpt lat="44.90395" lon="4.19651">
        <ele>1459.9</ele>
        <time>2002-03-28T14:29:14Z</time>
      </trkpt>
      <trkpt lat="44.90402" lon="4.19665">
        <ele>1457.02</ele>
        <time>2002-03-28T14:29:25Z</time>
      </trkpt>
      <trkpt lat="44.904" lon="4.19678">
        <ele>1455.57</ele>
        <time>2002-03-28T14:29:34Z</time>
      </trkpt>
      <trkpt lat="44.90396" lon="4.19695">
        <ele>1452.69</ele>
        <time>2002-03-28T14:29:46Z</time>
      </trkpt>
      <trkpt lat="44.90388" lon="4.19707">
        <ele>1451.25</ele>
        <time>2002-03-28T14:30:00Z</time>
      </trkpt>
      <trkpt lat="44.90385" lon="4.1971">
        <ele>1449.32</ele>
        <time>2002-03-28T14:34:33Z</time>
      </trkpt>
      <trkpt lat="44.90384" lon="4.19724">
        <ele>1448.36</ele>
        <time>2002-03-28T14:36:54Z</time>
      </trkpt>
      <trkpt lat="44.90378" lon="4.19736">
        <ele>1446.44</ele>
        <time>2002-03-28T14:37:05Z</time>
      </trkpt>
      <trkpt lat="44.90378" lon="4.19745">
        <ele>1445.96</ele>
        <time>2002-03-28T14:37:10Z</time>
      </trkpt>
      <trkpt lat="44.90381" lon="4.19752">
        <ele>1443.08</ele>
        <time>2002-03-28T14:37:20Z</time>
      </trkpt>
      <trkpt lat="44.90385" lon="4.19756">
        <ele>1442.11</ele>
        <time>2002-03-28T14:37:29Z</time>
      </trkpt>
      <trkpt lat="44.90392" lon="4.19761">
        <ele>1440.67</ele>
        <time>2002-03-28T14:37:39Z</time>
      </trkpt>
      <trkpt lat="44.90396" lon="4.19764">
        <ele>1439.23</ele>
        <time>2002-03-28T14:37:51Z</time>
      </trkpt>
      <trkpt lat="44.90402" lon="4.19764">
        <ele>1437.79</ele>
        <time>2002-03-28T14:38:01Z</time>
      </trkpt>
      <trkpt lat="44.90411" lon="4.19767">
        <ele>1435.87</ele>
        <time>2002-03-28T14:38:13Z</time>
      </trkpt>
      <trkpt lat="44.90431" lon="4.19778">
        <ele>1433.94</ele>
        <time>2002-03-28T14:38:26Z</time>
      </trkpt>
      <trkpt lat="44.90457" lon="4.19793">
        <ele>1431.06</ele>
        <time>2002-03-28T14:38:39Z</time>
      </trkpt>
      <trkpt lat="44.90457" lon="4.19795">
        <ele>1431.54</ele>
        <time>2002-03-28T14:38:40Z</time>
      </trkpt>
      <trkpt lat="44.90462" lon="4.19813">
        <ele>1428.18</ele>
        <time>2002-03-28T14:38:53Z</time>
      </trkpt>
      <trkpt lat="44.90454" lon="4.19823">
        <ele>1425.77</ele>
        <time>2002-03-28T14:39:11Z</time>
      </trkpt>
      <trkpt lat="44.90446" lon="4.19831">
        <ele>1424.33</ele>
        <time>2002-03-28T14:39:22Z</time>
      </trkpt>
      <trkpt lat="44.90435" lon="4.19836">
        <ele>1422.89</ele>
        <time>2002-03-28T14:39:35Z</time>
      </trkpt>
      <trkpt lat="44.90427" lon="4.19844">
        <ele>1420</ele>
        <time>2002-03-28T14:39:46Z</time>
      </trkpt>
      <trkpt lat="44.9042" lon="4.19856">
        <ele>1418.08</ele>
        <time>2002-03-28T14:39:56Z</time>
      </trkpt>
      <trkpt lat="44.90421" lon="4.19862">
        <ele>1416.64</ele>
        <time>2002-03-28T14:40:06Z</time>
      </trkpt>
      <trkpt lat="44.90426" lon="4.19875">
        <ele>1414.72</ele>
        <time>2002-03-28T14:40:18Z</time>
      </trkpt>
      <trkpt lat="44.90433" lon="4.19889">
        <ele>1413.28</ele>
        <time>2002-03-28T14:40:29Z</time>
      </trkpt>
      <trkpt lat="44.90441" lon="4.19896">
        <ele>1412.31</ele>
        <time>2002-03-28T14:40:39Z</time>
      </trkpt>
      <trkpt lat="44.90449" lon="4.19909">
        <ele>1410.39</ele>
        <time>2002-03-28T14:40:51Z</time>
      </trkpt>
      <trkpt lat="44.90454" lon="4.19911">
        <ele>1408.95</ele>
        <time>2002-03-28T14:40:56Z</time>
      </trkpt>
      <trkpt lat="44.90465" lon="4.1992">
        <ele>1406.55</ele>
        <time>2002-03-28T14:41:09Z</time>
      </trkpt>
      <trkpt lat="44.90475" lon="4.19928">
        <ele>1405.1</ele>
        <time>2002-03-28T14:41:20Z</time>
      </trkpt>
      <trkpt lat="44.90481" lon="4.19931">
        <ele>1403.66</ele>
        <time>2002-03-28T14:41:29Z</time>
      </trkpt>
      <trkpt lat="44.90488" lon="4.19929">
        <ele>1401.74</ele>
        <time>2002-03-28T14:41:41Z</time>
      </trkpt>
      <trkpt lat="44.90496" lon="4.19925">
        <ele>1400.3</ele>
        <time>2002-03-28T14:41:52Z</time>
      </trkpt>
      <trkpt lat="44.90505" lon="4.19928">
        <ele>1398.86</ele>
        <time>2002-03-28T14:42:03Z</time>
      </trkpt>
      <trkpt lat="44.90504" lon="4.19934">
        <ele>1396.45</ele>
        <time>2002-03-28T14:42:14Z</time>
      </trkpt>
      <trkpt lat="44.90503" lon="4.19935">
        <ele>1396.45</ele>
        <time>2002-03-28T14:42:15Z</time>
      </trkpt>
      <trkpt lat="44.90496" lon="4.19943">
        <ele>1394.53</ele>
        <time>2002-03-28T14:42:27Z</time>
      </trkpt>
      <trkpt lat="44.90492" lon="4.19951">
        <ele>1393.57</ele>
        <time>2002-03-28T14:42:37Z</time>
      </trkpt>
      <trkpt lat="44.90491" lon="4.19954">
        <ele>1393.09</ele>
        <time>2002-03-28T14:42:40Z</time>
      </trkpt>
      <trkpt lat="44.90486" lon="4.19965">
        <ele>1391.65</ele>
        <time>2002-03-28T14:42:51Z</time>
      </trkpt>
      <trkpt lat="44.90475" lon="4.19977">
        <ele>1388.76</ele>
        <time>2002-03-28T14:43:05Z</time>
      </trkpt>
      <trkpt lat="44.90469" lon="4.19982">
        <ele>1386.84</ele>
        <time>2002-03-28T14:43:17Z</time>
      </trkpt>
      <trkpt lat="44.90459" lon="4.19984">
        <ele>1384.92</ele>
        <time>2002-03-28T14:43:29Z</time>
      </trkpt>
      <trkpt lat="44.90451" lon="4.19985">
        <ele>1384.44</ele>
        <time>2002-03-28T14:43:38Z</time>
      </trkpt>
      <trkpt lat="44.90444" lon="4.19988">
        <ele>1383.47</ele>
        <time>2002-03-28T14:43:43Z</time>
      </trkpt>
      <trkpt lat="44.90433" lon="4.19992">
        <ele>1382.51</ele>
        <time>2002-03-28T14:43:54Z</time>
      </trkpt>
      <trkpt lat="44.90432" lon="4.19997">
        <ele>1379.15</ele>
        <time>2002-03-28T14:44:04Z</time>
      </trkpt>
      <trkpt lat="44.90435" lon="4.20003">
        <ele>1379.15</ele>
        <time>2002-03-28T14:44:10Z</time>
      </trkpt>
      <trkpt lat="44.90446" lon="4.20004">
        <ele>1376.75</ele>
        <time>2002-03-28T14:44:22Z</time>
      </trkpt>
      <trkpt lat="44.90453" lon="4.2001">
        <ele>1373.38</ele>
        <time>2002-03-28T14:44:32Z</time>
      </trkpt>
      <trkpt lat="44.90459" lon="4.20029">
        <ele>1371.94</ele>
        <time>2002-03-28T14:44:47Z</time>
      </trkpt>
      <trkpt lat="44.9046" lon="4.20041">
        <ele>1368.57</ele>
        <time>2002-03-28T14:44:58Z</time>
      </trkpt>
      <trkpt lat="44.90456" lon="4.20059">
        <ele>1365.69</ele>
        <time>2002-03-28T14:45:11Z</time>
      </trkpt>
      <trkpt lat="44.90453" lon="4.20075">
        <ele>1362.33</ele>
        <time>2002-03-28T14:45:29Z</time>
      </trkpt>
      <trkpt lat="44.90447" lon="4.20094">
        <ele>1359.92</ele>
        <time>2002-03-28T14:45:42Z</time>
      </trkpt>
      <trkpt lat="44.90442" lon="4.20116">
        <ele>1358.96</ele>
        <time>2002-03-28T14:45:57Z</time>
      </trkpt>
      <trkpt lat="44.90447" lon="4.20144">
        <ele>1356.08</ele>
        <time>2002-03-28T14:46:12Z</time>
      </trkpt>
      <trkpt lat="44.90453" lon="4.20166">
        <ele>1354.63</ele>
        <time>2002-03-28T14:46:23Z</time>
      </trkpt>
      <trkpt lat="44.90456" lon="4.20175">
        <ele>1353.67</ele>
        <time>2002-03-28T14:46:38Z</time>
      </trkpt>
      <trkpt lat="44.90455" lon="4.20184">
        <ele>1353.67</ele>
        <time>2002-03-28T14:46:56Z</time>
      </trkpt>
      <trkpt lat="44.90461" lon="4.20211">
        <ele>1351.75</ele>
        <time>2002-03-28T14:47:10Z</time>
      </trkpt>
      <trkpt lat="44.9047" lon="4.20238">
        <ele>1349.35</ele>
        <time>2002-03-28T14:47:25Z</time>
      </trkpt>
      <trkpt lat="44.90478" lon="4.20257">
        <ele>1347.91</ele>
        <time>2002-03-28T14:47:37Z</time>
      </trkpt>
      <trkpt lat="44.90491" lon="4.20269">
        <ele>1347.43</ele>
        <time>2002-03-28T14:47:50Z</time>
      </trkpt>
      <trkpt lat="44.90493" lon="4.20272">
        <ele>1347.43</ele>
        <time>2002-03-28T14:47:53Z</time>
      </trkpt>
      <trkpt lat="44.90497" lon="4.2028">
        <ele>1346.46</ele>
        <time>2002-03-28T14:48:11Z</time>
      </trkpt>
      <trkpt lat="44.90499" lon="4.20287">
        <ele>1346.46</ele>
        <time>2002-03-28T14:48:18Z</time>
      </trkpt>
      <trkpt lat="44.905" lon="4.20295">
        <ele>1345.98</ele>
        <time>2002-03-28T14:48:22Z</time>
      </trkpt>
      <trkpt lat="44.90504" lon="4.20304">
        <ele>1345.02</ele>
        <time>2002-03-28T14:48:30Z</time>
      </trkpt>
      <trkpt lat="44.90504" lon="4.2032">
        <ele>1344.06</ele>
        <time>2002-03-28T14:48:42Z</time>
      </trkpt>
      <trkpt lat="44.90505" lon="4.20326">
        <ele>1343.58</ele>
        <time>2002-03-28T14:48:46Z</time>
      </trkpt>
      <trkpt lat="44.90506" lon="4.20344">
        <ele>1342.62</ele>
        <time>2002-03-28T14:48:56Z</time>
      </trkpt>
      <trkpt lat="44.90511" lon="4.20364">
        <ele>1342.14</ele>
        <time>2002-03-28T14:49:09Z</time>
      </trkpt>
      <trkpt lat="44.90513" lon="4.20372">
        <ele>1340.7</ele>
        <time>2002-03-28T14:49:15Z</time>
      </trkpt>
      <trkpt lat="44.90516" lon="4.20391">
        <ele>1339.25</ele>
        <time>2002-03-28T14:49:26Z</time>
      </trkpt>
      <trkpt lat="44.9052" lon="4.20413">
        <ele>1339.25</ele>
        <time>2002-03-28T14:49:38Z</time>
      </trkpt>
      <trkpt lat="44.90527" lon="4.20439">
        <ele>1337.33</ele>
        <time>2002-03-28T14:49:51Z</time>
      </trkpt>
      <trkpt lat="44.90529" lon="4.2045">
        <ele>1336.37</ele>
        <time>2002-03-28T14:49:55Z</time>
      </trkpt>
      <trkpt lat="44.9053" lon="4.20465">
        <ele>1335.89</ele>
        <time>2002-03-28T14:50:01Z</time>
      </trkpt>
      <trkpt lat="44.90534" lon="4.20485">
        <ele>1333.97</ele>
        <time>2002-03-28T14:50:12Z</time>
      </trkpt>
      <trkpt lat="44.90537" lon="4.20497">
        <ele>1333.49</ele>
        <time>2002-03-28T14:50:19Z</time>
      </trkpt>
      <trkpt lat="44.9054" lon="4.20505">
        <ele>1332.52</ele>
        <time>2002-03-28T14:50:23Z</time>
      </trkpt>
      <trkpt lat="44.90542" lon="4.20512">
        <ele>1331.56</ele>
        <time>2002-03-28T14:50:27Z</time>
      </trkpt>
      <trkpt lat="44.90544" lon="4.20516">
        <ele>1331.56</ele>
        <time>2002-03-28T14:50:30Z</time>
      </trkpt>
      <trkpt lat="44.90549" lon="4.20522">
        <ele>1330.12</ele>
        <time>2002-03-28T14:50:36Z</time>
      </trkpt>
      <trkpt lat="44.90551" lon="4.20525">
        <ele>1330.12</ele>
        <time>2002-03-28T14:50:40Z</time>
      </trkpt>
      <trkpt lat="44.90553" lon="4.20526">
        <ele>1329.64</ele>
        <time>2002-03-28T14:50:42Z</time>
      </trkpt>
      <trkpt lat="44.90558" lon="4.20538">
        <ele>1327.72</ele>
        <time>2002-03-28T14:50:53Z</time>
      </trkpt>
      <trkpt lat="44.90569" lon="4.20551">
        <ele>1326.28</ele>
        <time>2002-03-28T14:51:05Z</time>
      </trkpt>
      <trkpt lat="44.90578" lon="4.2056">
        <ele>1325.8</ele>
        <time>2002-03-28T14:51:15Z</time>
      </trkpt>
      <trkpt lat="44.90584" lon="4.20566">
        <ele>1325.8</ele>
        <time>2002-03-28T14:51:20Z</time>
      </trkpt>
      <trkpt lat="44.90589" lon="4.20568">
        <ele>1325.31</ele>
        <time>2002-03-28T14:51:28Z</time>
      </trkpt>
      <trkpt lat="44.90601" lon="4.20573">
        <ele>1325.31</ele>
        <time>2002-03-28T14:51:40Z</time>
      </trkpt>
      <trkpt lat="44.90602" lon="4.20574">
        <ele>1324.83</ele>
        <time>2002-03-28T14:51:42Z</time>
      </trkpt>
      <trkpt lat="44.9062" lon="4.20573">
        <ele>1324.83</ele>
        <time>2002-03-28T14:51:54Z</time>
      </trkpt>
      <trkpt lat="44.90624" lon="4.20574">
        <ele>1324.35</ele>
        <time>2002-03-28T14:51:57Z</time>
      </trkpt>
      <trkpt lat="44.90638" lon="4.20575">
        <ele>1323.87</ele>
        <time>2002-03-28T14:52:06Z</time>
      </trkpt>
      <trkpt lat="44.90651" lon="4.20577">
        <ele>1322.91</ele>
        <time>2002-03-28T14:52:17Z</time>
      </trkpt>
      <trkpt lat="44.90663" lon="4.20576">
        <ele>1322.43</ele>
        <time>2002-03-28T14:52:26Z</time>
      </trkpt>
      <trkpt lat="44.90672" lon="4.20577">
        <ele>1322.43</ele>
        <time>2002-03-28T14:52:32Z</time>
      </trkpt>
      <trkpt lat="44.9068" lon="4.20579">
        <ele>1321.47</ele>
        <time>2002-03-28T14:52:38Z</time>
      </trkpt>
      <trkpt lat="44.90697" lon="4.20576">
        <ele>1320.99</ele>
        <time>2002-03-28T14:52:51Z</time>
      </trkpt>
      <trkpt lat="44.9071" lon="4.20575">
        <ele>1321.47</ele>
        <time>2002-03-28T14:53:02Z</time>
      </trkpt>
      <trkpt lat="44.90711" lon="4.20576">
        <ele>1320.51</ele>
        <time>2002-03-28T14:53:32Z</time>
      </trkpt>
      <trkpt lat="44.90719" lon="4.20575">
        <ele>1321.95</ele>
        <time>2002-03-28T14:55:55Z</time>
      </trkpt>
      <trkpt lat="44.90728" lon="4.20572">
        <ele>1321.47</ele>
        <time>2002-03-28T14:56:04Z</time>
      </trkpt>
      <trkpt lat="44.9075" lon="4.20574">
        <ele>1319.55</ele>
        <time>2002-03-28T14:56:17Z</time>
      </trkpt>
      <trkpt lat="44.90752" lon="4.20574">
        <ele>1319.07</ele>
        <time>2002-03-28T14:56:18Z</time>
      </trkpt>
      <trkpt lat="44.9076" lon="4.20579">
        <ele>1319.07</ele>
        <time>2002-03-28T14:56:36Z</time>
      </trkpt>
      <trkpt lat="44.90762" lon="4.20582">
        <ele>1318.59</ele>
        <time>2002-03-28T14:58:14Z</time>
      </trkpt>
      <trkpt lat="44.90772" lon="4.20581">
        <ele>1319.07</ele>
        <time>2002-03-28T14:58:25Z</time>
      </trkpt>
      <trkpt lat="44.90779" lon="4.20583">
        <ele>1319.07</ele>
        <time>2002-03-28T14:58:29Z</time>
      </trkpt>
      <trkpt lat="44.90789" lon="4.20581">
        <ele>1319.07</ele>
        <time>2002-03-28T14:58:41Z</time>
      </trkpt>
      <trkpt lat="44.90798" lon="4.20575">
        <ele>1318.59</ele>
        <time>2002-03-28T14:58:52Z</time>
      </trkpt>
      <trkpt lat="44.90809" lon="4.20569">
        <ele>1319.07</ele>
        <time>2002-03-28T14:59:03Z</time>
      </trkpt>
      <trkpt lat="44.9081" lon="4.20569">
        <ele>1319.55</ele>
        <time>2002-03-28T14:59:05Z</time>
      </trkpt>
      <trkpt lat="44.90821" lon="4.20572">
        <ele>1318.59</ele>
        <time>2002-03-28T14:59:20Z</time>
      </trkpt>
      <trkpt lat="44.90826" lon="4.20572">
        <ele>1319.07</ele>
        <time>2002-03-28T14:59:23Z</time>
      </trkpt>
      <trkpt lat="44.90833" lon="4.20575">
        <ele>1319.07</ele>
        <time>2002-03-28T14:59:27Z</time>
      </trkpt>
      <trkpt lat="44.90854" lon="4.20583">
        <ele>1318.59</ele>
        <time>2002-03-28T14:59:40Z</time>
      </trkpt>
      <trkpt lat="44.90876" lon="4.20588">
        <ele>1318.1</ele>
        <time>2002-03-28T14:59:53Z</time>
      </trkpt>
      <trkpt lat="44.90881" lon="4.20588">
        <ele>1318.59</ele>
        <time>2002-03-28T14:59:56Z</time>
      </trkpt>
      <trkpt lat="44.909" lon="4.20597">
        <ele>1317.62</ele>
        <time>2002-03-28T15:00:08Z</time>
      </trkpt>
      <trkpt lat="44.90909" lon="4.20607">
        <ele>1317.14</ele>
        <time>2002-03-28T15:00:16Z</time>
      </trkpt>
      <trkpt lat="44.90911" lon="4.20609">
        <ele>1317.14</ele>
        <time>2002-03-28T15:00:18Z</time>
      </trkpt>
      <trkpt lat="44.90915" lon="4.20615">
        <ele>1316.18</ele>
        <time>2002-03-28T15:00:24Z</time>
      </trkpt>
      <trkpt lat="44.90924" lon="4.20625">
        <ele>1316.18</ele>
        <time>2002-03-28T15:00:32Z</time>
      </trkpt>
      <trkpt lat="44.90929" lon="4.20627">
        <ele>1316.18</ele>
        <time>2002-03-28T15:00:36Z</time>
      </trkpt>
      <trkpt lat="44.90943" lon="4.20627">
        <ele>1314.26</ele>
        <time>2002-03-28T15:00:48Z</time>
      </trkpt>
      <trkpt lat="44.90953" lon="4.20622">
        <ele>1314.26</ele>
        <time>2002-03-28T15:00:58Z</time>
      </trkpt>
      <trkpt lat="44.9096" lon="4.2062">
        <ele>1313.78</ele>
        <time>2002-03-28T15:01:03Z</time>
      </trkpt>
      <trkpt lat="44.90972" lon="4.2062">
        <ele>1313.78</ele>
        <time>2002-03-28T15:01:09Z</time>
      </trkpt>
      <trkpt lat="44.90984" lon="4.20622">
        <ele>1313.3</ele>
        <time>2002-03-28T15:01:15Z</time>
      </trkpt>
      <trkpt lat="44.91012" lon="4.2063">
        <ele>1312.82</ele>
        <time>2002-03-28T15:01:29Z</time>
      </trkpt>
      <trkpt lat="44.91029" lon="4.20639">
        <ele>1311.86</ele>
        <time>2002-03-28T15:01:40Z</time>
      </trkpt>
      <trkpt lat="44.9104" lon="4.20647">
        <ele>1311.86</ele>
        <time>2002-03-28T15:01:48Z</time>
      </trkpt>
      <trkpt lat="44.91056" lon="4.2066">
        <ele>1310.9</ele>
        <time>2002-03-28T15:02:00Z</time>
      </trkpt>
      <trkpt lat="44.91058" lon="4.20661">
        <ele>1310.9</ele>
        <time>2002-03-28T15:02:01Z</time>
      </trkpt>
      <trkpt lat="44.91063" lon="4.20668">
        <ele>1310.41</ele>
        <time>2002-03-28T15:02:06Z</time>
      </trkpt>
      <trkpt lat="44.91066" lon="4.20673">
        <ele>1310.9</ele>
        <time>2002-03-28T15:02:09Z</time>
      </trkpt>
      <trkpt lat="44.91072" lon="4.20677">
        <ele>1310.41</ele>
        <time>2002-03-28T15:02:13Z</time>
      </trkpt>
      <trkpt lat="44.91075" lon="4.20686">
        <ele>1310.41</ele>
        <time>2002-03-28T15:02:19Z</time>
      </trkpt>
      <trkpt lat="44.91086" lon="4.20697">
        <ele>1309.45</ele>
        <time>2002-03-28T15:02:28Z</time>
      </trkpt>
      <trkpt lat="44.91089" lon="4.207">
        <ele>1308.97</ele>
        <time>2002-03-28T15:02:30Z</time>
      </trkpt>
      <trkpt lat="44.91095" lon="4.20708">
        <ele>1308.49</ele>
        <time>2002-03-28T15:02:36Z</time>
      </trkpt>
      <trkpt lat="44.91114" lon="4.20725">
        <ele>1308.01</ele>
        <time>2002-03-28T15:02:51Z</time>
      </trkpt>
      <trkpt lat="44.91135" lon="4.20733">
        <ele>1307.05</ele>
        <time>2002-03-28T15:03:05Z</time>
      </trkpt>
      <trkpt lat="44.91154" lon="4.20733">
        <ele>1305.61</ele>
        <time>2002-03-28T15:03:18Z</time>
      </trkpt>
      <trkpt lat="44.91162" lon="4.2073">
        <ele>1306.09</ele>
        <time>2002-03-28T15:03:24Z</time>
      </trkpt>
      <trkpt lat="44.91171" lon="4.20726">
        <ele>1305.13</ele>
        <time>2002-03-28T15:03:34Z</time>
      </trkpt>
      <trkpt lat="44.91188" lon="4.20718">
        <ele>1305.13</ele>
        <time>2002-03-28T15:03:46Z</time>
      </trkpt>
      <trkpt lat="44.91208" lon="4.20717">
        <ele>1305.13</ele>
        <time>2002-03-28T15:03:57Z</time>
      </trkpt>
      <trkpt lat="44.91233" lon="4.20719">
        <ele>1304.65</ele>
        <time>2002-03-28T15:04:12Z</time>
      </trkpt>
      <trkpt lat="44.91251" lon="4.20724">
        <ele>1304.17</ele>
        <time>2002-03-28T15:04:24Z</time>
      </trkpt>
      <trkpt lat="44.91271" lon="4.20727">
        <ele>1303.69</ele>
        <time>2002-03-28T15:04:37Z</time>
      </trkpt>
      <trkpt lat="44.91292" lon="4.20729">
        <ele>1304.17</ele>
        <time>2002-03-28T15:04:50Z</time>
      </trkpt>
      <trkpt lat="44.91297" lon="4.2073">
        <ele>1303.69</ele>
        <time>2002-03-28T15:04:54Z</time>
      </trkpt>
      <trkpt lat="44.91314" lon="4.2073">
        <ele>1303.69</ele>
        <time>2002-03-28T15:05:06Z</time>
      </trkpt>
      <trkpt lat="44.91328" lon="4.20725">
        <ele>1304.17</ele>
        <time>2002-03-28T15:05:17Z</time>
      </trkpt>
      <trkpt lat="44.91334" lon="4.20722">
        <ele>1303.69</ele>
        <time>2002-03-28T15:05:22Z</time>
      </trkpt>
      <trkpt lat="44.91345" lon="4.20715">
        <ele>1304.17</ele>
        <time>2002-03-28T15:05:33Z</time>
      </trkpt>
      <trkpt lat="44.91351" lon="4.20711">
        <ele>1304.17</ele>
        <time>2002-03-28T15:05:40Z</time>
      </trkpt>
      <trkpt lat="44.91371" lon="4.20706">
        <ele>1304.65</ele>
        <time>2002-03-28T15:05:52Z</time>
      </trkpt>
      <trkpt lat="44.91387" lon="4.20702">
        <ele>1304.17</ele>
        <time>2002-03-28T15:06:01Z</time>
      </trkpt>
      <trkpt lat="44.91401" lon="4.20699">
        <ele>1303.69</ele>
        <time>2002-03-28T15:06:10Z</time>
      </trkpt>
      <trkpt lat="44.9142" lon="4.20694">
        <ele>1304.17</ele>
        <time>2002-03-28T15:06:22Z</time>
      </trkpt>
      <trkpt lat="44.91434" lon="4.20689">
        <ele>1304.65</ele>
        <time>2002-03-28T15:06:34Z</time>
      </trkpt>
      <trkpt lat="44.91441" lon="4.20687">
        <ele>1304.65</ele>
        <time>2002-03-28T15:06:40Z</time>
      </trkpt>
      <trkpt lat="44.91455" lon="4.20686">
        <ele>1304.65</ele>
        <time>2002-03-28T15:06:52Z</time>
      </trkpt>
      <trkpt lat="44.91471" lon="4.20689">
        <ele>1304.65</ele>
        <time>2002-03-28T15:07:04Z</time>
      </trkpt>
      <trkpt lat="44.9149" lon="4.20692">
        <ele>1305.61</ele>
        <time>2002-03-28T15:07:19Z</time>
      </trkpt>
      <trkpt lat="44.91512" lon="4.20695">
        <ele>1305.61</ele>
        <time>2002-03-28T15:07:33Z</time>
      </trkpt>
      <trkpt lat="44.91527" lon="4.20698">
        <ele>1305.61</ele>
        <time>2002-03-28T15:07:43Z</time>
      </trkpt>
      <trkpt lat="44.91543" lon="4.20702">
        <ele>1306.09</ele>
        <time>2002-03-28T15:07:55Z</time>
      </trkpt>
      <trkpt lat="44.91557" lon="4.20702">
        <ele>1307.05</ele>
        <time>2002-03-28T15:08:06Z</time>
      </trkpt>
      <trkpt lat="44.91563" lon="4.207">
        <ele>1306.57</ele>
        <time>2002-03-28T15:08:10Z</time>
      </trkpt>
      <trkpt lat="44.91573" lon="4.20698">
        <ele>1306.57</ele>
        <time>2002-03-28T15:08:17Z</time>
      </trkpt>
      <trkpt lat="44.91583" lon="4.20693">
        <ele>1307.05</ele>
        <time>2002-03-28T15:08:27Z</time>
      </trkpt>
      <trkpt lat="44.91596" lon="4.20687">
        <ele>1307.53</ele>
        <time>2002-03-28T15:08:39Z</time>
      </trkpt>
      <trkpt lat="44.91607" lon="4.20681">
        <ele>1307.05</ele>
        <time>2002-03-28T15:08:50Z</time>
      </trkpt>
      <trkpt lat="44.91621" lon="4.20677">
        <ele>1306.57</ele>
        <time>2002-03-28T15:09:01Z</time>
      </trkpt>
      <trkpt lat="44.91625" lon="4.20675">
        <ele>1307.05</ele>
        <time>2002-03-28T15:09:04Z</time>
      </trkpt>
      <trkpt lat="44.91634" lon="4.20671">
        <ele>1306.57</ele>
        <time>2002-03-28T15:09:14Z</time>
      </trkpt>
      <trkpt lat="44.91639" lon="4.20667">
        <ele>1307.53</ele>
        <time>2002-03-28T15:09:24Z</time>
      </trkpt>
      <trkpt lat="44.91648" lon="4.20665">
        <ele>1308.01</ele>
        <time>2002-03-28T15:09:38Z</time>
      </trkpt>
      <trkpt lat="44.91654" lon="4.20663">
        <ele>1307.53</ele>
        <time>2002-03-28T15:09:43Z</time>
      </trkpt>
      <trkpt lat="44.91668" lon="4.20661">
        <ele>1308.01</ele>
        <time>2002-03-28T15:09:53Z</time>
      </trkpt>
      <trkpt lat="44.91677" lon="4.2066">
        <ele>1307.53</ele>
        <time>2002-03-28T15:10:00Z</time>
      </trkpt>
      <trkpt lat="44.91679" lon="4.20659">
        <ele>1307.05</ele>
        <time>2002-03-28T15:10:04Z</time>
      </trkpt>
      <trkpt lat="44.91684" lon="4.2066">
        <ele>1307.05</ele>
        <time>2002-03-28T15:10:06Z</time>
      </trkpt>
      <trkpt lat="44.91698" lon="4.2066">
        <ele>1307.05</ele>
        <time>2002-03-28T15:10:11Z</time>
      </trkpt>
      <trkpt lat="44.91721" lon="4.20659">
        <ele>1307.05</ele>
        <time>2002-03-28T15:10:22Z</time>
      </trkpt>
      <trkpt lat="44.91741" lon="4.20661">
        <ele>1306.57</ele>
        <time>2002-03-28T15:10:30Z</time>
      </trkpt>
      <trkpt lat="44.91765" lon="4.20666">
        <ele>1306.09</ele>
        <time>2002-03-28T15:10:42Z</time>
      </trkpt>
      <trkpt lat="44.91774" lon="4.20671">
        <ele>1306.09</ele>
        <time>2002-03-28T15:10:48Z</time>
      </trkpt>
      <trkpt lat="44.91781" lon="4.20676">
        <ele>1307.05</ele>
        <time>2002-03-28T15:10:54Z</time>
      </trkpt>
      <trkpt lat="44.91788" lon="4.20685">
        <ele>1307.53</ele>
        <time>2002-03-28T15:11:03Z</time>
      </trkpt>
      <trkpt lat="44.91795" lon="4.20703">
        <ele>1308.49</ele>
        <time>2002-03-28T15:11:14Z</time>
      </trkpt>
      <trkpt lat="44.91796" lon="4.20705">
        <ele>1308.49</ele>
        <time>2002-03-28T15:11:15Z</time>
      </trkpt>
      <trkpt lat="44.918" lon="4.20714">
        <ele>1308.97</ele>
        <time>2002-03-28T15:11:20Z</time>
      </trkpt>
      <trkpt lat="44.91812" lon="4.2074">
        <ele>1308.97</ele>
        <time>2002-03-28T15:11:34Z</time>
      </trkpt>
      <trkpt lat="44.9182" lon="4.20763">
        <ele>1309.45</ele>
        <time>2002-03-28T15:11:45Z</time>
      </trkpt>
      <trkpt lat="44.91821" lon="4.20772">
        <ele>1309.93</ele>
        <time>2002-03-28T15:11:50Z</time>
      </trkpt>
      <trkpt lat="44.91833" lon="4.20801">
        <ele>1309.93</ele>
        <time>2002-03-28T15:12:05Z</time>
      </trkpt>
      <trkpt lat="44.91845" lon="4.20823">
        <ele>1309.45</ele>
        <time>2002-03-28T15:12:18Z</time>
      </trkpt>
      <trkpt lat="44.91847" lon="4.20829">
        <ele>1309.93</ele>
        <time>2002-03-28T15:12:22Z</time>
      </trkpt>
      <trkpt lat="44.91858" lon="4.20848">
        <ele>1309.45</ele>
        <time>2002-03-28T15:12:34Z</time>
      </trkpt>
      <trkpt lat="44.91866" lon="4.20861">
        <ele>1308.49</ele>
        <time>2002-03-28T15:12:43Z</time>
      </trkpt>
      <trkpt lat="44.91883" lon="4.20879">
        <ele>1308.49</ele>
        <time>2002-03-28T15:12:56Z</time>
      </trkpt>
      <trkpt lat="44.91895" lon="4.20887">
        <ele>1308.49</ele>
        <time>2002-03-28T15:13:05Z</time>
      </trkpt>
      <trkpt lat="44.91913" lon="4.20898">
        <ele>1307.53</ele>
        <time>2002-03-28T15:13:18Z</time>
      </trkpt>
      <trkpt lat="44.9193" lon="4.20911">
        <ele>1306.57</ele>
        <time>2002-03-28T15:13:31Z</time>
      </trkpt>
      <trkpt lat="44.91944" lon="4.20926">
        <ele>1305.13</ele>
        <time>2002-03-28T15:13:43Z</time>
      </trkpt>
      <trkpt lat="44.91948" lon="4.20937">
        <ele>1304.17</ele>
        <time>2002-03-28T15:13:49Z</time>
      </trkpt>
      <trkpt lat="44.91949" lon="4.20956">
        <ele>1303.2</ele>
        <time>2002-03-28T15:13:58Z</time>
      </trkpt>
      <trkpt lat="44.9194" lon="4.20984">
        <ele>1300.8</ele>
        <time>2002-03-28T15:14:15Z</time>
      </trkpt>
      <trkpt lat="44.91936" lon="4.21006">
        <ele>1299.84</ele>
        <time>2002-03-28T15:14:55Z</time>
      </trkpt>
      <trkpt lat="44.91929" lon="4.21036">
        <ele>1297.92</ele>
        <time>2002-03-28T15:15:10Z</time>
      </trkpt>
      <trkpt lat="44.91922" lon="4.21066">
        <ele>1295.03</ele>
        <time>2002-03-28T15:15:24Z</time>
      </trkpt>
      <trkpt lat="44.91915" lon="4.21092">
        <ele>1293.59</ele>
        <time>2002-03-28T15:15:37Z</time>
      </trkpt>
      <trkpt lat="44.91898" lon="4.21115">
        <ele>1292.15</ele>
        <time>2002-03-28T15:15:52Z</time>
      </trkpt>
      <trkpt lat="44.91894" lon="4.21117">
        <ele>1291.67</ele>
        <time>2002-03-28T15:15:55Z</time>
      </trkpt>
      <trkpt lat="44.91877" lon="4.21132">
        <ele>1290.23</ele>
        <time>2002-03-28T15:16:10Z</time>
      </trkpt>
      <trkpt lat="44.91864" lon="4.21147">
        <ele>1288.3</ele>
        <time>2002-03-28T15:16:22Z</time>
      </trkpt>
      <trkpt lat="44.91857" lon="4.21156">
        <ele>1286.38</ele>
        <time>2002-03-28T15:16:29Z</time>
      </trkpt>
      <trkpt lat="44.91848" lon="4.21177">
        <ele>1284.46</ele>
        <time>2002-03-28T15:16:43Z</time>
      </trkpt>
      <trkpt lat="44.91844" lon="4.21183">
        <ele>1284.94</ele>
        <time>2002-03-28T15:16:47Z</time>
      </trkpt>
      <trkpt lat="44.91828" lon="4.21201">
        <ele>1283.02</ele>
        <time>2002-03-28T15:17:02Z</time>
      </trkpt>
      <trkpt lat="44.91809" lon="4.21211">
        <ele>1280.61</ele>
        <time>2002-03-28T15:17:16Z</time>
      </trkpt>
      <trkpt lat="44.91788" lon="4.21211">
        <ele>1278.69</ele>
        <time>2002-03-28T15:17:30Z</time>
      </trkpt>
      <trkpt lat="44.91784" lon="4.21212">
        <ele>1278.69</ele>
        <time>2002-03-28T15:17:33Z</time>
      </trkpt>
      <trkpt lat="44.9178" lon="4.21212">
        <ele>1277.73</ele>
        <time>2002-03-28T15:17:36Z</time>
      </trkpt>
      <trkpt lat="44.91775" lon="4.21215">
        <ele>1277.73</ele>
        <time>2002-03-28T15:17:39Z</time>
      </trkpt>
      <trkpt lat="44.91772" lon="4.21216">
        <ele>1277.73</ele>
        <time>2002-03-28T15:17:41Z</time>
      </trkpt>
      <trkpt lat="44.91749" lon="4.21226">
        <ele>1276.77</ele>
        <time>2002-03-28T15:17:56Z</time>
      </trkpt>
      <trkpt lat="44.91727" lon="4.21224">
        <ele>1273.88</ele>
        <time>2002-03-28T15:18:10Z</time>
      </trkpt>
      <trkpt lat="44.91715" lon="4.21223">
        <ele>1273.88</ele>
        <time>2002-03-28T15:18:18Z</time>
      </trkpt>
      <trkpt lat="44.91709" lon="4.21221">
        <ele>1273.88</ele>
        <time>2002-03-28T15:18:23Z</time>
      </trkpt>
      <trkpt lat="44.91703" lon="4.21218">
        <ele>1272.92</ele>
        <time>2002-03-28T15:18:27Z</time>
      </trkpt>
      <trkpt lat="44.91683" lon="4.21212">
        <ele>1272.44</ele>
        <time>2002-03-28T15:18:40Z</time>
      </trkpt>
      <trkpt lat="44.91672" lon="4.212">
        <ele>1271.48</ele>
        <time>2002-03-28T15:18:51Z</time>
      </trkpt>
      <trkpt lat="44.91655" lon="4.21181">
        <ele>1270.52</ele>
        <time>2002-03-28T15:19:05Z</time>
      </trkpt>
      <trkpt lat="44.9164" lon="4.21168">
        <ele>1268.6</ele>
        <time>2002-03-28T15:19:18Z</time>
      </trkpt>
      <trkpt lat="44.91637" lon="4.21167">
        <ele>1268.12</ele>
        <time>2002-03-28T15:19:20Z</time>
      </trkpt>
      <trkpt lat="44.91631" lon="4.2117">
        <ele>1267.16</ele>
        <time>2002-03-28T15:19:24Z</time>
      </trkpt>
      <trkpt lat="44.91626" lon="4.21201">
        <ele>1265.71</ele>
        <time>2002-03-28T15:19:39Z</time>
      </trkpt>
      <trkpt lat="44.91627" lon="4.21206">
        <ele>1265.71</ele>
        <time>2002-03-28T15:19:41Z</time>
      </trkpt>
      <trkpt lat="44.9163" lon="4.2122">
        <ele>1265.71</ele>
        <time>2002-03-28T15:19:48Z</time>
      </trkpt>
      <trkpt lat="44.91636" lon="4.21251">
        <ele>1264.75</ele>
        <time>2002-03-28T15:20:04Z</time>
      </trkpt>
      <trkpt lat="44.91641" lon="4.21281">
        <ele>1264.27</ele>
        <time>2002-03-28T15:20:19Z</time>
      </trkpt>
      <trkpt lat="44.91645" lon="4.21304">
        <ele>1263.31</ele>
        <time>2002-03-28T15:20:30Z</time>
      </trkpt>
      <trkpt lat="44.9165" lon="4.2134">
        <ele>1262.35</ele>
        <time>2002-03-28T15:20:48Z</time>
      </trkpt>
      <trkpt lat="44.91651" lon="4.21355">
        <ele>1261.87</ele>
        <time>2002-03-28T15:20:55Z</time>
      </trkpt>
      <trkpt lat="44.91653" lon="4.2139">
        <ele>1260.91</ele>
        <time>2002-03-28T15:21:11Z</time>
      </trkpt>
      <trkpt lat="44.91652" lon="4.21415">
        <ele>1259.94</ele>
        <time>2002-03-28T15:21:24Z</time>
      </trkpt>
      <trkpt lat="44.91644" lon="4.21446">
        <ele>1258.5</ele>
        <time>2002-03-28T15:21:40Z</time>
      </trkpt>
      <trkpt lat="44.9164" lon="4.21467">
        <ele>1257.54</ele>
        <time>2002-03-28T15:21:51Z</time>
      </trkpt>
      <trkpt lat="44.91639" lon="4.2148">
        <ele>1257.54</ele>
        <time>2002-03-28T15:21:58Z</time>
      </trkpt>
      <trkpt lat="44.91642" lon="4.21489">
        <ele>1256.1</ele>
        <time>2002-03-28T15:22:03Z</time>
      </trkpt>
      <trkpt lat="44.91648" lon="4.21509">
        <ele>1256.1</ele>
        <time>2002-03-28T15:22:14Z</time>
      </trkpt>
      <trkpt lat="44.9166" lon="4.21533">
        <ele>1254.18</ele>
        <time>2002-03-28T15:22:29Z</time>
      </trkpt>
      <trkpt lat="44.91653" lon="4.21562">
        <ele>1252.25</ele>
        <time>2002-03-28T15:22:45Z</time>
      </trkpt>
      <trkpt lat="44.9163" lon="4.21566">
        <ele>1251.77</ele>
        <time>2002-03-28T15:23:00Z</time>
      </trkpt>
      <trkpt lat="44.91611" lon="4.21572">
        <ele>1251.29</ele>
        <time>2002-03-28T15:23:14Z</time>
      </trkpt>
      <trkpt lat="44.91591" lon="4.21583">
        <ele>1249.85</ele>
        <time>2002-03-28T15:23:29Z</time>
      </trkpt>
      <trkpt lat="44.91579" lon="4.2159">
        <ele>1249.37</ele>
        <time>2002-03-28T15:23:38Z</time>
      </trkpt>
      <trkpt lat="44.91557" lon="4.21606">
        <ele>1247.45</ele>
        <time>2002-03-28T15:23:55Z</time>
      </trkpt>
      <trkpt lat="44.91541" lon="4.21623">
        <ele>1246.01</ele>
        <time>2002-03-28T15:24:09Z</time>
      </trkpt>
      <trkpt lat="44.9153" lon="4.21646">
        <ele>1244.08</ele>
        <time>2002-03-28T15:24:23Z</time>
      </trkpt>
      <trkpt lat="44.91521" lon="4.21672">
        <ele>1243.6</ele>
        <time>2002-03-28T15:24:38Z</time>
      </trkpt>
      <trkpt lat="44.91515" lon="4.21699">
        <ele>1242.64</ele>
        <time>2002-03-28T15:24:53Z</time>
      </trkpt>
      <trkpt lat="44.91509" lon="4.21725">
        <ele>1242.16</ele>
        <time>2002-03-28T15:25:07Z</time>
      </trkpt>
      <trkpt lat="44.91503" lon="4.21754">
        <ele>1240.24</ele>
        <time>2002-03-28T15:25:23Z</time>
      </trkpt>
      <trkpt lat="44.91495" lon="4.21784">
        <ele>1239.28</ele>
        <time>2002-03-28T15:25:39Z</time>
      </trkpt>
      <trkpt lat="44.91489" lon="4.21812">
        <ele>1238.32</ele>
        <time>2002-03-28T15:25:54Z</time>
      </trkpt>
      <trkpt lat="44.91484" lon="4.2184">
        <ele>1236.39</ele>
        <time>2002-03-28T15:26:09Z</time>
      </trkpt>
      <trkpt lat="44.91482" lon="4.21868">
        <ele>1235.43</ele>
        <time>2002-03-28T15:26:23Z</time>
      </trkpt>
      <trkpt lat="44.91479" lon="4.21901">
        <ele>1234.47</ele>
        <time>2002-03-28T15:26:39Z</time>
      </trkpt>
      <trkpt lat="44.9148" lon="4.21926">
        <ele>1233.03</ele>
        <time>2002-03-28T15:26:52Z</time>
      </trkpt>
      <trkpt lat="44.91481" lon="4.21957">
        <ele>1231.59</ele>
        <time>2002-03-28T15:27:08Z</time>
      </trkpt>
      <trkpt lat="44.9148" lon="4.21984">
        <ele>1230.14</ele>
        <time>2002-03-28T15:27:22Z</time>
      </trkpt>
      <trkpt lat="44.91481" lon="4.21988">
        <ele>1230.14</ele>
        <time>2002-03-28T15:27:24Z</time>
      </trkpt>
      <trkpt lat="44.91481" lon="4.22003">
        <ele>1230.14</ele>
        <time>2002-03-28T15:27:31Z</time>
      </trkpt>
      <trkpt lat="44.91485" lon="4.22028">
        <ele>1228.22</ele>
        <time>2002-03-28T15:27:45Z</time>
      </trkpt>
      <trkpt lat="44.91489" lon="4.22041">
        <ele>1228.22</ele>
        <time>2002-03-28T15:27:56Z</time>
      </trkpt>
      <trkpt lat="44.91492" lon="4.22047">
        <ele>1227.74</ele>
        <time>2002-03-28T15:28:00Z</time>
      </trkpt>
      <trkpt lat="44.91496" lon="4.22056">
        <ele>1227.26</ele>
        <time>2002-03-28T15:28:05Z</time>
      </trkpt>
      <trkpt lat="44.91509" lon="4.22082">
        <ele>1225.82</ele>
        <time>2002-03-28T15:28:22Z</time>
      </trkpt>
      <trkpt lat="44.91515" lon="4.22091">
        <ele>1225.82</ele>
        <time>2002-03-28T15:28:28Z</time>
      </trkpt>
      <trkpt lat="44.91518" lon="4.22098">
        <ele>1224.86</ele>
        <time>2002-03-28T15:28:32Z</time>
      </trkpt>
      <trkpt lat="44.91521" lon="4.22102">
        <ele>1225.34</ele>
        <time>2002-03-28T15:28:35Z</time>
      </trkpt>
      <trkpt lat="44.91526" lon="4.22126">
        <ele>1223.9</ele>
        <time>2002-03-28T15:28:48Z</time>
      </trkpt>
      <trkpt lat="44.91527" lon="4.22162">
        <ele>1223.9</ele>
        <time>2002-03-28T15:29:05Z</time>
      </trkpt>
      <trkpt lat="44.91525" lon="4.22194">
        <ele>1221.97</ele>
        <time>2002-03-28T15:29:21Z</time>
      </trkpt>
      <trkpt lat="44.91521" lon="4.22221">
        <ele>1221.49</ele>
        <time>2002-03-28T15:29:37Z</time>
      </trkpt>
      <trkpt lat="44.91512" lon="4.22248">
        <ele>1220.53</ele>
        <time>2002-03-28T15:29:57Z</time>
      </trkpt>
      <trkpt lat="44.91511" lon="4.22245">
        <ele>1219.57</ele>
        <time>2002-03-28T15:30:00Z</time>
      </trkpt>
      <trkpt lat="44.91515" lon="4.22228">
        <ele>1219.09</ele>
        <time>2002-03-28T15:30:10Z</time>
      </trkpt>
      <trkpt lat="44.9152" lon="4.22209">
        <ele>1218.61</ele>
        <time>2002-03-28T15:30:20Z</time>
      </trkpt>
      <trkpt lat="44.91518" lon="4.22201">
        <ele>1218.13</ele>
        <time>2002-03-28T15:30:24Z</time>
      </trkpt>
      <trkpt lat="44.91518" lon="4.22197">
        <ele>1218.13</ele>
        <time>2002-03-28T15:30:26Z</time>
      </trkpt>
      <trkpt lat="44.91518" lon="4.22187">
        <ele>1217.65</ele>
        <time>2002-03-28T15:30:31Z</time>
      </trkpt>
      <trkpt lat="44.91517" lon="4.22176">
        <ele>1217.17</ele>
        <time>2002-03-28T15:30:36Z</time>
      </trkpt>
      <trkpt lat="44.91511" lon="4.22146">
        <ele>1216.21</ele>
        <time>2002-03-28T15:30:52Z</time>
      </trkpt>
      <trkpt lat="44.91506" lon="4.22129">
        <ele>1215.24</ele>
        <time>2002-03-28T15:31:01Z</time>
      </trkpt>
      <trkpt lat="44.91496" lon="4.22115">
        <ele>1214.76</ele>
        <time>2002-03-28T15:31:11Z</time>
      </trkpt>
      <trkpt lat="44.91483" lon="4.22096">
        <ele>1213.8</ele>
        <time>2002-03-28T15:31:24Z</time>
      </trkpt>
      <trkpt lat="44.91469" lon="4.22073">
        <ele>1212.84</ele>
        <time>2002-03-28T15:31:40Z</time>
      </trkpt>
      <trkpt lat="44.91465" lon="4.22066">
        <ele>1210.92</ele>
        <time>2002-03-28T15:31:45Z</time>
      </trkpt>
      <trkpt lat="44.91455" lon="4.22048">
        <ele>1210.44</ele>
        <time>2002-03-28T15:31:59Z</time>
      </trkpt>
      <trkpt lat="44.91454" lon="4.22045">
        <ele>1209.96</ele>
        <time>2002-03-28T15:32:01Z</time>
      </trkpt>
      <trkpt lat="44.91445" lon="4.22035">
        <ele>1209.96</ele>
        <time>2002-03-28T15:32:09Z</time>
      </trkpt>
      <trkpt lat="44.91432" lon="4.22015">
        <ele>1208.51</ele>
        <time>2002-03-28T15:32:23Z</time>
      </trkpt>
      <trkpt lat="44.9143" lon="4.22012">
        <ele>1208.51</ele>
        <time>2002-03-28T15:32:25Z</time>
      </trkpt>
      <trkpt lat="44.91425" lon="4.22005">
        <ele>1208.51</ele>
        <time>2002-03-28T15:32:30Z</time>
      </trkpt>
      <trkpt lat="44.91409" lon="4.21981">
        <ele>1206.59</ele>
        <time>2002-03-28T15:32:46Z</time>
      </trkpt>
      <trkpt lat="44.91404" lon="4.21975">
        <ele>1206.11</ele>
        <time>2002-03-28T15:32:50Z</time>
      </trkpt>
      <trkpt lat="44.91384" lon="4.21956">
        <ele>1204.67</ele>
        <time>2002-03-28T15:33:06Z</time>
      </trkpt>
      <trkpt lat="44.91367" lon="4.21941">
        <ele>1203.71</ele>
        <time>2002-03-28T15:33:20Z</time>
      </trkpt>
      <trkpt lat="44.91355" lon="4.21919">
        <ele>1202.27</ele>
        <time>2002-03-28T15:33:34Z</time>
      </trkpt>
      <trkpt lat="44.91352" lon="4.21906">
        <ele>1201.3</ele>
        <time>2002-03-28T15:33:42Z</time>
      </trkpt>
      <trkpt lat="44.91352" lon="4.21902">
        <ele>1201.79</ele>
        <time>2002-03-28T15:33:44Z</time>
      </trkpt>
      <trkpt lat="44.91352" lon="4.21891">
        <ele>1201.3</ele>
        <time>2002-03-28T15:33:50Z</time>
      </trkpt>
      <trkpt lat="44.91354" lon="4.21883">
        <ele>1200.82</ele>
        <time>2002-03-28T15:34:07Z</time>
      </trkpt>
      <trkpt lat="44.91354" lon="4.21883">
        <ele>1199.86</ele>
        <time>2002-03-28T15:34:31Z</time>
      </trkpt>
      <trkpt lat="44.91355" lon="4.21883">
        <ele>1200.34</ele>
        <time>2002-03-28T15:35:23Z</time>
      </trkpt>
      <trkpt lat="44.91355" lon="4.21883">
        <ele>1200.34</ele>
        <time>2002-03-28T15:35:37Z</time>
      </trkpt>
      <trkpt lat="44.91355" lon="4.21882">
        <ele>1196.98</ele>
        <time>2002-03-28T15:36:32Z</time>
      </trkpt>
      <trkpt lat="44.91355" lon="4.21882">
        <ele>1196.5</ele>
        <time>2002-03-28T15:36:33Z</time>
      </trkpt>
      <trkpt lat="44.91355" lon="4.21882">
        <ele>1200.82</ele>
        <time>2002-03-28T15:36:35Z</time>
      </trkpt>
      <trkpt lat="44.91355" lon="4.21882">
        <ele>1200.34</ele>
        <time>2002-03-28T15:36:36Z</time>
      </trkpt>
    </trkseg>
  </trk>
</gpx>